Wetterdaten: aktuell Mittwoch, 17.10.2018 15:57
Datum Zeit Temp. I. Temp 2m Temp 5cm Temp -10cm Feuchte I. Luftf 2m Luftdruck Regen Wind Richtung Richtung Sonnenschein ET UV Solar Taupunkt Windchill Windben Empfang
17.10.2018 15:57 23,9 C 19,5 C 28,3 C 13,9 C 55 % 55 % 1018,4 hPa 0,0 l/m 0,0 km/h (0 Bft) N 0 1 min 0,000 mm 2,5 UV-I 262 W/m 10,2 C 19,5 C 0,0 km/h (0 Bft) 95,65 %
17.10.2018 15:56 23,9 C 19,4 C 27,8 C 13,9 C 55 % 55 % 1018,4 hPa 0,0 l/m 0,0 km/h (0 Bft) N 0 1 min 0,000 mm 2,5 UV-I 262 W/m 10,1 C 19,4 C 0,0 km/h (0 Bft) 91,30 %
17.10.2018 15:55 23,9 C 19,4 C 27,8 C 13,9 C 55 % 55 % 1018,4 hPa 0,0 l/m 0,0 km/h (0 Bft) O-NO 67 1 min 0,000 mm 2,5 UV-I 265 W/m 10,1 C 19,4 C 1,6 km/h (1 Bft) 95,65 %
17.10.2018 15:54 23,9 C 19,4 C 27,8 C 13,9 C 55 % 55 % 1018,4 hPa 0,0 l/m 0,0 km/h (0 Bft) N 0 1 min 0,000 mm 2,5 UV-I 265 W/m 10,1 C 19,4 C 0,0 km/h (0 Bft) 95,65 %
17.10.2018 15:53 23,9 C 19,4 C 27,8 C 13,9 C 55 % 55 % 1018,4 hPa 0,0 l/m 0,0 km/h (0 Bft) O-NO 67 1 min 0,000 mm 2,5 UV-I 269 W/m 10,1 C 19,4 C 1,6 km/h (1 Bft) 95,65 %
17.10.2018 15:52 23,9 C 19,3 C 27,8 C 13,9 C 55 % 55 % 1018,4 hPa 0,0 l/m 0,0 km/h (0 Bft) N 0 1 min 0,000 mm 2,5 UV-I 271 W/m 10,0 C 19,3 C 0,0 km/h (0 Bft) 95,65 %
17.10.2018 15:51 23,9 C 19,3 C 27,8 C 13,9 C 55 % 55 % 1018,4 hPa 0,0 l/m 0,0 km/h (0 Bft) N 0 1 min 0,000 mm 2,5 UV-I 272 W/m 10,0 C 19,3 C 0,0 km/h (0 Bft) 95,65 %
17.10.2018 15:50 23,9 C 19,3 C 27,2 C 13,9 C 56 % 56 % 1018,4 hPa 0,0 l/m 0,0 km/h (0 Bft) N 0 1 min 0,000 mm 2,5 UV-I 274 W/m 10,3 C 19,3 C 0,0 km/h (0 Bft) 91,30 %
17.10.2018 15:49 23,9 C 19,4 C 27,2 C 13,9 C 55 % 55 % 1018,4 hPa 0,0 l/m 0,0 km/h (0 Bft) N 0 1 min 0,000 mm 2,5 UV-I 278 W/m 10,1 C 19,4 C 0,0 km/h (0 Bft) 100,00 %
17.10.2018 15:48 23,9 C 19,4 C 27,8 C 13,9 C 55 % 55 % 1018,4 hPa 0,0 l/m 1,6 km/h (1 Bft) O-NO 67 1 min 0,000 mm 2,6 UV-I 279 W/m 10,1 C 19,4 C 3,2 km/h (1 Bft) 95,65 %
17.10.2018 15:47 23,9 C 19,4 C 27,8 C 13,9 C 55 % 55 % 1018,4 hPa 0,0 l/m 3,2 km/h (1 Bft) O-NO 67 1 min 0,000 mm 2,6 UV-I 281 W/m 10,1 C 19,4 C 4,8 km/h (1 Bft) 95,65 %
17.10.2018 15:46 23,9 C 19,4 C 27,8 C 13,9 C 55 % 56 % 1018,4 hPa 0,0 l/m 0,0 km/h (0 Bft) N 0 1 min 0,000 mm 2,6 UV-I 283 W/m 10,4 C 19,4 C 0,0 km/h (0 Bft) 100,00 %
17.10.2018 15:45 23,9 C 19,4 C 27,8 C 13,9 C 55 % 55 % 1018,4 hPa 0,0 l/m 0,0 km/h (0 Bft) O-NO 67 1 min 0,000 mm 2,7 UV-I 283 W/m 10,1 C 19,4 C 3,2 km/h (1 Bft) 95,65 %
17.10.2018 15:44 23,9 C 19,5 C 28,3 C 13,9 C 55 % 55 % 1018,5 hPa 0,0 l/m 1,6 km/h (1 Bft) O-NO 67 1 min 0,000 mm 2,7 UV-I 287 W/m 10,2 C 19,5 C 3,2 km/h (1 Bft) 95,65 %
17.10.2018 15:43 23,9 C 19,5 C 28,3 C 13,9 C 55 % 55 % 1018,5 hPa 0,0 l/m 1,6 km/h (1 Bft) O-NO 67 1 min 0,000 mm 2,8 UV-I 290 W/m 10,2 C 19,5 C 4,8 km/h (1 Bft) 100,00 %
17.10.2018 15:42 23,9 C 19,6 C 28,3 C 13,9 C 55 % 55 % 1018,5 hPa 0,0 l/m 0,0 km/h (0 Bft) O-NO 67 1 min 0,000 mm 2,8 UV-I 292 W/m 10,3 C 19,6 C 1,6 km/h (1 Bft) 91,30 %
17.10.2018 15:41 23,9 C 19,6 C 28,9 C 13,9 C 55 % 55 % 1018,5 hPa 0,0 l/m 1,6 km/h (1 Bft) O-NO 67 1 min 0,000 mm 2,9 UV-I 292 W/m 10,3 C 19,6 C 3,2 km/h (1 Bft) 91,30 %
17.10.2018 15:40 23,9 C 19,7 C 28,9 C 13,9 C 55 % 55 % 1018,5 hPa 0,0 l/m 0,0 km/h (0 Bft) O-NO 67 1 min 0,000 mm 2,9 UV-I 294 W/m 10,4 C 19,7 C 1,6 km/h (1 Bft) 95,65 %
17.10.2018 15:39 23,9 C 19,8 C 28,9 C 13,9 C 55 % 56 % 1018,5 hPa 0,0 l/m 0,0 km/h (0 Bft) O-NO 67 1 min 0,000 mm 2,9 UV-I 295 W/m 10,8 C 19,8 C 1,6 km/h (1 Bft) 91,30 %
17.10.2018 15:38 23,9 C 19,8 C 29,4 C 13,9 C 55 % 55 % 1018,5 hPa 0,0 l/m 1,6 km/h (1 Bft) O-NO 67 1 min 0,000 mm 2,9 UV-I 297 W/m 10,5 C 19,8 C 4,8 km/h (1 Bft) 95,65 %
17.10.2018 15:37 23,9 C 19,7 C 29,4 C 13,9 C 55 % 55 % 1018,5 hPa 0,0 l/m 3,2 km/h (1 Bft) O-NO 67 1 min 0,000 mm 2,9 UV-I 301 W/m 10,4 C 19,7 C 4,8 km/h (1 Bft) 91,30 %
17.10.2018 15:36 23,9 C 19,7 C 30,0 C 13,9 C 55 % 56 % 1018,5 hPa 0,0 l/m 3,2 km/h (1 Bft) O-NO 67 1 min 0,000 mm 2,9 UV-I 302 W/m 10,7 C 19,7 C 4,8 km/h (1 Bft) 95,65 %
17.10.2018 15:35 23,9 C 19,7 C 30,0 C 13,9 C 55 % 56 % 1018,5 hPa 0,0 l/m 1,6 km/h (1 Bft) O-NO 67 1 min 0,000 mm 2,9 UV-I 302 W/m 10,7 C 19,7 C 3,2 km/h (1 Bft) 91,30 %
17.10.2018 15:34 23,9 C 19,6 C 30,6 C 13,9 C 55 % 55 % 1018,5 hPa 0,0 l/m 0,0 km/h (0 Bft) N 0 1 min 0,000 mm 2,9 UV-I 304 W/m 10,3 C 19,6 C 0,0 km/h (0 Bft) 100,00 %
17.10.2018 15:33 23,9 C 19,6 C 30,6 C 13,9 C 55 % 56 % 1018,5 hPa 0,0 l/m 0,0 km/h (0 Bft) O-NO 67 1 min 0,000 mm 2,9 UV-I 306 W/m 10,6 C 19,6 C 1,6 km/h (1 Bft) 91,30 %
17.10.2018 15:32 23,9 C 19,6 C 30,6 C 13,9 C 55 % 56 % 1018,5 hPa 0,0 l/m 0,0 km/h (0 Bft) N 0 1 min 0,000 mm 2,9 UV-I 311 W/m 10,6 C 19,6 C 0,0 km/h (0 Bft) 95,65 %
17.10.2018 15:31 23,9 C 19,6 C 30,6 C 13,9 C 55 % 56 % 1018,5 hPa 0,0 l/m 0,0 km/h (0 Bft) N 0 1 min 0,000 mm 2,9 UV-I 313 W/m 10,6 C 19,6 C 0,0 km/h (0 Bft) 91,30 %
17.10.2018 15:30 23,9 C 19,6 C 30,6 C 13,9 C 55 % 57 % 1018,5 hPa 0,0 l/m 0,0 km/h (0 Bft) N 0 1 min 0,000 mm 2,9 UV-I 316 W/m 10,8 C 19,6 C 0,0 km/h (0 Bft) 86,96 %
17.10.2018 15:29 23,9 C 19,6 C 30,6 C 13,9 C 55 % 56 % 1018,5 hPa 0,0 l/m 0,0 km/h (0 Bft) N 0 1 min 0,000 mm 2,8 UV-I 316 W/m 10,6 C 19,6 C 0,0 km/h (0 Bft) 91,30 %
17.10.2018 15:28 23,9 C 19,6 C 30,6 C 13,9 C 55 % 55 % 1018,5 hPa 0,0 l/m 0,0 km/h (0 Bft) N 0 1 min 0,000 mm 2,8 UV-I 318 W/m 10,3 C 19,6 C 0,0 km/h (0 Bft) 91,30 %
17.10.2018 15:27 23,9 C 19,6 C 30,6 C 13,9 C 55 % 56 % 1018,5 hPa 0,0 l/m 0,0 km/h (0 Bft) N 0 1 min 0,000 mm 2,8 UV-I 320 W/m 10,6 C 19,6 C 0,0 km/h (0 Bft) 91,30 %
17.10.2018 15:26 23,9 C 19,6 C 30,6 C 13,9 C 55 % 55 % 1018,5 hPa 0,0 l/m 0,0 km/h (0 Bft) N 0 1 min 0,000 mm 2,8 UV-I 322 W/m 10,3 C 19,6 C 0,0 km/h (0 Bft) 86,96 %
17.10.2018 15:25 23,9 C 19,6 C 30,6 C 13,9 C 55 % 56 % 1018,5 hPa 0,0 l/m 0,0 km/h (0 Bft) N 0 1 min 0,000 mm 2,8 UV-I 323 W/m 10,6 C 19,6 C 0,0 km/h (0 Bft) 95,65 %
17.10.2018 15:24 23,9 C 19,6 C 30,6 C 13,9 C 55 % 56 % 1018,5 hPa 0,0 l/m 0,0 km/h (0 Bft) N 0 1 min 0,000 mm 2,8 UV-I 325 W/m 10,6 C 19,6 C 0,0 km/h (0 Bft) 91,30 %
17.10.2018 15:23 23,9 C 19,6 C 30,6 C 13,9 C 55 % 55 % 1018,5 hPa 0,0 l/m 0,0 km/h (0 Bft) O-NO 67 1 min 0,000 mm 2,8 UV-I 327 W/m 10,3 C 19,6 C 1,6 km/h (1 Bft) 91,30 %
17.10.2018 15:22 23,9 C 19,7 C 30,6 C 13,9 C 55 % 56 % 1018,5 hPa 0,0 l/m 1,6 km/h (1 Bft) O-NO 67 1 min 0,000 mm 2,8 UV-I 329 W/m 10,7 C 19,7 C 4,8 km/h (1 Bft) 95,65 %
17.10.2018 15:21 23,9 C 19,7 C 30,0 C 13,9 C 55 % 55 % 1018,5 hPa 0,0 l/m 1,6 km/h (1 Bft) O-NO 67 1 min 0,000 mm 2,9 UV-I 330 W/m 10,4 C 19,7 C 3,2 km/h (1 Bft) 95,65 %
17.10.2018 15:20 23,9 C 19,7 C 30,0 C 13,9 C 55 % 55 % 1018,5 hPa 0,0 l/m 4,8 km/h (1 Bft) O-NO 67 1 min 0,000 mm 2,9 UV-I 334 W/m 10,4 C 19,7 C 6,4 km/h (2 Bft) 91,30 %
17.10.2018 15:19 23,9 C 19,7 C 30,6 C 13,9 C 55 % 55 % 1018,5 hPa 0,0 l/m 4,8 km/h (1 Bft) O-NO 67 1 min 0,000 mm 2,9 UV-I 334 W/m 10,4 C 19,7 C 6,4 km/h (2 Bft) 95,65 %
17.10.2018 15:18 23,9 C 19,7 C 31,1 C 13,9 C 55 % 55 % 1018,5 hPa 0,0 l/m 0,0 km/h (0 Bft) O-NO 67 1 min 0,000 mm 2,9 UV-I 336 W/m 10,4 C 19,7 C 3,2 km/h (1 Bft) 95,65 %
17.10.2018 15:17 23,9 C 19,6 C 31,1 C 13,9 C 55 % 56 % 1018,5 hPa 0,0 l/m 0,0 km/h (0 Bft) O-NO 67 1 min 0,000 mm 2,9 UV-I 338 W/m 10,6 C 19,6 C 1,6 km/h (1 Bft) 91,30 %
17.10.2018 15:16 23,9 C 19,6 C 30,6 C 13,9 C 55 % 56 % 1018,5 hPa 0,0 l/m 0,0 km/h (0 Bft) N 0 1 min 0,000 mm 2,9 UV-I 339 W/m 10,6 C 19,6 C 0,0 km/h (0 Bft) 95,65 %
17.10.2018 15:15 23,9 C 19,5 C 30,6 C 13,9 C 56 % 55 % 1018,5 hPa 0,0 l/m 0,0 km/h (0 Bft) O-NO 67 1 min 0,000 mm 2,9 UV-I 339 W/m 10,2 C 19,5 C 1,6 km/h (1 Bft) 91,30 %
17.10.2018 15:14 23,9 C 19,5 C 30,6 C 13,9 C 55 % 55 % 1018,6 hPa 0,0 l/m 0,0 km/h (0 Bft) O-NO 67 1 min 0,000 mm 2,8 UV-I 343 W/m 10,2 C 19,5 C 1,6 km/h (1 Bft) 95,65 %
17.10.2018 15:13 23,9 C 19,4 C 30,0 C 13,9 C 55 % 55 % 1018,6 hPa 0,0 l/m 0,0 km/h (0 Bft) N 0 1 min 0,000 mm 2,8 UV-I 346 W/m 10,1 C 19,4 C 0,0 km/h (0 Bft) 91,30 %
17.10.2018 15:12 23,9 C 19,4 C 29,4 C 13,9 C 55 % 56 % 1018,6 hPa 0,0 l/m 0,0 km/h (0 Bft) N 0 1 min 0,000 mm 2,8 UV-I 348 W/m 10,4 C 19,4 C 0,0 km/h (0 Bft) 95,65 %
17.10.2018 15:11 23,9 C 19,4 C 29,4 C 13,9 C 55 % 55 % 1018,6 hPa 0,0 l/m 1,6 km/h (1 Bft) O-NO 67 1 min 0,000 mm 2,8 UV-I 350 W/m 10,1 C 19,4 C 3,2 km/h (1 Bft) 91,30 %
17.10.2018 15:10 23,9 C 19,3 C 30,0 C 13,9 C 55 % 55 % 1018,6 hPa 0,0 l/m 0,0 km/h (0 Bft) O-NO 67 1 min 0,000 mm 2,8 UV-I 350 W/m 10,0 C 19,3 C 3,2 km/h (1 Bft) 86,96 %
17.10.2018 15:09 23,9 C 19,3 C 30,6 C 13,3 C 55 % 55 % 1018,6 hPa 0,0 l/m 0,0 km/h (0 Bft) N 0 1 min 0,000 mm 2,8 UV-I 353 W/m 10,0 C 19,3 C 0,0 km/h (0 Bft) 95,65 %
17.10.2018 15:08 23,9 C 19,3 C 30,6 C 13,3 C 55 % 56 % 1018,6 hPa 0,0 l/m 0,0 km/h (0 Bft) N 0 1 min 0,000 mm 2,8 UV-I 355 W/m 10,3 C 19,3 C 0,0 km/h (0 Bft) 95,65 %
17.10.2018 15:07 23,9 C 19,3 C 30,6 C 13,3 C 55 % 54 % 1018,6 hPa 0,0 l/m 0,0 km/h (0 Bft) N 0 1 min 0,000 mm 2,9 UV-I 357 W/m 9,8 C 19,3 C 0,0 km/h (0 Bft) 95,65 %
17.10.2018 15:06 23,9 C 19,3 C 30,6 C 13,3 C 55 % 55 % 1018,6 hPa 0,0 l/m 0,0 km/h (0 Bft) O-NO 67 1 min 0,000 mm 2,9 UV-I 359 W/m 10,0 C 19,3 C 3,2 km/h (1 Bft) 95,65 %
17.10.2018 15:05 24,1 C 19,2 C 30,6 C 13,3 C 55 % 55 % 1018,6 hPa 0,0 l/m 1,6 km/h (1 Bft) O-NO 67 1 min 0,000 mm 2,9 UV-I 362 W/m 9,9 C 19,2 C 3,2 km/h (1 Bft) 95,65 %
17.10.2018 15:04 24,1 C 19,2 C 30,6 C 13,3 C 55 % 56 % 1018,6 hPa 0,0 l/m 0,0 km/h (0 Bft) N 0 1 min 0,000 mm 3,0 UV-I 364 W/m 10,2 C 19,2 C 0,0 km/h (0 Bft) 91,30 %
17.10.2018 15:03 24,1 C 19,2 C 30,6 C 13,3 C 55 % 54 % 1018,6 hPa 0,0 l/m 0,0 km/h (0 Bft) N 0 1 min 0,000 mm 3,1 UV-I 366 W/m 9,7 C 19,2 C 0,0 km/h (0 Bft) 100,00 %
17.10.2018 15:02 24,1 C 19,4 C 31,1 C 13,3 C 55 % 54 % 1018,6 hPa 0,0 l/m 0,0 km/h (0 Bft) O-NO 67 1 min 0,000 mm 3,1 UV-I 367 W/m 9,8 C 19,4 C 3,2 km/h (1 Bft) 95,65 %
17.10.2018 15:01 24,1 C 19,5 C 31,7 C 13,3 C 55 % 54 % 1018,6 hPa 0,0 l/m 0,0 km/h (0 Bft) O-NO 67 1 min 0,000 mm 3,1 UV-I 369 W/m 9,9 C 19,5 C 1,6 km/h (1 Bft) 95,65 %
17.10.2018 15:00 24,1 C 19,7 C 32,2 C 13,3 C 55 % 54 % 1018,6 hPa 0,0 l/m 0,0 km/h (0 Bft) N 0 1 min 0,203 mm 3,1 UV-I 369 W/m 10,1 C 19,7 C 0,0 km/h (0 Bft) 100,00 %
17.10.2018 14:59 24,1 C 19,8 C 32,8 C 13,3 C 55 % 55 % 1018,8 hPa 0,0 l/m 0,0 km/h (0 Bft) O-NO 67 1 min 0,000 mm 3,1 UV-I 371 W/m 10,5 C 19,8 C 1,6 km/h (1 Bft) 95,65 %
17.10.2018 14:58 24,1 C 19,7 C 32,8 C 13,3 C 55 % 56 % 1018,8 hPa 0,0 l/m 0,0 km/h (0 Bft) O-NO 67 1 min 0,000 mm 3,1 UV-I 373 W/m 10,7 C 19,7 C 3,2 km/h (1 Bft) 95,65 %
17.10.2018 14:57 24,1 C 19,6 C 32,8 C 13,3 C 55 % 56 % 1018,8 hPa 0,0 l/m 1,6 km/h (1 Bft) O-NO 67 1 min 0,000 mm 3,1 UV-I 373 W/m 10,6 C 19,6 C 4,8 km/h (1 Bft) 100,00 %
17.10.2018 14:56 23,9 C 19,6 C 32,8 C 13,3 C 55 % 55 % 1018,8 hPa 0,0 l/m 0,0 km/h (0 Bft) O-NO 67 1 min 0,000 mm 3,1 UV-I 374 W/m 10,3 C 19,6 C 1,6 km/h (1 Bft) 91,30 %
17.10.2018 14:55 23,9 C 19,5 C 32,8 C 13,3 C 55 % 56 % 1018,8 hPa 0,0 l/m 0,0 km/h (0 Bft) O-NO 67 1 min 0,000 mm 3,1 UV-I 376 W/m 10,5 C 19,5 C 1,6 km/h (1 Bft) 95,65 %
17.10.2018 14:54 23,9 C 19,5 C 32,8 C 13,3 C 55 % 55 % 1018,8 hPa 0,0 l/m 0,0 km/h (0 Bft) O-NO 67 1 min 0,000 mm 3,0 UV-I 376 W/m 10,2 C 19,5 C 1,6 km/h (1 Bft) 100,00 %
17.10.2018 14:53 23,9 C 19,5 C 33,3 C 13,3 C 55 % 56 % 1018,8 hPa 0,0 l/m 0,0 km/h (0 Bft) N 0 1 min 0,000 mm 3,0 UV-I 376 W/m 10,5 C 19,5 C 0,0 km/h (0 Bft) 91,30 %
17.10.2018 14:52 23,9 C 19,4 C 33,3 C 13,3 C 55 % 56 % 1018,8 hPa 0,0 l/m 0,0 km/h (0 Bft) N 0 1 min 0,000 mm 3,0 UV-I 374 W/m 10,4 C 19,4 C 0,0 km/h (0 Bft) 95,65 %
17.10.2018 14:51 23,9 C 19,3 C 33,3 C 13,3 C 55 % 58 % 1018,8 hPa 0,0 l/m 0,0 km/h (0 Bft) N 0 1 min 0,000 mm 3,0 UV-I 373 W/m 10,8 C 19,3 C 0,0 km/h (0 Bft) 100,00 %
17.10.2018 14:50 23,9 C 19,2 C 32,8 C 13,3 C 55 % 56 % 1018,8 hPa 0,0 l/m 1,6 km/h (1 Bft) O-NO 67 1 min 0,000 mm 2,9 UV-I 369 W/m 10,2 C 19,2 C 4,8 km/h (1 Bft) 91,30 %
17.10.2018 14:49 23,9 C 19,2 C 32,8 C 13,3 C 55 % 56 % 1018,8 hPa 0,0 l/m 0,0 km/h (0 Bft) N 0 1 min 0,000 mm 2,9 UV-I 367 W/m 10,2 C 19,2 C 0,0 km/h (0 Bft) 95,65 %
17.10.2018 14:48 23,9 C 19,1 C 33,3 C 13,3 C 55 % 56 % 1018,8 hPa 0,0 l/m 0,0 km/h (0 Bft) N 0 1 min 0,000 mm 2,9 UV-I 366 W/m 10,1 C 19,1 C 0,0 km/h (0 Bft) 95,65 %
17.10.2018 14:47 23,9 C 19,1 C 33,3 C 13,3 C 55 % 57 % 1018,8 hPa 0,0 l/m 0,0 km/h (0 Bft) O-NO 67 1 min 0,000 mm 2,9 UV-I 362 W/m 10,4 C 19,1 C 1,6 km/h (1 Bft) 95,65 %
17.10.2018 14:46 23,9 C 19,2 C 32,8 C 13,3 C 55 % 55 % 1018,8 hPa 0,0 l/m 0,0 km/h (0 Bft) N 0 1 min 0,000 mm 2,9 UV-I 362 W/m 9,9 C 19,2 C 0,0 km/h (0 Bft) 95,65 %
17.10.2018 14:45 23,9 C 19,2 C 32,8 C 13,3 C 55 % 56 % 1018,8 hPa 0,0 l/m 0,0 km/h (0 Bft) O-NO 67 1 min 0,000 mm 2,9 UV-I 359 W/m 10,2 C 19,2 C 1,6 km/h (1 Bft) 100,00 %
17.10.2018 14:44 23,9 C 19,2 C 32,8 C 13,3 C 55 % 57 % 1019,0 hPa 0,0 l/m 1,6 km/h (1 Bft) O-NO 67 1 min 0,000 mm 2,9 UV-I 353 W/m 10,5 C 19,2 C 1,6 km/h (1 Bft) 95,65 %
17.10.2018 14:43 23,9 C 19,1 C 33,3 C 13,3 C 55 % 56 % 1019,0 hPa 0,0 l/m 0,0 km/h (0 Bft) N 0 1 min 0,000 mm 2,9 UV-I 348 W/m 10,1 C 19,1 C 0,0 km/h (0 Bft) 95,65 %
17.10.2018 14:42 23,9 C 19,0 C 33,3 C 13,3 C 55 % 57 % 1019,0 hPa 0,0 l/m 0,0 km/h (0 Bft) N 0 1 min 0,000 mm 2,9 UV-I 345 W/m 10,3 C 19,0 C 0,0 km/h (0 Bft) 100,00 %
17.10.2018 14:41 23,9 C 18,9 C 33,3 C 13,3 C 55 % 57 % 1019,0 hPa 0,0 l/m 0,0 km/h (0 Bft) N 0 1 min 0,000 mm 2,8 UV-I 341 W/m 10,2 C 18,9 C 0,0 km/h (0 Bft) 95,65 %
17.10.2018 14:40 23,9 C 18,9 C 32,8 C 13,3 C 55 % 56 % 1019,0 hPa 0,0 l/m 0,0 km/h (0 Bft) O-NO 67 1 min 0,000 mm 2,8 UV-I 339 W/m 9,9 C 18,9 C 1,6 km/h (1 Bft) 95,65 %
17.10.2018 14:39 23,9 C 18,9 C 32,8 C 13,3 C 55 % 56 % 1019,0 hPa 0,0 l/m 0,0 km/h (0 Bft) N 0 1 min 0,000 mm 2,8 UV-I 336 W/m 9,9 C 18,9 C 0,0 km/h (0 Bft) 100,00 %
17.10.2018 14:38 23,9 C 18,9 C 32,8 C 13,3 C 55 % 56 % 1019,0 hPa 0,0 l/m 0,0 km/h (0 Bft) N 0 1 min 0,000 mm 2,8 UV-I 330 W/m 9,9 C 18,9 C 0,0 km/h (0 Bft) 95,65 %
17.10.2018 14:37 23,9 C 18,9 C 32,8 C 13,3 C 55 % 57 % 1019,0 hPa 0,0 l/m 0,0 km/h (0 Bft) O-NO 67 1 min 0,000 mm 2,9 UV-I 327 W/m 10,2 C 18,9 C 1,6 km/h (1 Bft) 91,30 %
17.10.2018 14:36 23,9 C 18,9 C 32,8 C 13,3 C 55 % 57 % 1019,0 hPa 0,0 l/m 1,6 km/h (1 Bft) O-NO 67 1 min 0,000 mm 2,8 UV-I 322 W/m 10,2 C 18,9 C 3,2 km/h (1 Bft) 100,00 %
17.10.2018 14:35 23,9 C 19,0 C 32,8 C 13,3 C 55 % 59 % 1019,0 hPa 0,0 l/m 1,6 km/h (1 Bft) O-NO 67 1 min 0,000 mm 2,8 UV-I 316 W/m 10,8 C 19,0 C 3,2 km/h (1 Bft) 95,65 %
17.10.2018 14:34 23,9 C 18,9 C 32,8 C 13,3 C 55 % 57 % 1019,0 hPa 0,0 l/m 4,8 km/h (1 Bft) O-NO 67 1 min 0,000 mm 2,8 UV-I 311 W/m 10,2 C 18,9 C 8,0 km/h (2 Bft) 91,30 %
17.10.2018 14:33 23,9 C 18,9 C 33,3 C 13,3 C 55 % 57 % 1019,0 hPa 0,0 l/m 0,0 km/h (0 Bft) O-NO 67 1 min 0,000 mm 2,8 UV-I 304 W/m 10,2 C 18,9 C 4,8 km/h (1 Bft) 100,00 %
17.10.2018 14:32 23,9 C 18,9 C 33,3 C 13,3 C 54 % 58 % 1019,0 hPa 0,0 l/m 0,0 km/h (0 Bft) N 0 1 min 0,000 mm 2,8 UV-I 294 W/m 10,5 C 18,9 C 0,0 km/h (0 Bft) 95,65 %
17.10.2018 14:31 23,9 C 18,9 C 33,3 C 13,3 C 55 % 57 % 1019,0 hPa 0,0 l/m 0,0 km/h (0 Bft) N 0 1 min 0,000 mm 2,8 UV-I 290 W/m 10,2 C 18,9 C 0,0 km/h (0 Bft) 95,65 %
17.10.2018 14:30 23,9 C 18,8 C 33,3 C 13,3 C 55 % 59 % 1019,0 hPa 0,0 l/m 0,0 km/h (0 Bft) N 0 1 min 0,000 mm 2,8 UV-I 288 W/m 10,6 C 18,8 C 0,0 km/h (0 Bft) 95,65 %
17.10.2018 14:29 23,9 C 18,8 C 33,3 C 13,3 C 55 % 57 % 1019,0 hPa 0,0 l/m 0,0 km/h (0 Bft) NO 45 1 min 0,000 mm 2,9 UV-I 287 W/m 10,1 C 18,8 C 3,2 km/h (1 Bft) 95,65 %
17.10.2018 14:28 23,9 C 18,8 C 33,9 C 13,3 C 55 % 58 % 1019,0 hPa 0,0 l/m 0,0 km/h (0 Bft) NO 45 1 min 0,000 mm 2,9 UV-I 285 W/m 10,4 C 18,8 C 3,2 km/h (1 Bft) 91,30 %
17.10.2018 14:27 23,9 C 18,8 C 34,4 C 13,3 C 55 % 59 % 1019,0 hPa 0,0 l/m 3,2 km/h (1 Bft) NO 45 1 min 0,000 mm 2,9 UV-I 285 W/m 10,6 C 18,8 C 4,8 km/h (1 Bft) 95,65 %
17.10.2018 14:26 23,9 C 18,8 C 34,4 C 13,3 C 55 % 58 % 1019,0 hPa 0,0 l/m 1,6 km/h (1 Bft) NO 45 1 min 0,000 mm 2,9 UV-I 290 W/m 10,4 C 18,8 C 4,8 km/h (1 Bft) 100,00 %
17.10.2018 14:25 23,9 C 18,8 C 34,4 C 13,3 C 55 % 58 % 1019,0 hPa 0,0 l/m 4,8 km/h (1 Bft) NO 45 1 min 0,000 mm 3,0 UV-I 295 W/m 10,4 C 18,8 C 6,4 km/h (2 Bft) 95,65 %
17.10.2018 14:24 23,9 C 18,7 C 35,0 C 13,3 C 56 % 58 % 1019,0 hPa 0,0 l/m 3,2 km/h (1 Bft) NO 45 1 min 0,000 mm 3,0 UV-I 301 W/m 10,3 C 18,7 C 6,4 km/h (2 Bft) 95,65 %
17.10.2018 14:23 23,9 C 18,6 C 35,0 C 13,3 C 55 % 59 % 1019,0 hPa 0,0 l/m 3,2 km/h (1 Bft) NO 45 1 min 0,000 mm 3,0 UV-I 311 W/m 10,4 C 18,6 C 4,8 km/h (1 Bft) 100,00 %
17.10.2018 14:22 23,9 C 18,4 C 35,0 C 13,3 C 55 % 59 % 1019,0 hPa 0,0 l/m 3,2 km/h (1 Bft) NO 45 1 min 0,000 mm 2,9 UV-I 318 W/m 10,2 C 18,4 C 6,4 km/h (2 Bft) 95,65 %
17.10.2018 14:21 23,9 C 18,3 C 35,0 C 13,3 C 55 % 60 % 1019,0 hPa 0,0 l/m 0,0 km/h (0 Bft) O-NO 67 1 min 0,000 mm 2,9 UV-I 339 W/m 10,4 C 18,3 C 1,6 km/h (1 Bft) 91,30 %
17.10.2018 14:20 23,9 C 18,3 C 35,0 C 13,3 C 55 % 59 % 1019,0 hPa 0,0 l/m 0,0 km/h (0 Bft) N 0 1 min 0,000 mm 2,9 UV-I 352 W/m 10,1 C 18,3 C 0,0 km/h (0 Bft) 100,00 %
17.10.2018 14:19 23,9 C 18,3 C 35,0 C 13,3 C 55 % 58 % 1019,0 hPa 0,0 l/m 0,0 km/h (0 Bft) N 0 1 min 0,000 mm 2,9 UV-I 366 W/m 9,9 C 18,3 C 0,0 km/h (0 Bft) 95,65 %
17.10.2018 14:18 23,9 C 18,3 C 34,4 C 13,3 C 55 % 59 % 1019,0 hPa 0,0 l/m 0,0 km/h (0 Bft) N 0 1 min 0,000 mm 2,9 UV-I 380 W/m 10,1 C 18,3 C 0,0 km/h (0 Bft) 91,30 %
17.10.2018 14:17 23,9 C 18,4 C 34,4 C 13,3 C 55 % 59 % 1019,0 hPa 0,0 l/m 0,0 km/h (0 Bft) O-NO 67 1 min 0,000 mm 2,9 UV-I 394 W/m 10,2 C 18,4 C 1,6 km/h (1 Bft) 100,00 %
17.10.2018 14:16 23,9 C 18,4 C 34,4 C 13,3 C 55 % 59 % 1019,0 hPa 0,0 l/m 0,0 km/h (0 Bft) O-NO 67 1 min 0,000 mm 2,9 UV-I 415 W/m 10,2 C 18,4 C 1,6 km/h (1 Bft) 95,65 %
17.10.2018 14:15 23,9 C 18,5 C 34,4 C 13,3 C 55 % 59 % 1019,0 hPa 0,0 l/m 0,0 km/h (0 Bft) N 0 1 min 0,000 mm 2,9 UV-I 422 W/m 10,3 C 18,5 C 0,0 km/h (0 Bft) 95,65 %
17.10.2018 14:14 23,9 C 18,5 C 35,0 C 13,3 C 55 % 60 % 1019,3 hPa 0,0 l/m 0,0 km/h (0 Bft) N 0 1 min 0,000 mm 2,9 UV-I 427 W/m 10,6 C 18,5 C 0,0 km/h (0 Bft) 95,65 %
17.10.2018 14:13 23,9 C 18,4 C 34,4 C 13,3 C 55 % 59 % 1019,3 hPa 0,0 l/m 0,0 km/h (0 Bft) N 0 1 min 0,000 mm 2,9 UV-I 429 W/m 10,2 C 18,4 C 0,0 km/h (0 Bft) 95,65 %
17.10.2018 14:12 23,9 C 18,4 C 34,4 C 13,3 C 55 % 58 % 1019,3 hPa 0,0 l/m 0,0 km/h (0 Bft) O-NO 67 1 min 0,000 mm 3,0 UV-I 432 W/m 10,0 C 18,4 C 3,2 km/h (1 Bft) 95,65 %
17.10.2018 14:11 23,9 C 18,4 C 34,4 C 13,3 C 55 % 58 % 1019,3 hPa 0,0 l/m 3,2 km/h (1 Bft) O-NO 67 1 min 0,000 mm 3,0 UV-I 434 W/m 10,0 C 18,4 C 4,8 km/h (1 Bft) 100,00 %
17.10.2018 14:10 23,9 C 18,4 C 34,4 C 13,3 C 55 % 57 % 1019,3 hPa 0,0 l/m 1,6 km/h (1 Bft) O-NO 67 1 min 0,000 mm 3,0 UV-I 434 W/m 9,7 C 18,4 C 4,8 km/h (1 Bft) 91,30 %
17.10.2018 14:09 23,9 C 18,4 C 34,4 C 13,3 C 55 % 58 % 1019,3 hPa 0,0 l/m 3,2 km/h (1 Bft) O-NO 67 1 min 0,000 mm 3,1 UV-I 432 W/m 10,0 C 18,4 C 4,8 km/h (1 Bft) 95,65 %
17.10.2018 14:08 23,9 C 18,4 C 34,4 C 13,3 C 55 % 58 % 1019,3 hPa 0,0 l/m 3,2 km/h (1 Bft) O-NO 67 1 min 0,000 mm 3,1 UV-I 436 W/m 10,0 C 18,4 C 6,4 km/h (2 Bft) 100,00 %
17.10.2018 14:07 23,9 C 18,5 C 35,6 C 13,3 C 55 % 58 % 1019,3 hPa 0,0 l/m 1,6 km/h (1 Bft) O-NO 67 1 min 0,000 mm 3,1 UV-I 438 W/m 10,1 C 18,5 C 3,2 km/h (1 Bft) 95,65 %
17.10.2018 14:06 23,9 C 18,5 C 35,6 C 13,3 C 55 % 57 % 1019,3 hPa 0,0 l/m 1,6 km/h (1 Bft) O-NO 67 1 min 0,000 mm 3,1 UV-I 436 W/m 9,8 C 18,5 C 3,2 km/h (1 Bft) 95,65 %
17.10.2018 14:05 23,9 C 18,5 C 35,6 C 13,3 C 55 % 58 % 1019,3 hPa 0,0 l/m 0,0 km/h (0 Bft) O-NO 67 1 min 0,000 mm 3,1 UV-I 434 W/m 10,1 C 18,5 C 3,2 km/h (1 Bft) 86,96 %
17.10.2018 14:04 23,9 C 18,4 C 35,0 C 13,3 C 55 % 59 % 1019,3 hPa 0,0 l/m 1,6 km/h (1 Bft) O-NO 67 1 min 0,000 mm 3,1 UV-I 434 W/m 10,2 C 18,4 C 4,8 km/h (1 Bft) 95,65 %
17.10.2018 14:03 23,9 C 18,5 C 35,6 C 13,3 C 55 % 57 % 1019,3 hPa 0,0 l/m 0,0 km/h (0 Bft) N 0 1 min 0,000 mm 3,1 UV-I 434 W/m 9,8 C 18,5 C 0,0 km/h (0 Bft) 91,30 %
17.10.2018 14:02 23,9 C 18,6 C 35,6 C 13,3 C 56 % 58 % 1019,3 hPa 0,0 l/m 0,0 km/h (0 Bft) O-NO 67 1 min 0,000 mm 3,1 UV-I 436 W/m 10,2 C 18,6 C 1,6 km/h (1 Bft) 100,00 %
17.10.2018 14:01 23,9 C 18,5 C 35,6 C 13,3 C 55 % 59 % 1019,3 hPa 0,0 l/m 0,0 km/h (0 Bft) O-NO 67 1 min 0,000 mm 3,0 UV-I 436 W/m 10,3 C 18,5 C 1,6 km/h (1 Bft) 91,30 %
17.10.2018 14:00 23,9 C 18,4 C 35,0 C 13,3 C 55 % 62 % 1019,3 hPa 0,0 l/m 3,2 km/h (1 Bft) O-NO 67 1 min 0,229 mm 3,0 UV-I 438 W/m 11,0 C 18,4 C 3,2 km/h (1 Bft) 91,30 %
17.10.2018 13:59 23,9 C 18,3 C 34,4 C 13,3 C 55 % 60 % 1019,4 hPa 0,0 l/m 0,0 km/h (0 Bft) O-NO 67 1 min 0,000 mm 3,0 UV-I 439 W/m 10,4 C 18,3 C 3,2 km/h (1 Bft) 100,00 %
17.10.2018 13:58 23,9 C 18,2 C 34,4 C 13,3 C 55 % 61 % 1019,4 hPa 0,0 l/m 0,0 km/h (0 Bft) O-NO 67 1 min 0,000 mm 2,9 UV-I 441 W/m 10,6 C 18,2 C 3,2 km/h (1 Bft) 91,30 %
17.10.2018 13:57 23,9 C 18,2 C 34,4 C 13,3 C 55 % 60 % 1019,4 hPa 0,0 l/m 1,6 km/h (1 Bft) O-NO 67 1 min 0,000 mm 2,9 UV-I 443 W/m 10,3 C 18,2 C 4,8 km/h (1 Bft) 91,30 %
17.10.2018 13:56 23,9 C 18,3 C 33,9 C 13,3 C 55 % 60 % 1019,4 hPa 0,0 l/m 0,0 km/h (0 Bft) N 0 1 min 0,000 mm 2,9 UV-I 443 W/m 10,4 C 18,3 C 0,0 km/h (0 Bft) 95,65 %
17.10.2018 13:55 23,9 C 18,2 C 34,4 C 13,3 C 55 % 63 % 1019,4 hPa 0,0 l/m 1,6 km/h (1 Bft) O-NO 67 1 min 0,000 mm 2,9 UV-I 445 W/m 11,0 C 18,2 C 3,2 km/h (1 Bft) 91,30 %
17.10.2018 13:54 23,9 C 18,1 C 33,9 C 13,3 C 55 % 61 % 1019,4 hPa 0,0 l/m 0,0 km/h (0 Bft) N 0 1 min 0,000 mm 2,9 UV-I 446 W/m 10,5 C 18,1 C 0,0 km/h (0 Bft) 91,30 %
17.10.2018 13:53 23,9 C 18,0 C 33,9 C 13,3 C 55 % 63 % 1019,4 hPa 0,0 l/m 3,2 km/h (1 Bft) O-NO 67 1 min 0,000 mm 2,8 UV-I 446 W/m 10,8 C 18,0 C 8,0 km/h (2 Bft) 95,65 %
17.10.2018 13:52 23,9 C 17,9 C 33,9 C 13,3 C 55 % 64 % 1019,4 hPa 0,0 l/m 4,8 km/h (1 Bft) NO 45 1 min 0,000 mm 2,9 UV-I 450 W/m 11,0 C 17,9 C 8,0 km/h (2 Bft) 95,65 %
17.10.2018 13:51 23,9 C 17,9 C 33,9 C 13,3 C 55 % 63 % 1019,4 hPa 0,0 l/m 1,6 km/h (1 Bft) NO 45 1 min 0,000 mm 2,9 UV-I 450 W/m 10,8 C 17,9 C 3,2 km/h (1 Bft) 91,30 %
17.10.2018 13:50 23,9 C 17,9 C 33,9 C 13,3 C 55 % 61 % 1019,4 hPa 0,0 l/m 0,0 km/h (0 Bft) NO 45 1 min 0,000 mm 2,9 UV-I 450 W/m 10,3 C 17,9 C 3,2 km/h (1 Bft) 95,65 %
17.10.2018 13:49 23,9 C 18,1 C 33,9 C 13,3 C 55 % 61 % 1019,4 hPa 0,0 l/m 0,0 km/h (0 Bft) N 0 1 min 0,000 mm 3,0 UV-I 452 W/m 10,5 C 18,1 C 0,0 km/h (0 Bft) 82,61 %
17.10.2018 13:48 23,9 C 18,2 C 33,9 C 13,3 C 55 % 62 % 1019,4 hPa 0,0 l/m 3,2 km/h (1 Bft) NO 45 1 min 0,000 mm 3,0 UV-I 450 W/m 10,8 C 18,2 C 4,8 km/h (1 Bft) 91,30 %
17.10.2018 13:47 23,9 C 18,2 C 34,4 C 13,3 C 55 % 61 % 1019,4 hPa 0,0 l/m 4,8 km/h (1 Bft) NO 45 1 min 0,000 mm 3,1 UV-I 452 W/m 10,6 C 18,2 C 6,4 km/h (2 Bft) 95,65 %
17.10.2018 13:46 23,9 C 18,1 C 33,9 C 13,3 C 55 % 64 % 1019,4 hPa 0,0 l/m 1,6 km/h (1 Bft) NO 45 1 min 0,000 mm 3,1 UV-I 454 W/m 11,2 C 18,1 C 4,8 km/h (1 Bft) 86,96 %
17.10.2018 13:45 23,9 C 17,9 C 33,9 C 13,3 C 55 % 64 % 1019,4 hPa 0,0 l/m 3,2 km/h (1 Bft) NO 45 1 min 0,000 mm 3,1 UV-I 452 W/m 11,0 C 17,9 C 8,0 km/h (2 Bft) 95,65 %
17.10.2018 13:44 23,9 C 17,8 C 34,4 C 13,3 C 55 % 64 % 1019,5 hPa 0,0 l/m 3,2 km/h (1 Bft) NO 45 1 min 0,000 mm 3,1 UV-I 454 W/m 10,9 C 17,8 C 6,4 km/h (2 Bft) 95,65 %
17.10.2018 13:43 23,9 C 17,6 C 34,4 C 13,3 C 54 % 64 % 1019,5 hPa 0,0 l/m 0,0 km/h (0 Bft) NO 45 1 min 0,000 mm 3,1 UV-I 452 W/m 10,7 C 17,6 C 1,6 km/h (1 Bft) 91,30 %
17.10.2018 13:42 23,9 C 17,5 C 34,4 C 13,3 C 54 % 65 % 1019,5 hPa 0,0 l/m 3,2 km/h (1 Bft) NO 45 1 min 0,000 mm 3,1 UV-I 450 W/m 10,8 C 17,5 C 4,8 km/h (1 Bft) 86,96 %
17.10.2018 13:41 23,9 C 17,6 C 34,4 C 13,3 C 55 % 63 % 1019,5 hPa 0,0 l/m 0,0 km/h (0 Bft) NO 45 1 min 0,000 mm 3,1 UV-I 448 W/m 10,5 C 17,6 C 3,2 km/h (1 Bft) 100,00 %
17.10.2018 13:40 23,9 C 17,7 C 34,4 C 13,3 C 55 % 62 % 1019,5 hPa 0,0 l/m 1,6 km/h (1 Bft) NO 45 1 min 0,000 mm 3,1 UV-I 446 W/m 10,3 C 17,7 C 3,2 km/h (1 Bft) 91,30 %
17.10.2018 13:39 23,9 C 17,8 C 35,6 C 13,3 C 55 % 63 % 1019,5 hPa 0,0 l/m 1,6 km/h (1 Bft) NO 45 1 min 0,000 mm 3,1 UV-I 443 W/m 10,7 C 17,8 C 4,8 km/h (1 Bft) 91,30 %
17.10.2018 13:38 23,9 C 17,8 C 36,1 C 13,3 C 55 % 63 % 1019,5 hPa 0,0 l/m 0,0 km/h (0 Bft) NO 45 1 min 0,000 mm 3,1 UV-I 441 W/m 10,7 C 17,8 C 1,6 km/h (1 Bft) 91,30 %
17.10.2018 13:37 23,9 C 17,8 C 36,1 C 13,3 C 54 % 64 % 1019,5 hPa 0,0 l/m 1,6 km/h (1 Bft) NO 45 1 min 0,000 mm 3,1 UV-I 438 W/m 10,9 C 17,8 C 3,2 km/h (1 Bft) 91,30 %
17.10.2018 13:36 23,9 C 17,9 C 36,1 C 13,3 C 55 % 64 % 1019,5 hPa 0,0 l/m 0,0 km/h (0 Bft) NO 45 1 min 0,000 mm 3,0 UV-I 436 W/m 11,0 C 17,9 C 3,2 km/h (1 Bft) 95,65 %
17.10.2018 13:35 23,9 C 17,8 C 35,6 C 13,3 C 55 % 64 % 1019,5 hPa 0,0 l/m 3,2 km/h (1 Bft) NO 45 1 min 0,000 mm 3,0 UV-I 436 W/m 10,9 C 17,8 C 6,4 km/h (2 Bft) 86,96 %
17.10.2018 13:34 23,9 C 17,8 C 35,6 C 13,3 C 55 % 64 % 1019,5 hPa 0,0 l/m 3,2 km/h (1 Bft) NO 45 1 min 0,000 mm 3,0 UV-I 429 W/m 10,9 C 17,8 C 4,8 km/h (1 Bft) 100,00 %
17.10.2018 13:33 23,9 C 17,8 C 35,6 C 12,8 C 55 % 63 % 1019,5 hPa 0,0 l/m 3,2 km/h (1 Bft) NO 45 1 min 0,000 mm 3,0 UV-I 429 W/m 10,7 C 17,8 C 6,4 km/h (2 Bft) 86,96 %
17.10.2018 13:32 23,9 C 17,7 C 35,0 C 12,8 C 55 % 66 % 1019,5 hPa 0,0 l/m 1,6 km/h (1 Bft) NO 45 1 min 0,000 mm 3,0 UV-I 427 W/m 11,3 C 17,7 C 3,2 km/h (1 Bft) 95,65 %
17.10.2018 13:31 23,9 C 17,7 C 34,4 C 12,8 C 55 % 64 % 1019,5 hPa 0,0 l/m 1,6 km/h (1 Bft) NO 45 1 min 0,000 mm 3,0 UV-I 424 W/m 10,8 C 17,7 C 3,2 km/h (1 Bft) 86,96 %
17.10.2018 13:30 23,9 C 17,6 C 34,4 C 12,8 C 55 % 64 % 1019,5 hPa 0,0 l/m 1,6 km/h (1 Bft) NO 45 1 min 0,000 mm 3,0 UV-I 420 W/m 10,7 C 17,6 C 3,2 km/h (1 Bft) 95,65 %
17.10.2018 13:29 23,9 C 17,5 C 33,9 C 12,8 C 55 % 65 % 1019,6 hPa 0,0 l/m 1,6 km/h (1 Bft) NO 45 1 min 0,000 mm 3,0 UV-I 417 W/m 10,8 C 17,5 C 3,2 km/h (1 Bft) 82,61 %
17.10.2018 13:28 23,9 C 17,4 C 33,9 C 12,8 C 55 % 65 % 1019,6 hPa 0,0 l/m 3,2 km/h (1 Bft) NO 45 1 min 0,000 mm 3,0 UV-I 410 W/m 10,8 C 17,4 C 6,4 km/h (2 Bft) 91,30 %
17.10.2018 13:27 23,9 C 17,4 C 34,4 C 12,8 C 55 % 66 % 1019,6 hPa 0,0 l/m 4,8 km/h (1 Bft) NO 45 1 min 0,000 mm 3,0 UV-I 410 W/m 11,0 C 17,4 C 6,4 km/h (2 Bft) 95,65 %
17.10.2018 13:26 23,9 C 17,2 C 34,4 C 12,8 C 55 % 66 % 1019,6 hPa 0,0 l/m 0,0 km/h (0 Bft) NO 45 1 min 0,000 mm 3,0 UV-I 404 W/m 10,8 C 17,2 C 1,6 km/h (1 Bft) 91,30 %
17.10.2018 13:25 23,9 C 17,2 C 33,9 C 12,8 C 55 % 64 % 1019,6 hPa 0,0 l/m 0,0 km/h (0 Bft) N 0 1 min 0,000 mm 3,0 UV-I 401 W/m 10,3 C 17,2 C 0,0 km/h (0 Bft) 91,30 %
17.10.2018 13:24 23,9 C 17,2 C 33,9 C 12,8 C 55 % 65 % 1019,6 hPa 0,0 l/m 0,0 km/h (0 Bft) NO 45 1 min 0,000 mm 3,0 UV-I 399 W/m 10,6 C 17,2 C 3,2 km/h (1 Bft) 91,30 %
17.10.2018 13:23 23,9 C 17,2 C 33,9 C 12,8 C 55 % 65 % 1019,6 hPa 0,0 l/m 0,0 km/h (0 Bft) N 0 1 min 0,000 mm 2,9 UV-I 396 W/m 10,6 C 17,2 C 0,0 km/h (0 Bft) 95,65 %
17.10.2018 13:22 23,9 C 17,2 C 33,9 C 12,8 C 55 % 66 % 1019,6 hPa 0,0 l/m 0,0 km/h (0 Bft) N 0 1 min 0,000 mm 2,9 UV-I 394 W/m 10,8 C 17,2 C 0,0 km/h (0 Bft) 95,65 %
17.10.2018 13:21 23,9 C 17,2 C 33,9 C 12,8 C 55 % 66 % 1019,6 hPa 0,0 l/m 1,6 km/h (1 Bft) NO 45 1 min 0,000 mm 2,9 UV-I 392 W/m 10,8 C 17,2 C 4,8 km/h (1 Bft) 95,65 %
17.10.2018 13:20 23,9 C 17,1 C 33,9 C 12,8 C 55 % 66 % 1019,6 hPa 0,0 l/m 1,6 km/h (1 Bft) NO 45 1 min 0,000 mm 2,9 UV-I 390 W/m 10,7 C 17,1 C 3,2 km/h (1 Bft) 91,30 %
17.10.2018 13:19 23,9 C 17,0 C 34,4 C 12,8 C 55 % 68 % 1019,6 hPa 0,0 l/m 1,6 km/h (1 Bft) NO 45 1 min 0,000 mm 2,9 UV-I 390 W/m 11,0 C 17,0 C 3,2 km/h (1 Bft) 100,00 %
17.10.2018 13:18 23,9 C 16,8 C 33,9 C 12,8 C 55 % 68 % 1019,6 hPa 0,0 l/m 0,0 km/h (0 Bft) NO 45 1 min 0,000 mm 2,8 UV-I 388 W/m 10,9 C 16,8 C 1,6 km/h (1 Bft) 91,30 %
17.10.2018 13:17 23,9 C 16,7 C 33,9 C 12,8 C 55 % 67 % 1019,6 hPa 0,0 l/m 0,0 km/h (0 Bft) N 0 1 min 0,000 mm 2,8 UV-I 385 W/m 10,5 C 16,7 C 0,0 km/h (0 Bft) 91,30 %
17.10.2018 13:16 23,9 C 16,7 C 33,9 C 12,8 C 55 % 68 % 1019,6 hPa 0,0 l/m 0,0 km/h (0 Bft) N 0 1 min 0,000 mm 2,7 UV-I 381 W/m 10,8 C 16,7 C 0,0 km/h (0 Bft) 95,65 %
17.10.2018 13:15 23,9 C 16,8 C 33,3 C 12,8 C 55 % 67 % 1019,6 hPa 0,0 l/m 0,0 km/h (0 Bft) N 0 1 min 0,000 mm 2,7 UV-I 381 W/m 10,6 C 16,8 C 0,0 km/h (0 Bft) 91,30 %
17.10.2018 13:14 23,9 C 16,8 C 33,3 C 12,8 C 55 % 67 % 1019,8 hPa 0,0 l/m 0,0 km/h (0 Bft) N 0 1 min 0,000 mm 2,7 UV-I 380 W/m 10,6 C 16,8 C 0,0 km/h (0 Bft) 86,96 %
17.10.2018 13:13 23,9 C 16,8 C 33,9 C 12,8 C 55 % 66 % 1019,8 hPa 0,0 l/m 0,0 km/h (0 Bft) N 0 1 min 0,000 mm 2,7 UV-I 380 W/m 10,4 C 16,8 C 0,0 km/h (0 Bft) 95,65 %
17.10.2018 13:12 23,9 C 16,8 C 34,4 C 12,8 C 55 % 67 % 1019,8 hPa 0,0 l/m 3,2 km/h (1 Bft) NO 45 1 min 0,000 mm 2,6 UV-I 380 W/m 10,6 C 16,8 C 6,4 km/h (2 Bft) 91,30 %
17.10.2018 13:11 23,9 C 16,7 C 34,4 C 12,8 C 55 % 67 % 1019,8 hPa 0,0 l/m 0,0 km/h (0 Bft) NO 45 1 min 0,000 mm 2,7 UV-I 378 W/m 10,5 C 16,7 C 4,8 km/h (1 Bft) 86,96 %
17.10.2018 13:10 23,9 C 16,8 C 34,4 C 12,8 C 55 % 66 % 1019,8 hPa 0,0 l/m 4,8 km/h (1 Bft) NO 45 1 min 0,000 mm 2,8 UV-I 376 W/m 10,4 C 16,8 C 6,4 km/h (2 Bft) 100,00 %
17.10.2018 13:09 23,9 C 16,8 C 34,4 C 12,8 C 55 % 67 % 1019,8 hPa 0,0 l/m 3,2 km/h (1 Bft) NO 45 1 min 0,000 mm 2,7 UV-I 378 W/m 10,6 C 16,8 C 6,4 km/h (2 Bft) 86,96 %
17.10.2018 13:08 23,9 C 16,9 C 34,4 C 12,8 C 55 % 66 % 1019,8 hPa 0,0 l/m 0,0 km/h (0 Bft) NO 45 1 min 0,000 mm 2,7 UV-I 378 W/m 10,5 C 16,9 C 1,6 km/h (1 Bft) 91,30 %
17.10.2018 13:07 23,9 C 17,0 C 34,4 C 12,8 C 55 % 66 % 1019,8 hPa 0,0 l/m 3,2 km/h (1 Bft) NO 45 1 min 0,000 mm 2,8 UV-I 380 W/m 10,6 C 17,0 C 6,4 km/h (2 Bft) 95,65 %
17.10.2018 13:06 23,9 C 16,9 C 33,9 C 12,8 C 55 % 67 % 1019,8 hPa 0,0 l/m 0,0 km/h (0 Bft) NO 45 1 min 0,000 mm 2,8 UV-I 380 W/m 10,7 C 16,9 C 1,6 km/h (1 Bft) 95,65 %
17.10.2018 13:05 23,9 C 16,8 C 33,9 C 12,8 C 55 % 68 % 1019,8 hPa 0,0 l/m 0,0 km/h (0 Bft) NO 45 1 min 0,000 mm 2,8 UV-I 381 W/m 10,9 C 16,8 C 1,6 km/h (1 Bft) 91,30 %
17.10.2018 13:04 23,9 C 16,7 C 33,3 C 12,8 C 55 % 67 % 1019,8 hPa 0,0 l/m 1,6 km/h (1 Bft) NO 45 1 min 0,000 mm 2,8 UV-I 381 W/m 10,5 C 16,7 C 4,8 km/h (1 Bft) 91,30 %
17.10.2018 13:03 23,9 C 16,7 C 33,3 C 12,8 C 55 % 67 % 1019,8 hPa 0,0 l/m 3,2 km/h (1 Bft) NO 45 1 min 0,000 mm 2,8 UV-I 383 W/m 10,5 C 16,7 C 6,4 km/h (2 Bft) 91,30 %
17.10.2018 13:02 23,9 C 16,7 C 33,9 C 12,8 C 55 % 67 % 1019,8 hPa 0,0 l/m 3,2 km/h (1 Bft) NO 45 1 min 0,000 mm 2,8 UV-I 387 W/m 10,5 C 16,7 C 6,4 km/h (2 Bft) 95,65 %
17.10.2018 13:01 23,9 C 16,6 C 33,9 C 12,8 C 55 % 67 % 1019,8 hPa 0,0 l/m 1,6 km/h (1 Bft) NO 45 1 min 0,000 mm 2,8 UV-I 387 W/m 10,4 C 16,6 C 3,2 km/h (1 Bft) 91,30 %
17.10.2018 13:00 23,9 C 16,6 C 33,9 C 12,8 C 54 % 68 % 1019,8 hPa 0,0 l/m 1,6 km/h (1 Bft) NO 45 1 min 0,254 mm 2,7 UV-I 387 W/m 10,7 C 16,6 C 3,2 km/h (1 Bft) 95,65 %
17.10.2018 12:59 23,9 C 16,6 C 33,9 C 12,8 C 55 % 67 % 1020,0 hPa 0,0 l/m 0,0 km/h (0 Bft) NO 45 1 min 0,000 mm 2,7 UV-I 390 W/m 10,4 C 16,6 C 3,2 km/h (1 Bft) 86,96 %
17.10.2018 12:58 23,9 C 16,6 C 33,3 C 12,8 C 55 % 67 % 1020,0 hPa 0,0 l/m 0,0 km/h (0 Bft) N 0 1 min 0,000 mm 2,7 UV-I 394 W/m 10,4 C 16,6 C 0,0 km/h (0 Bft) 100,00 %
17.10.2018 12:57 23,9 C 16,7 C 33,3 C 12,8 C 54 % 67 % 1020,0 hPa 0,0 l/m 0,0 km/h (0 Bft) NO 45 1 min 0,000 mm 2,6 UV-I 396 W/m 10,5 C 16,7 C 1,6 km/h (1 Bft) 86,96 %
17.10.2018 12:56 23,9 C 16,6 C 32,8 C 12,8 C 54 % 69 % 1020,0 hPa 0,0 l/m 1,6 km/h (1 Bft) NO 45 1 min 0,000 mm 2,6 UV-I 397 W/m 10,9 C 16,6 C 4,8 km/h (1 Bft) 91,30 %
17.10.2018 12:55 23,9 C 16,4 C 32,2 C 12,8 C 55 % 67 % 1020,0 hPa 0,0 l/m 0,0 km/h (0 Bft) NO 45 1 min 0,000 mm 2,7 UV-I 401 W/m 10,3 C 16,4 C 3,2 km/h (1 Bft) 100,00 %
17.10.2018 12:54 23,9 C 16,4 C 32,2 C 12,8 C 55 % 68 % 1020,0 hPa 0,0 l/m 1,6 km/h (1 Bft) NO 45 1 min 0,000 mm 2,7 UV-I 408 W/m 10,5 C 16,4 C 3,2 km/h (1 Bft) 91,30 %
17.10.2018 12:53 23,9 C 16,3 C 32,8 C 12,8 C 55 % 68 % 1020,0 hPa 0,0 l/m 3,2 km/h (1 Bft) NO 45 1 min 0,000 mm 2,7 UV-I 410 W/m 10,4 C 16,3 C 6,4 km/h (2 Bft) 95,65 %
17.10.2018 12:52 23,9 C 16,4 C 32,8 C 12,8 C 55 % 67 % 1020,0 hPa 0,0 l/m 1,6 km/h (1 Bft) NO 45 1 min 0,000 mm 2,8 UV-I 411 W/m 10,3 C 16,4 C 3,2 km/h (1 Bft) 95,65 %
17.10.2018 12:51 23,9 C 16,4 C 32,8 C 12,8 C 55 % 68 % 1020,0 hPa 0,0 l/m 1,6 km/h (1 Bft) NO 45 1 min 0,000 mm 2,8 UV-I 415 W/m 10,5 C 16,4 C 6,4 km/h (2 Bft) 95,65 %
17.10.2018 12:50 23,9 C 16,4 C 32,2 C 12,8 C 54 % 68 % 1020,0 hPa 0,0 l/m 3,2 km/h (1 Bft) NO 45 1 min 0,000 mm 2,8 UV-I 418 W/m 10,5 C 16,4 C 6,4 km/h (2 Bft) 91,30 %
17.10.2018 12:49 23,9 C 16,4 C 32,2 C 12,8 C 55 % 68 % 1020,0 hPa 0,0 l/m 0,0 km/h (0 Bft) NO 45 1 min 0,000 mm 2,9 UV-I 422 W/m 10,5 C 16,4 C 3,2 km/h (1 Bft) 95,65 %
17.10.2018 12:48 23,9 C 16,4 C 32,8 C 12,8 C 55 % 68 % 1020,0 hPa 0,0 l/m 3,2 km/h (1 Bft) NO 45 1 min 0,000 mm 2,9 UV-I 427 W/m 10,5 C 16,4 C 4,8 km/h (1 Bft) 95,65 %
17.10.2018 12:47 23,9 C 16,2 C 33,3 C 12,8 C 54 % 69 % 1020,0 hPa 0,0 l/m 1,6 km/h (1 Bft) NO 45 1 min 0,000 mm 2,9 UV-I 427 W/m 10,5 C 16,2 C 6,4 km/h (2 Bft) 91,30 %
17.10.2018 12:46 23,9 C 16,2 C 32,8 C 12,8 C 55 % 69 % 1020,0 hPa 0,0 l/m 1,6 km/h (1 Bft) NO 45 1 min 0,000 mm 2,9 UV-I 427 W/m 10,5 C 16,2 C 3,2 km/h (1 Bft) 86,96 %
17.10.2018 12:45 23,9 C 16,2 C 32,8 C 12,8 C 55 % 68 % 1020,0 hPa 0,0 l/m 1,6 km/h (1 Bft) NO 45 1 min 0,000 mm 3,0 UV-I 431 W/m 10,3 C 16,2 C 4,8 km/h (1 Bft) 100,00 %
17.10.2018 12:44 23,9 C 16,2 C 32,8 C 12,8 C 55 % 69 % 1020,2 hPa 0,0 l/m 0,0 km/h (0 Bft) NO 45 1 min 0,000 mm 3,0 UV-I 434 W/m 10,5 C 16,2 C 1,6 km/h (1 Bft) 91,30 %
17.10.2018 12:43 23,9 C 16,1 C 32,2 C 12,8 C 55 % 69 % 1020,2 hPa 0,0 l/m 0,0 km/h (0 Bft) NO 45 1 min 0,000 mm 3,1 UV-I 438 W/m 10,4 C 16,1 C 1,6 km/h (1 Bft) 95,65 %
17.10.2018 12:42 23,9 C 16,2 C 32,2 C 12,8 C 55 % 68 % 1020,2 hPa 0,0 l/m 1,6 km/h (1 Bft) NO 45 1 min 0,000 mm 3,1 UV-I 443 W/m 10,3 C 16,2 C 4,8 km/h (1 Bft) 91,30 %
17.10.2018 12:41 23,9 C 16,3 C 32,8 C 12,8 C 55 % 68 % 1020,2 hPa 0,0 l/m 1,6 km/h (1 Bft) NO 45 1 min 0,000 mm 3,1 UV-I 445 W/m 10,4 C 16,3 C 4,8 km/h (1 Bft) 95,65 %
17.10.2018 12:40 23,9 C 16,3 C 33,3 C 12,8 C 54 % 68 % 1020,2 hPa 0,0 l/m 4,8 km/h (1 Bft) NO 45 1 min 0,000 mm 3,1 UV-I 446 W/m 10,4 C 16,3 C 6,4 km/h (2 Bft) 91,30 %
17.10.2018 12:39 23,9 C 16,3 C 33,3 C 12,8 C 55 % 68 % 1020,2 hPa 0,0 l/m 3,2 km/h (1 Bft) O-NO 67 1 min 0,000 mm 3,1 UV-I 448 W/m 10,4 C 16,3 C 8,0 km/h (2 Bft) 95,65 %
17.10.2018 12:38 23,9 C 16,3 C 33,3 C 12,8 C 55 % 69 % 1020,2 hPa 0,0 l/m 1,6 km/h (1 Bft) O-NO 67 1 min 0,000 mm 3,2 UV-I 452 W/m 10,6 C 16,3 C 4,8 km/h (1 Bft) 91,30 %
17.10.2018 12:37 23,9 C 16,2 C 33,3 C 12,8 C 55 % 70 % 1020,2 hPa 0,0 l/m 1,6 km/h (1 Bft) O-NO 67 1 min 0,000 mm 3,1 UV-I 454 W/m 10,7 C 16,2 C 3,2 km/h (1 Bft) 91,30 %
17.10.2018 12:36 23,9 C 16,2 C 32,8 C 12,8 C 54 % 71 % 1020,2 hPa 0,0 l/m 1,6 km/h (1 Bft) O-NO 67 1 min 0,000 mm 3,1 UV-I 459 W/m 10,9 C 16,2 C 4,8 km/h (1 Bft) 100,00 %
17.10.2018 12:35 23,9 C 16,1 C 33,3 C 12,8 C 54 % 70 % 1020,2 hPa 0,0 l/m 0,0 km/h (0 Bft) N 0 1 min 0,000 mm 3,0 UV-I 457 W/m 10,6 C 16,1 C 0,0 km/h (0 Bft) 91,30 %
17.10.2018 12:34 23,9 C 16,0 C 32,8 C 12,8 C 54 % 71 % 1020,2 hPa 0,0 l/m 0,0 km/h (0 Bft) O-NO 67 1 min 0,000 mm 3,0 UV-I 459 W/m 10,7 C 16,0 C 1,6 km/h (1 Bft) 91,30 %
17.10.2018 12:33 23,9 C 16,1 C 32,2 C 12,8 C 55 % 68 % 1020,2 hPa 0,0 l/m 0,0 km/h (0 Bft) O-NO 67 1 min 0,000 mm 3,0 UV-I 461 W/m 10,2 C 16,1 C 3,2 km/h (1 Bft) 95,65 %
17.10.2018 12:32 23,9 C 16,2 C 32,2 C 12,8 C 54 % 68 % 1020,2 hPa 0,0 l/m 0,0 km/h (0 Bft) N 0 1 min 0,000 mm 3,0 UV-I 461 W/m 10,3 C 16,2 C 0,0 km/h (0 Bft) 95,65 %
17.10.2018 12:31 23,9 C 16,3 C 32,8 C 12,8 C 55 % 69 % 1020,2 hPa 0,0 l/m 1,6 km/h (1 Bft) O-NO 67 1 min 0,000 mm 2,9 UV-I 461 W/m 10,6 C 16,3 C 8,0 km/h (2 Bft) 91,30 %
17.10.2018 12:30 23,9 C 16,3 C 32,8 C 12,8 C 54 % 69 % 1020,2 hPa 0,0 l/m 1,6 km/h (1 Bft) O-NO 67 1 min 0,000 mm 2,9 UV-I 461 W/m 10,6 C 16,3 C 3,2 km/h (1 Bft) 100,00 %
17.10.2018 12:29 23,9 C 16,3 C 32,8 C 12,8 C 54 % 69 % 1020,5 hPa 0,0 l/m 4,8 km/h (1 Bft) O-NO 67 1 min 0,000 mm 2,9 UV-I 461 W/m 10,6 C 16,3 C 8,0 km/h (2 Bft) 86,96 %
17.10.2018 12:28 23,9 C 16,2 C 32,2 C 12,8 C 54 % 70 % 1020,5 hPa 0,0 l/m 1,6 km/h (1 Bft) O-NO 67 1 min 0,000 mm 2,8 UV-I 459 W/m 10,7 C 16,2 C 3,2 km/h (1 Bft) 95,65 %
17.10.2018 12:27 23,9 C 16,2 C 31,7 C 12,8 C 55 % 69 % 1020,5 hPa 0,0 l/m 0,0 km/h (0 Bft) O-NO 67 1 min 0,000 mm 2,8 UV-I 459 W/m 10,5 C 16,2 C 1,6 km/h (1 Bft) 95,65 %
17.10.2018 12:26 23,9 C 16,2 C 31,1 C 12,8 C 54 % 70 % 1020,5 hPa 0,0 l/m 3,2 km/h (1 Bft) O-NO 67 1 min 0,000 mm 2,8 UV-I 461 W/m 10,7 C 16,2 C 6,4 km/h (2 Bft) 91,30 %
17.10.2018 12:25 23,9 C 16,1 C 31,1 C 12,8 C 54 % 72 % 1020,5 hPa 0,0 l/m 3,2 km/h (1 Bft) O-NO 67 1 min 0,000 mm 2,8 UV-I 461 W/m 11,0 C 16,1 C 6,4 km/h (2 Bft) 91,30 %
17.10.2018 12:24 23,9 C 15,8 C 31,1 C 12,8 C 55 % 72 % 1020,5 hPa 0,0 l/m 0,0 km/h (0 Bft) O-NO 67 1 min 0,000 mm 2,7 UV-I 461 W/m 10,8 C 15,8 C 3,2 km/h (1 Bft) 91,30 %
17.10.2018 12:23 23,9 C 15,6 C 31,1 C 12,8 C 55 % 72 % 1020,5 hPa 0,0 l/m 0,0 km/h (0 Bft) N 0 1 min 0,000 mm 2,7 UV-I 457 W/m 10,6 C 15,6 C 0,0 km/h (0 Bft) 95,65 %
17.10.2018 12:22 23,9 C 15,5 C 30,6 C 12,8 C 54 % 72 % 1020,5 hPa 0,0 l/m 0,0 km/h (0 Bft) N 0 1 min 0,000 mm 2,7 UV-I 457 W/m 10,5 C 15,5 C 0,0 km/h (0 Bft) 91,30 %
17.10.2018 12:21 23,9 C 15,4 C 30,6 C 12,8 C 55 % 70 % 1020,5 hPa 0,0 l/m 1,6 km/h (1 Bft) O-NO 67 1 min 0,000 mm 2,8 UV-I 457 W/m 10,0 C 15,4 C 3,2 km/h (1 Bft) 100,00 %
17.10.2018 12:20 23,9 C 15,6 C 30,6 C 12,8 C 54 % 69 % 1020,5 hPa 0,0 l/m 0,0 km/h (0 Bft) O-NO 67 1 min 0,000 mm 2,8 UV-I 457 W/m 9,9 C 15,6 C 1,6 km/h (1 Bft) 86,96 %
17.10.2018 12:19 23,9 C 15,7 C 31,1 C 12,8 C 54 % 69 % 1020,5 hPa 0,0 l/m 3,2 km/h (1 Bft) O-NO 67 1 min 0,000 mm 2,8 UV-I 455 W/m 10,0 C 15,7 C 4,8 km/h (1 Bft) 86,96 %
17.10.2018 12:18 23,9 C 15,7 C 31,1 C 12,8 C 55 % 72 % 1020,5 hPa 0,0 l/m 1,6 km/h (1 Bft) O-NO 67 1 min 0,000 mm 2,8 UV-I 454 W/m 10,7 C 15,7 C 4,8 km/h (1 Bft) 95,65 %
17.10.2018 12:17 23,9 C 15,6 C 31,1 C 12,8 C 55 % 71 % 1020,5 hPa 0,0 l/m 1,6 km/h (1 Bft) O-NO 67 1 min 0,000 mm 2,8 UV-I 454 W/m 10,4 C 15,6 C 4,8 km/h (1 Bft) 86,96 %
17.10.2018 12:16 23,9 C 15,7 C 30,6 C 12,8 C 54 % 70 % 1020,5 hPa 0,0 l/m 1,6 km/h (1 Bft) O-NO 67 1 min 0,000 mm 2,8 UV-I 454 W/m 10,2 C 15,7 C 3,2 km/h (1 Bft) 86,96 %
17.10.2018 12:15 23,9 C 15,7 C 30,6 C 12,8 C 54 % 71 % 1020,5 hPa 0,0 l/m 3,2 km/h (1 Bft) O-NO 67 1 min 0,000 mm 2,8 UV-I 454 W/m 10,5 C 15,7 C 6,4 km/h (2 Bft) 91,30 %
17.10.2018 12:14 23,9 C 15,7 C 30,6 C 12,8 C 54 % 71 % 1020,6 hPa 0,0 l/m 3,2 km/h (1 Bft) O-NO 67 1 min 0,000 mm 2,8 UV-I 454 W/m 10,5 C 15,7 C 6,4 km/h (2 Bft) 91,30 %
17.10.2018 12:13 23,9 C 15,6 C 30,6 C 12,8 C 55 % 71 % 1020,6 hPa 0,0 l/m 1,6 km/h (1 Bft) O-NO 67 1 min 0,000 mm 2,8 UV-I 454 W/m 10,4 C 15,6 C 4,8 km/h (1 Bft) 91,30 %
17.10.2018 12:12 23,9 C 15,6 C 31,1 C 12,8 C 55 % 72 % 1020,6 hPa 0,0 l/m 0,0 km/h (0 Bft) O-NO 67 1 min 0,000 mm 2,8 UV-I 454 W/m 10,6 C 15,6 C 3,2 km/h (1 Bft) 100,00 %
17.10.2018 12:11 23,9 C 15,5 C 30,6 C 12,8 C 55 % 71 % 1020,6 hPa 0,0 l/m 3,2 km/h (1 Bft) O-NO 67 1 min 0,000 mm 2,7 UV-I 452 W/m 10,3 C 15,5 C 6,4 km/h (2 Bft) 91,30 %
17.10.2018 12:10 23,9 C 15,4 C 30,6 C 12,8 C 55 % 73 % 1020,6 hPa 0,0 l/m 0,0 km/h (0 Bft) O 90 1 min 0,000 mm 2,7 UV-I 452 W/m 10,6 C 15,4 C 6,4 km/h (2 Bft) 91,30 %
17.10.2018 12:09 23,9 C 15,3 C 30,6 C 12,8 C 55 % 74 % 1020,6 hPa 0,0 l/m 0,0 km/h (0 Bft) O 90 1 min 0,000 mm 2,7 UV-I 452 W/m 10,7 C 15,3 C 1,6 km/h (1 Bft) 95,65 %
17.10.2018 12:08 23,9 C 15,3 C 29,4 C 12,8 C 55 % 72 % 1020,6 hPa 0,0 l/m 0,0 km/h (0 Bft) N 0 1 min 0,000 mm 2,7 UV-I 450 W/m 10,3 C 15,3 C 0,0 km/h (0 Bft) 91,30 %
17.10.2018 12:07 23,9 C 15,2 C 28,9 C 12,8 C 54 % 73 % 1020,6 hPa 0,0 l/m 1,6 km/h (1 Bft) O 90 1 min 0,000 mm 2,8 UV-I 450 W/m 10,4 C 15,2 C 3,2 km/h (1 Bft) 91,30 %
17.10.2018 12:06 23,9 C 15,2 C 28,9 C 12,8 C 54 % 72 % 1020,6 hPa 0,0 l/m 1,6 km/h (1 Bft) O 90 1 min 0,000 mm 2,8 UV-I 448 W/m 10,2 C 15,2 C 4,8 km/h (1 Bft) 95,65 %
17.10.2018 12:05 23,9 C 15,1 C 28,9 C 12,8 C 54 % 72 % 1020,6 hPa 0,0 l/m 3,2 km/h (1 Bft) O 90 1 min 0,000 mm 2,8 UV-I 448 W/m 10,1 C 15,1 C 6,4 km/h (2 Bft) 95,65 %
17.10.2018 12:04 23,9 C 15,1 C 28,9 C 12,8 C 54 % 72 % 1020,6 hPa 0,0 l/m 1,6 km/h (1 Bft) O 90 1 min 0,000 mm 2,8 UV-I 448 W/m 10,1 C 15,1 C 4,8 km/h (1 Bft) 91,30 %
17.10.2018 12:03 23,9 C 15,0 C 29,4 C 12,8 C 55 % 72 % 1020,6 hPa 0,0 l/m 0,0 km/h (0 Bft) O 90 1 min 0,000 mm 2,8 UV-I 448 W/m 10,0 C 15,0 C 3,2 km/h (1 Bft) 95,65 %
17.10.2018 12:02 23,9 C 15,0 C 29,4 C 12,8 C 54 % 73 % 1020,6 hPa 0,0 l/m 3,2 km/h (1 Bft) O-NO 67 1 min 0,000 mm 2,8 UV-I 445 W/m 10,2 C 15,0 C 6,4 km/h (2 Bft) 91,30 %
17.10.2018 12:01 23,9 C 15,1 C 29,4 C 12,8 C 54 % 73 % 1020,6 hPa 0,0 l/m 0,0 km/h (0 Bft) O-NO 67 1 min 0,000 mm 2,8 UV-I 446 W/m 10,3 C 15,1 C 1,6 km/h (1 Bft) 91,30 %
17.10.2018 12:00 23,9 C 15,1 C 30,0 C 12,8 C 55 % 73 % 1020,6 hPa 0,0 l/m 0,0 km/h (0 Bft) N 0 1 min 0,203 mm 2,8 UV-I 445 W/m 10,3 C 15,1 C 0,0 km/h (0 Bft) 91,30 %
17.10.2018 11:59 23,9 C 15,2 C 30,0 C 12,8 C 54 % 72 % 1020,7 hPa 0,0 l/m 0,0 km/h (0 Bft) O-NO 67 1 min 0,000 mm 2,8 UV-I 443 W/m 10,2 C 15,2 C 1,6 km/h (1 Bft) 100,00 %
17.10.2018 11:58 23,8 C 15,2 C 30,6 C 12,8 C 55 % 72 % 1020,7 hPa 0,0 l/m 1,6 km/h (1 Bft) O-NO 67 1 min 0,000 mm 2,8 UV-I 441 W/m 10,2 C 15,2 C 4,8 km/h (1 Bft) 91,30 %
17.10.2018 11:57 23,8 C 15,2 C 30,0 C 12,8 C 54 % 74 % 1020,7 hPa 0,0 l/m 1,6 km/h (1 Bft) O-NO 67 1 min 0,000 mm 2,8 UV-I 441 W/m 10,6 C 15,2 C 4,8 km/h (1 Bft) 91,30 %
17.10.2018 11:56 23,8 C 15,1 C 30,0 C 12,8 C 54 % 74 % 1020,7 hPa 0,0 l/m 3,2 km/h (1 Bft) O-NO 67 1 min 0,000 mm 2,7 UV-I 439 W/m 10,5 C 15,1 C 6,4 km/h (2 Bft) 95,65 %
17.10.2018 11:55 23,8 C 15,0 C 29,4 C 12,8 C 55 % 73 % 1020,7 hPa 0,0 l/m 1,6 km/h (1 Bft) O-NO 67 1 min 0,000 mm 2,7 UV-I 439 W/m 10,2 C 15,0 C 6,4 km/h (2 Bft) 95,65 %
17.10.2018 11:54 23,8 C 14,9 C 29,4 C 12,8 C 55 % 73 % 1020,7 hPa 0,0 l/m 0,0 km/h (0 Bft) O-NO 67 1 min 0,000 mm 2,7 UV-I 439 W/m 10,1 C 14,9 C 3,2 km/h (1 Bft) 95,65 %
17.10.2018 11:53 23,8 C 14,8 C 28,9 C 12,8 C 55 % 74 % 1020,7 hPa 0,0 l/m 1,6 km/h (1 Bft) O-NO 67 1 min 0,000 mm 2,7 UV-I 438 W/m 10,2 C 14,8 C 3,2 km/h (1 Bft) 100,00 %
17.10.2018 11:52 23,8 C 14,8 C 28,9 C 12,8 C 55 % 74 % 1020,7 hPa 0,0 l/m 0,0 km/h (0 Bft) O-NO 67 1 min 0,000 mm 2,7 UV-I 438 W/m 10,2 C 14,8 C 1,6 km/h (1 Bft) 95,65 %
17.10.2018 11:51 23,8 C 14,6 C 28,3 C 12,8 C 55 % 74 % 1020,7 hPa 0,0 l/m 0,0 km/h (0 Bft) O-NO 67 1 min 0,000 mm 2,7 UV-I 436 W/m 10,0 C 14,6 C 1,6 km/h (1 Bft) 95,65 %
17.10.2018 11:50 23,8 C 14,6 C 28,3 C 12,8 C 54 % 74 % 1020,7 hPa 0,0 l/m 1,6 km/h (1 Bft) O-NO 67 1 min 0,000 mm 2,7 UV-I 436 W/m 10,0 C 14,6 C 4,8 km/h (1 Bft) 100,00 %
17.10.2018 11:49 23,8 C 14,6 C 28,3 C 12,8 C 55 % 73 % 1020,7 hPa 0,0 l/m 0,0 km/h (0 Bft) O-NO 67 1 min 0,000 mm 2,7 UV-I 436 W/m 9,8 C 14,6 C 3,2 km/h (1 Bft) 95,65 %
17.10.2018 11:48 23,8 C 14,6 C 28,9 C 12,8 C 55 % 73 % 1020,7 hPa 0,0 l/m 0,0 km/h (0 Bft) O-NO 67 1 min 0,000 mm 2,7 UV-I 434 W/m 9,8 C 14,6 C 3,2 km/h (1 Bft) 95,65 %
17.10.2018 11:47 23,8 C 14,6 C 28,9 C 12,8 C 55 % 73 % 1020,7 hPa 0,0 l/m 1,6 km/h (1 Bft) O-NO 67 1 min 0,000 mm 2,7 UV-I 436 W/m 9,8 C 14,6 C 4,8 km/h (1 Bft) 95,65 %
17.10.2018 11:46 23,8 C 14,6 C 29,4 C 12,8 C 55 % 74 % 1020,7 hPa 0,0 l/m 0,0 km/h (0 Bft) O-NO 67 1 min 0,000 mm 2,7 UV-I 434 W/m 10,0 C 14,6 C 1,6 km/h (1 Bft) 95,65 %
17.10.2018 11:45 23,8 C 14,6 C 28,9 C 12,8 C 55 % 73 % 1020,7 hPa 0,0 l/m 0,0 km/h (0 Bft) N 0 1 min 0,000 mm 2,7 UV-I 434 W/m 9,8 C 14,6 C 0,0 km/h (0 Bft) 82,61 %
17.10.2018 11:44 23,8 C 14,6 C 29,4 C 12,8 C 54 % 74 % 1020,9 hPa 0,0 l/m 0,0 km/h (0 Bft) O-NO 67 1 min 0,000 mm 2,7 UV-I 432 W/m 10,0 C 14,6 C 3,2 km/h (1 Bft) 91,30 %
17.10.2018 11:43 23,8 C 14,6 C 29,4 C 12,8 C 55 % 74 % 1020,9 hPa 0,0 l/m 1,6 km/h (1 Bft) O-NO 67 1 min 0,000 mm 2,6 UV-I 431 W/m 10,0 C 14,6 C 4,8 km/h (1 Bft) 95,65 %
17.10.2018 11:42 23,8 C 14,7 C 28,9 C 12,8 C 54 % 74 % 1020,9 hPa 0,0 l/m 0,0 km/h (0 Bft) N 0 1 min 0,000 mm 2,6 UV-I 429 W/m 10,1 C 14,7 C 0,0 km/h (0 Bft) 95,65 %
17.10.2018 11:41 23,8 C 14,8 C 28,9 C 12,8 C 54 % 73 % 1020,9 hPa 0,0 l/m 0,0 km/h (0 Bft) O-NO 67 1 min 0,000 mm 2,6 UV-I 427 W/m 10,0 C 14,8 C 1,6 km/h (1 Bft) 95,65 %
17.10.2018 11:40 23,8 C 14,8 C 28,3 C 12,8 C 55 % 75 % 1020,9 hPa 0,0 l/m 0,0 km/h (0 Bft) O-NO 67 1 min 0,000 mm 2,6 UV-I 427 W/m 10,4 C 14,8 C 1,6 km/h (1 Bft) 95,65 %
17.10.2018 11:39 23,8 C 14,7 C 27,8 C 12,8 C 54 % 74 % 1020,9 hPa 0,0 l/m 0,0 km/h (0 Bft) O-NO 67 1 min 0,000 mm 2,5 UV-I 427 W/m 10,1 C 14,7 C 1,6 km/h (1 Bft) 95,65 %
17.10.2018 11:38 23,8 C 14,7 C 27,8 C 12,8 C 54 % 74 % 1020,9 hPa 0,0 l/m 1,6 km/h (1 Bft) O-NO 67 1 min 0,000 mm 2,5 UV-I 427 W/m 10,1 C 14,7 C 4,8 km/h (1 Bft) 100,00 %
17.10.2018 11:37 23,8 C 14,7 C 28,3 C 12,8 C 54 % 73 % 1020,9 hPa 0,0 l/m 1,6 km/h (1 Bft) O-NO 67 1 min 0,000 mm 2,5 UV-I 425 W/m 9,9 C 14,7 C 4,8 km/h (1 Bft) 91,30 %
17.10.2018 11:36 23,8 C 14,7 C 28,9 C 12,8 C 54 % 75 % 1020,9 hPa 0,0 l/m 0,0 km/h (0 Bft) O-NO 67 1 min 0,000 mm 2,4 UV-I 424 W/m 10,3 C 14,7 C 1,6 km/h (1 Bft) 95,65 %
17.10.2018 11:35 23,8 C 14,6 C 28,9 C 12,8 C 55 % 76 % 1020,9 hPa 0,0 l/m 0,0 km/h (0 Bft) N 0 1 min 0,000 mm 2,4 UV-I 424 W/m 10,4 C 14,6 C 0,0 km/h (0 Bft) 100,00 %
17.10.2018 11:34 23,8 C 14,4 C 27,8 C 12,8 C 54 % 76 % 1020,9 hPa 0,0 l/m 0,0 km/h (0 Bft) N 0 1 min 0,000 mm 2,4 UV-I 422 W/m 10,2 C 14,4 C 0,0 km/h (0 Bft) 95,65 %
17.10.2018 11:33 23,8 C 14,3 C 27,8 C 12,2 C 55 % 77 % 1020,9 hPa 0,0 l/m 3,2 km/h (1 Bft) O-NO 67 1 min 0,000 mm 2,3 UV-I 422 W/m 10,3 C 14,3 C 6,4 km/h (2 Bft) 95,65 %
17.10.2018 11:32 23,8 C 14,2 C 27,8 C 12,2 C 55 % 76 % 1020,9 hPa 0,0 l/m 3,2 km/h (1 Bft) O-NO 67 1 min 0,000 mm 2,3 UV-I 422 W/m 10,0 C 14,2 C 6,4 km/h (2 Bft) 100,00 %
17.10.2018 11:31 23,8 C 14,1 C 27,2 C 12,2 C 55 % 76 % 1020,9 hPa 0,0 l/m 1,6 km/h (1 Bft) O-NO 67 1 min 0,000 mm 2,3 UV-I 420 W/m 9,9 C 14,1 C 6,4 km/h (2 Bft) 95,65 %
17.10.2018 11:30 23,8 C 14,1 C 27,2 C 12,2 C 54 % 77 % 1020,9 hPa 0,0 l/m 3,2 km/h (1 Bft) O-NO 67 1 min 0,000 mm 2,2 UV-I 418 W/m 10,1 C 14,1 C 6,4 km/h (2 Bft) 95,65 %
17.10.2018 11:29 23,8 C 14,1 C 26,7 C 12,2 C 55 % 76 % 1021,0 hPa 0,0 l/m 0,0 km/h (0 Bft) O-NO 67 1 min 0,000 mm 2,2 UV-I 415 W/m 9,9 C 14,1 C 1,6 km/h (1 Bft) 100,00 %
17.10.2018 11:28 23,8 C 14,1 C 26,7 C 12,2 C 55 % 75 % 1021,0 hPa 0,0 l/m 0,0 km/h (0 Bft) O-NO 67 1 min 0,000 mm 2,2 UV-I 411 W/m 9,7 C 14,1 C 1,6 km/h (1 Bft) 95,65 %
17.10.2018 11:27 23,8 C 14,1 C 26,7 C 12,2 C 55 % 76 % 1021,0 hPa 0,0 l/m 1,6 km/h (1 Bft) O-NO 67 1 min 0,000 mm 2,2 UV-I 413 W/m 9,9 C 14,1 C 3,2 km/h (1 Bft) 91,30 %
17.10.2018 11:26 23,8 C 13,9 C 26,7 C 12,2 C 55 % 77 % 1021,0 hPa 0,0 l/m 0,0 km/h (0 Bft) O-NO 67 1 min 0,000 mm 2,2 UV-I 411 W/m 9,9 C 13,9 C 3,2 km/h (1 Bft) 100,00 %
17.10.2018 11:25 23,8 C 13,8 C 26,1 C 12,2 C 54 % 77 % 1021,0 hPa 0,0 l/m 0,0 km/h (0 Bft) O-NO 67 1 min 0,000 mm 2,1 UV-I 411 W/m 9,8 C 13,8 C 1,6 km/h (1 Bft) 95,65 %
17.10.2018 11:24 23,8 C 13,6 C 25,6 C 12,2 C 55 % 78 % 1021,0 hPa 0,0 l/m 1,6 km/h (1 Bft) O-NO 67 1 min 0,000 mm 2,1 UV-I 411 W/m 9,8 C 13,6 C 3,2 km/h (1 Bft) 95,65 %
17.10.2018 11:23 23,8 C 13,6 C 25,6 C 12,2 C 54 % 77 % 1021,0 hPa 0,0 l/m 1,6 km/h (1 Bft) O-NO 67 1 min 0,000 mm 2,1 UV-I 410 W/m 9,6 C 13,6 C 4,8 km/h (1 Bft) 100,00 %
17.10.2018 11:22 23,8 C 13,5 C 25,0 C 12,2 C 54 % 78 % 1021,0 hPa 0,0 l/m 0,0 km/h (0 Bft) O-NO 67 1 min 0,000 mm 2,1 UV-I 406 W/m 9,7 C 13,5 C 4,8 km/h (1 Bft) 86,96 %
17.10.2018 11:21 23,8 C 13,4 C 25,0 C 12,2 C 55 % 77 % 1021,0 hPa 0,0 l/m 0,0 km/h (0 Bft) O-NO 67 1 min 0,000 mm 2,1 UV-I 408 W/m 9,5 C 13,4 C 1,6 km/h (1 Bft) 95,65 %
17.10.2018 11:20 23,8 C 13,4 C 25,6 C 12,2 C 54 % 78 % 1021,0 hPa 0,0 l/m 1,6 km/h (1 Bft) O-NO 67 1 min 0,000 mm 2,0 UV-I 406 W/m 9,6 C 13,4 C 4,8 km/h (1 Bft) 100,00 %
17.10.2018 11:19 23,8 C 13,3 C 25,6 C 12,2 C 55 % 78 % 1021,0 hPa 0,0 l/m 0,0 km/h (0 Bft) O-NO 67 1 min 0,000 mm 2,0 UV-I 403 W/m 9,5 C 13,3 C 1,6 km/h (1 Bft) 95,65 %
17.10.2018 11:18 23,8 C 13,2 C 25,6 C 12,2 C 55 % 79 % 1021,0 hPa 0,0 l/m 1,6 km/h (1 Bft) O-NO 67 1 min 0,000 mm 2,0 UV-I 401 W/m 9,6 C 13,2 C 3,2 km/h (1 Bft) 91,30 %
17.10.2018 11:17 23,8 C 13,1 C 25,0 C 12,2 C 54 % 79 % 1021,0 hPa 0,0 l/m 0,0 km/h (0 Bft) N 0 1 min 0,000 mm 1,9 UV-I 397 W/m 9,5 C 13,1 C 0,0 km/h (0 Bft) 100,00 %
17.10.2018 11:16 23,8 C 13,0 C 24,4 C 12,2 C 54 % 80 % 1021,0 hPa 0,0 l/m 0,0 km/h (0 Bft) N 0 1 min 0,000 mm 1,9 UV-I 396 W/m 9,6 C 13,0 C 0,0 km/h (0 Bft) 95,65 %
17.10.2018 11:15 23,8 C 12,9 C 23,9 C 12,2 C 54 % 80 % 1021,0 hPa 0,0 l/m 0,0 km/h (0 Bft) N 0 1 min 0,000 mm 2,0 UV-I 397 W/m 9,5 C 12,9 C 0,0 km/h (0 Bft) 95,65 %
17.10.2018 11:14 23,8 C 12,9 C 23,9 C 12,2 C 54 % 78 % 1021,0 hPa 0,0 l/m 0,0 km/h (0 Bft) O-NO 67 1 min 0,000 mm 2,0 UV-I 396 W/m 9,2 C 12,9 C 3,2 km/h (1 Bft) 100,00 %
17.10.2018 11:13 23,8 C 12,9 C 23,9 C 12,2 C 54 % 79 % 1021,0 hPa 0,0 l/m 1,6 km/h (1 Bft) O-NO 67 1 min 0,000 mm 2,0 UV-I 394 W/m 9,3 C 12,9 C 4,8 km/h (1 Bft) 95,65 %
17.10.2018 11:12 23,8 C 12,9 C 24,4 C 12,2 C 54 % 79 % 1021,0 hPa 0,0 l/m 3,2 km/h (1 Bft) O-NO 67 1 min 0,000 mm 2,0 UV-I 394 W/m 9,3 C 12,9 C 4,8 km/h (1 Bft) 91,30 %
17.10.2018 11:11 23,8 C 12,9 C 24,4 C 12,2 C 54 % 79 % 1021,0 hPa 0,0 l/m 3,2 km/h (1 Bft) O-NO 67 1 min 0,000 mm 2,0 UV-I 392 W/m 9,3 C 12,9 C 4,8 km/h (1 Bft) 91,30 %
17.10.2018 11:10 23,8 C 12,9 C 23,9 C 12,2 C 54 % 80 % 1021,0 hPa 0,0 l/m 1,6 km/h (1 Bft) O-NO 67 1 min 0,000 mm 2,0 UV-I 392 W/m 9,5 C 12,9 C 3,2 km/h (1 Bft) 100,00 %
17.10.2018 11:09 23,8 C 12,9 C 23,9 C 12,2 C 54 % 79 % 1021,0 hPa 0,0 l/m 1,6 km/h (1 Bft) O-NO 67 1 min 0,000 mm 2,1 UV-I 388 W/m 9,3 C 12,9 C 4,8 km/h (1 Bft) 95,65 %
17.10.2018 11:08 23,8 C 12,9 C 23,9 C 12,2 C 55 % 80 % 1021,0 hPa 0,0 l/m 3,2 km/h (1 Bft) O-NO 67 1 min 0,000 mm 2,1 UV-I 388 W/m 9,5 C 12,9 C 3,2 km/h (1 Bft) 91,30 %
17.10.2018 11:07 23,8 C 12,9 C 23,9 C 12,2 C 54 % 79 % 1021,0 hPa 0,0 l/m 1,6 km/h (1 Bft) O-NO 67 1 min 0,000 mm 2,1 UV-I 383 W/m 9,3 C 12,9 C 3,2 km/h (1 Bft) 95,65 %
17.10.2018 11:06 23,8 C 12,9 C 23,9 C 12,2 C 55 % 79 % 1021,0 hPa 0,0 l/m 0,0 km/h (0 Bft) O-NO 67 1 min 0,000 mm 2,1 UV-I 385 W/m 9,3 C 12,9 C 3,2 km/h (1 Bft) 95,65 %
17.10.2018 11:05 23,8 C 12,9 C 23,9 C 12,2 C 55 % 80 % 1021,0 hPa 0,0 l/m 1,6 km/h (1 Bft) O-NO 67 1 min 0,000 mm 2,1 UV-I 383 W/m 9,5 C 12,9 C 3,2 km/h (1 Bft) 91,30 %
17.10.2018 11:04 23,8 C 12,8 C 23,9 C 12,2 C 55 % 80 % 1021,0 hPa 0,0 l/m 1,6 km/h (1 Bft) O-NO 67 1 min 0,000 mm 2,1 UV-I 381 W/m 9,4 C 12,8 C 3,2 km/h (1 Bft) 100,00 %
17.10.2018 11:03 23,8 C 12,7 C 24,4 C 12,2 C 55 % 82 % 1021,0 hPa 0,0 l/m 1,6 km/h (1 Bft) O-NO 67 1 min 0,000 mm 2,1 UV-I 380 W/m 9,7 C 12,7 C 4,8 km/h (1 Bft) 95,65 %
17.10.2018 11:02 23,8 C 12,6 C 23,9 C 12,2 C 55 % 81 % 1021,0 hPa 0,0 l/m 0,0 km/h (0 Bft) O-NO 67 1 min 0,000 mm 2,0 UV-I 380 W/m 9,4 C 12,6 C 1,6 km/h (1 Bft) 91,30 %
17.10.2018 11:01 23,8 C 12,6 C 23,9 C 12,2 C 55 % 80 % 1021,0 hPa 0,0 l/m 0,0 km/h (0 Bft) N 0 1 min 0,000 mm 2,0 UV-I 380 W/m 9,2 C 12,6 C 0,0 km/h (0 Bft) 95,65 %
17.10.2018 11:00 23,8 C 12,6 C 23,3 C 12,2 C 55 % 80 % 1021,0 hPa 0,0 l/m 0,0 km/h (0 Bft) N 0 1 min 0,152 mm 2,0 UV-I 380 W/m 9,2 C 12,6 C 0,0 km/h (0 Bft) 95,65 %
17.10.2018 10:59 23,8 C 12,7 C 23,3 C 12,2 C 55 % 81 % 1021,0 hPa 0,0 l/m 0,0 km/h (0 Bft) O-NO 67 1 min 0,000 mm 2,0 UV-I 376 W/m 9,5 C 12,7 C 1,6 km/h (1 Bft) 91,30 %
17.10.2018 10:58 23,8 C 12,6 C 23,3 C 12,2 C 55 % 82 % 1021,0 hPa 0,0 l/m 0,0 km/h (0 Bft) O-NO 67 1 min 0,000 mm 2,0 UV-I 374 W/m 9,6 C 12,6 C 3,2 km/h (1 Bft) 100,00 %
17.10.2018 10:57 23,8 C 12,6 C 23,3 C 12,2 C 55 % 82 % 1021,0 hPa 0,0 l/m 0,0 km/h (0 Bft) O-NO 67 1 min 0,000 mm 1,9 UV-I 374 W/m 9,6 C 12,6 C 1,6 km/h (1 Bft) 86,96 %
17.10.2018 10:56 23,8 C 12,4 C 23,3 C 12,2 C 54 % 83 % 1021,0 hPa 0,0 l/m 0,0 km/h (0 Bft) O-NO 67 1 min 0,000 mm 1,9 UV-I 374 W/m 9,6 C 12,4 C 1,6 km/h (1 Bft) 95,65 %
17.10.2018 10:55 23,8 C 12,4 C 23,3 C 12,2 C 54 % 81 % 1021,0 hPa 0,0 l/m 0,0 km/h (0 Bft) O-NO 67 1 min 0,000 mm 1,9 UV-I 367 W/m 9,2 C 12,4 C 1,6 km/h (1 Bft) 95,65 %
17.10.2018 10:54 23,8 C 12,4 C 23,3 C 12,2 C 55 % 81 % 1021,0 hPa 0,0 l/m 0,0 km/h (0 Bft) N 0 1 min 0,000 mm 1,8 UV-I 367 W/m 9,2 C 12,4 C 0,0 km/h (0 Bft) 91,30 %
17.10.2018 10:53 23,8 C 12,4 C 23,3 C 12,2 C 55 % 81 % 1021,0 hPa 0,0 l/m 0,0 km/h (0 Bft) O-NO 67 1 min 0,000 mm 1,8 UV-I 366 W/m 9,2 C 12,4 C 3,2 km/h (1 Bft) 91,30 %
17.10.2018 10:52 23,8 C 12,4 C 23,9 C 12,2 C 55 % 81 % 1021,0 hPa 0,0 l/m 1,6 km/h (1 Bft) O-NO 67 1 min 0,000 mm 1,8 UV-I 364 W/m 9,2 C 12,4 C 4,8 km/h (1 Bft) 95,65 %
17.10.2018 10:51 23,8 C 12,4 C 24,4 C 12,2 C 55 % 82 % 1021,0 hPa 0,0 l/m 1,6 km/h (1 Bft) O-NO 67 1 min 0,000 mm 1,8 UV-I 362 W/m 9,4 C 12,4 C 4,8 km/h (1 Bft) 91,30 %
17.10.2018 10:50 23,8 C 12,4 C 24,4 C 12,2 C 54 % 82 % 1021,0 hPa 0,0 l/m 0,0 km/h (0 Bft) O-NO 67 1 min 0,000 mm 1,7 UV-I 362 W/m 9,4 C 12,4 C 3,2 km/h (1 Bft) 91,30 %
17.10.2018 10:49 23,8 C 12,3 C 23,9 C 12,2 C 55 % 83 % 1021,0 hPa 0,0 l/m 0,0 km/h (0 Bft) O-NO 67 1 min 0,000 mm 1,7 UV-I 360 W/m 9,5 C 12,3 C 1,6 km/h (1 Bft) 100,00 %
17.10.2018 10:48 23,8 C 12,3 C 23,9 C 12,2 C 55 % 82 % 1021,0 hPa 0,0 l/m 0,0 km/h (0 Bft) O-NO 67 1 min 0,000 mm 1,7 UV-I 359 W/m 9,3 C 12,3 C 3,2 km/h (1 Bft) 86,96 %
17.10.2018 10:47 23,8 C 12,2 C 23,3 C 12,2 C 55 % 83 % 1021,0 hPa 0,0 l/m 1,6 km/h (1 Bft) O-NO 67 1 min 0,000 mm 1,7 UV-I 357 W/m 9,4 C 12,2 C 4,8 km/h (1 Bft) 95,65 %
17.10.2018 10:46 23,8 C 12,1 C 23,3 C 12,2 C 55 % 83 % 1021,0 hPa 0,0 l/m 0,0 km/h (0 Bft) O-NO 67 1 min 0,000 mm 1,6 UV-I 353 W/m 9,3 C 12,1 C 4,8 km/h (1 Bft) 95,65 %
17.10.2018 10:45 23,8 C 12,1 C 22,8 C 12,2 C 55 % 83 % 1021,0 hPa 0,0 l/m 0,0 km/h (0 Bft) N 0 1 min 0,000 mm 1,6 UV-I 353 W/m 9,3 C 12,1 C 0,0 km/h (0 Bft) 86,96 %
17.10.2018 10:44 23,8 C 12,0 C 22,8 C 12,2 C 55 % 83 % 1021,0 hPa 0,0 l/m 1,6 km/h (1 Bft) O-NO 67 1 min 0,000 mm 1,6 UV-I 350 W/m 9,2 C 12,0 C 3,2 km/h (1 Bft) 86,96 %
17.10.2018 10:43 23,8 C 12,1 C 22,8 C 12,2 C 55 % 83 % 1021,0 hPa 0,0 l/m 3,2 km/h (1 Bft) O-NO 67 1 min 0,000 mm 1,6 UV-I 346 W/m 9,3 C 12,1 C 6,4 km/h (2 Bft) 100,00 %
17.10.2018 10:42 23,8 C 12,0 C 23,3 C 12,2 C 55 % 83 % 1021,0 hPa 0,0 l/m 3,2 km/h (1 Bft) O-NO 67 1 min 0,000 mm 1,6 UV-I 346 W/m 9,2 C 12,0 C 4,8 km/h (1 Bft) 82,61 %
17.10.2018 10:41 23,8 C 12,0 C 23,3 C 12,2 C 55 % 83 % 1021,0 hPa 0,0 l/m 1,6 km/h (1 Bft) O-NO 67 1 min 0,000 mm 1,6 UV-I 345 W/m 9,2 C 12,0 C 4,8 km/h (1 Bft) 95,65 %
17.10.2018 10:40 23,8 C 12,0 C 23,3 C 12,2 C 55 % 83 % 1021,0 hPa 0,0 l/m 0,0 km/h (0 Bft) N 0 1 min 0,000 mm 1,6 UV-I 343 W/m 9,2 C 12,0 C 0,0 km/h (0 Bft) 95,65 %
17.10.2018 10:39 23,8 C 12,0 C 22,8 C 12,2 C 55 % 83 % 1021,0 hPa 0,0 l/m 0,0 km/h (0 Bft) O-NO 67 1 min 0,000 mm 1,5 UV-I 341 W/m 9,2 C 12,0 C 1,6 km/h (1 Bft) 91,30 %
17.10.2018 10:38 23,8 C 12,0 C 22,2 C 12,2 C 55 % 85 % 1021,0 hPa 0,0 l/m 0,0 km/h (0 Bft) O-NO 67 1 min 0,000 mm 1,5 UV-I 338 W/m 9,6 C 12,0 C 3,2 km/h (1 Bft) 95,65 %
17.10.2018 10:37 23,7 C 11,9 C 22,2 C 12,2 C 55 % 85 % 1021,0 hPa 0,0 l/m 1,6 km/h (1 Bft) O-NO 67 1 min 0,000 mm 1,5 UV-I 338 W/m 9,5 C 11,9 C 6,4 km/h (2 Bft) 100,00 %
17.10.2018 10:36 23,7 C 11,8 C 21,7 C 12,2 C 55 % 85 % 1021,0 hPa 0,0 l/m 3,2 km/h (1 Bft) O-NO 67 1 min 0,000 mm 1,5 UV-I 338 W/m 9,4 C 11,8 C 4,8 km/h (1 Bft) 91,30 %
17.10.2018 10:35 23,7 C 11,8 C 21,7 C 12,2 C 55 % 85 % 1021,0 hPa 0,0 l/m 0,0 km/h (0 Bft) O-NO 67 1 min 0,000 mm 1,5 UV-I 334 W/m 9,4 C 11,8 C 3,2 km/h (1 Bft) 95,65 %
17.10.2018 10:34 23,7 C 11,7 C 21,7 C 12,2 C 55 % 85 % 1021,0 hPa 0,0 l/m 0,0 km/h (0 Bft) O-NO 67 1 min 0,000 mm 1,5 UV-I 332 W/m 9,3 C 11,7 C 3,2 km/h (1 Bft) 95,65 %
17.10.2018 10:33 23,7 C 11,7 C 21,7 C 12,2 C 55 % 84 % 1021,0 hPa 0,0 l/m 1,6 km/h (1 Bft) O-NO 67 1 min 0,000 mm 1,5 UV-I 330 W/m 9,1 C 11,7 C 4,8 km/h (1 Bft) 95,65 %
17.10.2018 10:32 23,7 C 11,7 C 21,7 C 12,2 C 55 % 85 % 1021,0 hPa 0,0 l/m 1,6 km/h (1 Bft) O-NO 67 1 min 0,000 mm 1,5 UV-I 327 W/m 9,3 C 11,7 C 4,8 km/h (1 Bft) 95,65 %
17.10.2018 10:31 23,7 C 11,6 C 21,7 C 12,2 C 55 % 85 % 1021,0 hPa 0,0 l/m 3,2 km/h (1 Bft) O-NO 67 1 min 0,000 mm 1,5 UV-I 325 W/m 9,2 C 11,6 C 6,4 km/h (2 Bft) 100,00 %
17.10.2018 10:30 23,7 C 11,6 C 21,7 C 12,2 C 55 % 86 % 1021,0 hPa 0,0 l/m 0,0 km/h (0 Bft) O-NO 67 1 min 0,000 mm 1,5 UV-I 323 W/m 9,3 C 11,6 C 1,6 km/h (1 Bft) 95,65 %
17.10.2018 10:29 23,7 C 11,6 C 21,7 C 12,2 C 55 % 86 % 1021,1 hPa 0,0 l/m 0,0 km/h (0 Bft) O-NO 67 1 min 0,000 mm 1,5 UV-I 322 W/m 9,3 C 11,6 C 4,8 km/h (1 Bft) 95,65 %
17.10.2018 10:28 23,7 C 11,5 C 21,1 C 12,2 C 55 % 86 % 1021,1 hPa 0,0 l/m 1,6 km/h (1 Bft) O-NO 67 1 min 0,000 mm 1,5 UV-I 320 W/m 9,2 C 11,5 C 4,8 km/h (1 Bft) 100,00 %
17.10.2018 10:27 23,7 C 11,4 C 21,1 C 12,2 C 55 % 86 % 1021,1 hPa 0,0 l/m 0,0 km/h (0 Bft) N 0 1 min 0,000 mm 1,4 UV-I 316 W/m 9,1 C 11,4 C 0,0 km/h (0 Bft) 95,65 %
17.10.2018 10:26 23,7 C 11,3 C 21,1 C 12,2 C 56 % 86 % 1021,1 hPa 0,0 l/m 0,0 km/h (0 Bft) N 0 1 min 0,000 mm 1,4 UV-I 311 W/m 9,0 C 11,3 C 0,0 km/h (0 Bft) 95,65 %
17.10.2018 10:25 23,7 C 11,3 C 20,6 C 12,2 C 55 % 86 % 1021,1 hPa 0,0 l/m 0,0 km/h (0 Bft) O-NO 67 1 min 0,000 mm 1,4 UV-I 309 W/m 9,0 C 11,3 C 3,2 km/h (1 Bft) 95,65 %
17.10.2018 10:24 23,7 C 11,2 C 20,6 C 12,2 C 55 % 86 % 1021,1 hPa 0,0 l/m 0,0 km/h (0 Bft) N 0 1 min 0,000 mm 1,3 UV-I 308 W/m 8,9 C 11,2 C 0,0 km/h (0 Bft) 95,65 %
17.10.2018 10:23 23,7 C 11,2 C 20,6 C 12,2 C 55 % 86 % 1021,1 hPa 0,0 l/m 0,0 km/h (0 Bft) N 0 1 min 0,000 mm 1,3 UV-I 304 W/m 8,9 C 11,2 C 0,0 km/h (0 Bft) 91,30 %
17.10.2018 10:22 23,6 C 11,2 C 20,6 C 12,2 C 55 % 86 % 1021,1 hPa 0,0 l/m 1,6 km/h (1 Bft) O-NO 67 1 min 0,000 mm 1,3 UV-I 302 W/m 8,9 C 11,2 C 3,2 km/h (1 Bft) 95,65 %
17.10.2018 10:21 23,6 C 11,3 C 20,6 C 12,2 C 55 % 86 % 1021,1 hPa 0,0 l/m 0,0 km/h (0 Bft) O-NO 67 1 min 0,000 mm 1,3 UV-I 301 W/m 9,0 C 11,3 C 3,2 km/h (1 Bft) 100,00 %
17.10.2018 10:20 23,6 C 11,2 C 21,1 C 12,2 C 55 % 86 % 1021,1 hPa 0,0 l/m 3,2 km/h (1 Bft) O-NO 67 1 min 0,000 mm 1,3 UV-I 295 W/m 8,9 C 11,2 C 6,4 km/h (2 Bft) 95,65 %
17.10.2018 10:19 23,6 C 11,2 C 21,1 C 12,2 C 55 % 87 % 1021,1 hPa 0,0 l/m 3,2 km/h (1 Bft) O-NO 67 1 min 0,000 mm 1,2 UV-I 295 W/m 9,1 C 11,2 C 4,8 km/h (1 Bft) 95,65 %
17.10.2018 10:18 23,6 C 11,1 C 21,1 C 12,2 C 55 % 88 % 1021,1 hPa 0,0 l/m 3,2 km/h (1 Bft) O-NO 67 1 min 0,000 mm 1,2 UV-I 292 W/m 9,2 C 11,1 C 6,4 km/h (2 Bft) 95,65 %
17.10.2018 10:17 23,6 C 10,9 C 20,6 C 12,2 C 55 % 87 % 1021,1 hPa 0,0 l/m 1,6 km/h (1 Bft) O-NO 67 1 min 0,000 mm 1,2 UV-I 290 W/m 8,8 C 10,9 C 4,8 km/h (1 Bft) 95,65 %
17.10.2018 10:16 23,6 C 10,8 C 20,0 C 12,2 C 55 % 87 % 1021,1 hPa 0,0 l/m 0,0 km/h (0 Bft) O-NO 67 1 min 0,000 mm 1,2 UV-I 288 W/m 8,7 C 10,8 C 1,6 km/h (1 Bft) 95,65 %
17.10.2018 10:15 23,6 C 10,8 C 20,0 C 12,2 C 54 % 87 % 1021,1 hPa 0,0 l/m 1,6 km/h (1 Bft) O-NO 67 1 min 0,000 mm 1,2 UV-I 285 W/m 8,7 C 10,8 C 4,8 km/h (1 Bft) 100,00 %
17.10.2018 10:14 23,6 C 10,8 C 20,0 C 12,2 C 54 % 87 % 1021,2 hPa 0,0 l/m 0,0 km/h (0 Bft) O-NO 67 1 min 0,000 mm 1,2 UV-I 281 W/m 8,7 C 10,8 C 3,2 km/h (1 Bft) 91,30 %
17.10.2018 10:13 23,6 C 10,8 C 20,0 C 12,2 C 55 % 87 % 1021,2 hPa 0,0 l/m 3,2 km/h (1 Bft) O-NO 67 1 min 0,000 mm 1,2 UV-I 279 W/m 8,7 C 10,8 C 4,8 km/h (1 Bft) 95,65 %
17.10.2018 10:12 23,6 C 10,8 C 20,0 C 12,2 C 55 % 87 % 1021,2 hPa 0,0 l/m 0,0 km/h (0 Bft) N 0 1 min 0,000 mm 1,2 UV-I 272 W/m 8,7 C 10,8 C 0,0 km/h (0 Bft) 100,00 %
17.10.2018 10:11 23,6 C 10,8 C 20,0 C 12,2 C 55 % 88 % 1021,2 hPa 0,0 l/m 1,6 km/h (1 Bft) O-NO 67 1 min 0,000 mm 1,2 UV-I 267 W/m 8,9 C 10,8 C 3,2 km/h (1 Bft) 95,65 %
17.10.2018 10:10 23,6 C 10,7 C 20,0 C 12,2 C 55 % 88 % 1021,2 hPa 0,0 l/m 0,0 km/h (0 Bft) N 0 1 min 0,000 mm 1,2 UV-I 260 W/m 8,8 C 10,7 C 0,0 km/h (0 Bft) 95,65 %
17.10.2018 10:09 23,6 C 10,6 C 20,0 C 12,2 C 55 % 87 % 1021,2 hPa 0,0 l/m 0,0 km/h (0 Bft) N 0 1 min 0,000 mm 1,2 UV-I 246 W/m 8,5 C 10,6 C 0,0 km/h (0 Bft) 100,00 %
17.10.2018 10:08 23,6 C 10,6 C 20,0 C 12,2 C 55 % 87 % 1021,2 hPa 0,0 l/m 0,0 km/h (0 Bft) N 0 1 min 0,000 mm 1,2 UV-I 239 W/m 8,5 C 10,6 C 0,0 km/h (0 Bft) 95,65 %
17.10.2018 10:07 23,6 C 10,6 C 19,4 C 12,2 C 55 % 87 % 1021,2 hPa 0,0 l/m 0,0 km/h (0 Bft) N 0 1 min 0,000 mm 1,2 UV-I 232 W/m 8,5 C 10,6 C 0,0 km/h (0 Bft) 95,65 %
17.10.2018 10:06 23,6 C 10,6 C 19,4 C 12,2 C 55 % 87 % 1021,2 hPa 0,0 l/m 1,6 km/h (1 Bft) O-NO 67 1 min 0,000 mm 1,2 UV-I 227 W/m 8,5 C 10,6 C 4,8 km/h (1 Bft) 100,00 %
17.10.2018 10:05 23,6 C 10,6 C 18,9 C 12,2 C 55 % 88 % 1021,2 hPa 0,0 l/m 3,2 km/h (1 Bft) O-NO 67 1 min 0,000 mm 1,2 UV-I 221 W/m 8,7 C 10,6 C 4,8 km/h (1 Bft) 95,65 %
17.10.2018 10:04 23,6 C 10,5 C 18,9 C 12,2 C 55 % 87 % 1021,2 hPa 0,0 l/m 0,0 km/h (0 Bft) O-NO 67 1 min 0,000 mm 1,2 UV-I 218 W/m 8,4 C 10,5 C 1,6 km/h (1 Bft) 95,65 %
17.10.2018 10:03 23,6 C 10,4 C 19,4 C 12,2 C 55 % 87 % 1021,2 hPa 0,0 l/m 0,0 km/h (0 Bft) N 0 1 min 0,000 mm 1,2 UV-I 218 W/m 8,3 C 10,4 C 0,0 km/h (0 Bft) 100,00 %
17.10.2018 10:02 23,6 C 10,5 C 19,4 C 12,2 C 55 % 87 % 1021,2 hPa 0,0 l/m 0,0 km/h (0 Bft) N 0 1 min 0,000 mm 1,2 UV-I 221 W/m 8,4 C 10,5 C 0,0 km/h (0 Bft) 95,65 %
17.10.2018 10:01 23,6 C 10,6 C 19,4 C 12,2 C 55 % 87 % 1021,2 hPa 0,0 l/m 0,0 km/h (0 Bft) N 0 1 min 0,000 mm 1,2 UV-I 225 W/m 8,5 C 10,6 C 0,0 km/h (0 Bft) 95,65 %
17.10.2018 10:00 23,6 C 10,6 C 19,4 C 12,2 C 55 % 87 % 1021,2 hPa 0,0 l/m 0,0 km/h (0 Bft) O-NO 67 1 min 0,076 mm 1,2 UV-I 227 W/m 8,5 C 10,6 C 1,6 km/h (1 Bft) 95,65 %
17.10.2018 09:59 23,6 C 10,6 C 19,4 C 12,2 C 55 % 87 % 1021,2 hPa 0,0 l/m 0,0 km/h (0 Bft) O-NO 67 1 min 0,000 mm 1,2 UV-I 232 W/m 8,5 C 10,6 C 1,6 km/h (1 Bft) 95,65 %
17.10.2018 09:58 23,6 C 10,6 C 19,4 C 12,2 C 55 % 87 % 1021,2 hPa 0,0 l/m 0,0 km/h (0 Bft) O-NO 67 1 min 0,000 mm 1,1 UV-I 239 W/m 8,5 C 10,6 C 1,6 km/h (1 Bft) 95,65 %
17.10.2018 09:57 23,6 C 10,5 C 18,9 C 12,2 C 55 % 89 % 1021,2 hPa 0,0 l/m 0,0 km/h (0 Bft) O-NO 67 1 min 0,000 mm 1,0 UV-I 243 W/m 8,8 C 10,5 C 1,6 km/h (1 Bft) 100,00 %
17.10.2018 09:56 23,6 C 10,4 C 18,3 C 12,2 C 55 % 88 % 1021,2 hPa 0,0 l/m 0,0 km/h (0 Bft) N 0 1 min 0,000 mm 1,0 UV-I 244 W/m 8,5 C 10,4 C 0,0 km/h (0 Bft) 91,30 %
17.10.2018 09:55 23,6 C 10,3 C 18,3 C 12,2 C 55 % 87 % 1021,2 hPa 0,0 l/m 0,0 km/h (0 Bft) N 0 1 min 0,000 mm 1,0 UV-I 243 W/m 8,2 C 10,3 C 0,0 km/h (0 Bft) 95,65 %
17.10.2018 09:54 23,6 C 10,3 C 18,3 C 12,2 C 55 % 87 % 1021,2 hPa 0,0 l/m 0,0 km/h (0 Bft) N 0 1 min 0,000 mm 1,0 UV-I 243 W/m 8,2 C 10,3 C 0,0 km/h (0 Bft) 95,65 %
17.10.2018 09:53 23,6 C 10,2 C 18,3 C 12,2 C 55 % 88 % 1021,2 hPa 0,0 l/m 0,0 km/h (0 Bft) N 0 1 min 0,000 mm 1,0 UV-I 239 W/m 8,3 C 10,2 C 0,0 km/h (0 Bft) 95,65 %
17.10.2018 09:52 23,6 C 10,2 C 17,8 C 12,2 C 55 % 87 % 1021,2 hPa 0,0 l/m 0,0 km/h (0 Bft) N 0 1 min 0,000 mm 1,0 UV-I 236 W/m 8,1 C 10,2 C 0,0 km/h (0 Bft) 95,65 %
17.10.2018 09:51 23,6 C 10,2 C 17,8 C 12,2 C 55 % 88 % 1021,2 hPa 0,0 l/m 0,0 km/h (0 Bft) N 0 1 min 0,000 mm 1,0 UV-I 229 W/m 8,3 C 10,2 C 0,0 km/h (0 Bft) 95,65 %
17.10.2018 09:50 23,6 C 10,1 C 17,8 C 12,2 C 54 % 88 % 1021,2 hPa 0,0 l/m 0,0 km/h (0 Bft) O-NO 67 1 min 0,000 mm 0,9 UV-I 227 W/m 8,2 C 10,1 C 1,6 km/h (1 Bft) 91,30 %
17.10.2018 09:49 23,6 C 10,1 C 17,2 C 12,2 C 54 % 88 % 1021,2 hPa 0,0 l/m 0,0 km/h (0 Bft) N 0 1 min 0,000 mm 0,9 UV-I 221 W/m 8,2 C 10,1 C 0,0 km/h (0 Bft) 95,65 %
17.10.2018 09:48 23,6 C 10,1 C 16,7 C 12,2 C 54 % 89 % 1021,2 hPa 0,0 l/m 0,0 km/h (0 Bft) N 0 1 min 0,000 mm 0,9 UV-I 220 W/m 8,4 C 10,1 C 0,0 km/h (0 Bft) 95,65 %
17.10.2018 09:47 23,6 C 10,0 C 16,7 C 12,2 C 54 % 90 % 1021,2 hPa 0,0 l/m 0,0 km/h (0 Bft) N 0 1 min 0,000 mm 0,9 UV-I 214 W/m 8,4 C 10,0 C 0,0 km/h (0 Bft) 95,65 %
17.10.2018 09:46 23,6 C 9,9 C 16,7 C 12,2 C 55 % 89 % 1021,2 hPa 0,0 l/m 0,0 km/h (0 Bft) N 0 1 min 0,000 mm 0,8 UV-I 213 W/m 8,2 C 9,9 C 0,0 km/h (0 Bft) 91,30 %
17.10.2018 09:45 23,6 C 9,9 C 16,7 C 12,2 C 55 % 89 % 1021,2 hPa 0,0 l/m 0,0 km/h (0 Bft) N 0 1 min 0,000 mm 0,8 UV-I 209 W/m 8,2 C 9,9 C 0,0 km/h (0 Bft) 100,00 %
17.10.2018 09:44 23,6 C 9,8 C 16,7 C 12,2 C 54 % 89 % 1021,2 hPa 0,0 l/m 0,0 km/h (0 Bft) N 0 1 min 0,000 mm 0,8 UV-I 209 W/m 8,1 C 9,8 C 0,0 km/h (0 Bft) 91,30 %
17.10.2018 09:43 23,6 C 9,8 C 16,7 C 12,2 C 55 % 89 % 1021,2 hPa 0,0 l/m 0,0 km/h (0 Bft) N 0 1 min 0,000 mm 0,8 UV-I 207 W/m 8,1 C 9,8 C 0,0 km/h (0 Bft) 91,30 %
17.10.2018 09:42 23,6 C 9,7 C 16,7 C 12,2 C 55 % 89 % 1021,2 hPa 0,0 l/m 0,0 km/h (0 Bft) N 0 1 min 0,000 mm 0,8 UV-I 206 W/m 8,0 C 9,7 C 0,0 km/h (0 Bft) 95,65 %
17.10.2018 09:41 23,6 C 9,6 C 16,7 C 12,2 C 55 % 89 % 1021,2 hPa 0,0 l/m 0,0 km/h (0 Bft) N 0 1 min 0,000 mm 0,8 UV-I 202 W/m 7,9 C 9,6 C 0,0 km/h (0 Bft) 86,96 %
17.10.2018 09:40 23,6 C 9,6 C 16,7 C 12,2 C 55 % 89 % 1021,2 hPa 0,0 l/m 0,0 km/h (0 Bft) N 0 1 min 0,000 mm 0,8 UV-I 199 W/m 7,9 C 9,6 C 0,0 km/h (0 Bft) 95,65 %
17.10.2018 09:39 23,4 C 9,5 C 16,7 C 12,2 C 55 % 89 % 1021,2 hPa 0,0 l/m 0,0 km/h (0 Bft) N 0 1 min 0,000 mm 0,7 UV-I 195 W/m 7,8 C 9,5 C 0,0 km/h (0 Bft) 95,65 %
17.10.2018 09:38 23,4 C 9,5 C 16,7 C 12,2 C 55 % 89 % 1021,2 hPa 0,0 l/m 0,0 km/h (0 Bft) N 0 1 min 0,000 mm 0,7 UV-I 192 W/m 7,8 C 9,5 C 0,0 km/h (0 Bft) 91,30 %
17.10.2018 09:37 23,4 C 9,5 C 16,1 C 12,2 C 55 % 89 % 1021,2 hPa 0,0 l/m 0,0 km/h (0 Bft) N 0 1 min 0,000 mm 0,7 UV-I 188 W/m 7,8 C 9,5 C 0,0 km/h (0 Bft) 86,96 %
17.10.2018 09:36 23,4 C 9,4 C 16,1 C 12,2 C 54 % 89 % 1021,2 hPa 0,0 l/m 0,0 km/h (0 Bft) N 0 1 min 0,000 mm 0,7 UV-I 186 W/m 7,7 C 9,4 C 0,0 km/h (0 Bft) 95,65 %
17.10.2018 09:35 23,4 C 9,4 C 16,1 C 12,2 C 54 % 89 % 1021,2 hPa 0,0 l/m 0,0 km/h (0 Bft) N 0 1 min 0,000 mm 0,6 UV-I 183 W/m 7,7 C 9,4 C 0,0 km/h (0 Bft) 91,30 %
17.10.2018 09:34 23,4 C 9,4 C 16,1 C 12,2 C 54 % 89 % 1021,2 hPa 0,0 l/m 0,0 km/h (0 Bft) N 0 1 min 0,000 mm 0,6 UV-I 178 W/m 7,7 C 9,4 C 0,0 km/h (0 Bft) 95,65 %
17.10.2018 09:33 23,4 C 9,4 C 16,1 C 12,2 C 54 % 89 % 1021,2 hPa 0,0 l/m 0,0 km/h (0 Bft) N 0 1 min 0,000 mm 0,5 UV-I 176 W/m 7,7 C 9,4 C 0,0 km/h (0 Bft) 86,96 %
17.10.2018 09:32 23,4 C 9,3 C 16,1 C 12,2 C 54 % 90 % 1021,2 hPa 0,0 l/m 0,0 km/h (0 Bft) N 0 1 min 0,000 mm 0,5 UV-I 171 W/m 7,7 C 9,3 C 0,0 km/h (0 Bft) 95,65 %
17.10.2018 09:31 23,4 C 9,3 C 15,6 C 12,2 C 54 % 90 % 1021,2 hPa 0,0 l/m 0,0 km/h (0 Bft) N 0 1 min 0,000 mm 0,5 UV-I 163 W/m 7,7 C 9,3 C 0,0 km/h (0 Bft) 95,65 %
17.10.2018 09:30 23,4 C 9,2 C 15,6 C 12,2 C 54 % 90 % 1021,2 hPa 0,0 l/m 0,0 km/h (0 Bft) N 0 1 min 0,000 mm 0,0 UV-I 163 W/m 7,6 C 9,2 C 0,0 km/h (0 Bft) 91,30 %
17.10.2018 09:29 23,4 C 9,1 C 15,6 C 12,2 C 54 % 90 % 1021,2 hPa 0,0 l/m 0,0 km/h (0 Bft) N 0 1 min 0,000 mm 0,0 UV-I 160 W/m 7,5 C 9,1 C 0,0 km/h (0 Bft) 100,00 %
17.10.2018 09:28 23,4 C 9,1 C 15,6 C 12,2 C 54 % 90 % 1021,2 hPa 0,0 l/m 0,0 km/h (0 Bft) N 0 0 min 0,000 mm 0,0 UV-I 151 W/m 7,5 C 9,1 C 0,0 km/h (0 Bft) 91,30 %
17.10.2018 09:27 23,4 C 9,1 C 15,0 C 12,2 C 54 % 90 % 1021,2 hPa 0,0 l/m 0,0 km/h (0 Bft) N 0 0 min 0,000 mm 0,0 UV-I 151 W/m 7,5 C 9,1 C 0,0 km/h (0 Bft) 95,65 %
17.10.2018 09:26 23,4 C 9,1 C 15,0 C 12,2 C 54 % 90 % 1021,2 hPa 0,0 l/m 0,0 km/h (0 Bft) N 0 0 min 0,000 mm 0,0 UV-I 151 W/m 7,5 C 9,1 C 0,0 km/h (0 Bft) 100,00 %
17.10.2018 09:25 23,4 C 9,1 C 15,0 C 12,2 C 54 % 91 % 1021,2 hPa 0,0 l/m 0,0 km/h (0 Bft) N 0 1 min 0,000 mm 0,0 UV-I 153 W/m 7,7 C 9,1 C 0,0 km/h (0 Bft) 95,65 %
17.10.2018 09:24 23,4 C 9,0 C 15,0 C 12,2 C 54 % 91 % 1021,2 hPa 0,0 l/m 0,0 km/h (0 Bft) N 0 1 min 0,000 mm 0,0 UV-I 153 W/m 7,6 C 9,0 C 0,0 km/h (0 Bft) 91,30 %
17.10.2018 09:23 23,4 C 8,9 C 15,0 C 12,2 C 55 % 91 % 1021,2 hPa 0,0 l/m 0,0 km/h (0 Bft) N 0 0 min 0,000 mm 0,0 UV-I 149 W/m 7,5 C 8,9 C 0,0 km/h (0 Bft) 95,65 %
17.10.2018 09:22 23,4 C 8,9 C 15,0 C 12,2 C 54 % 91 % 1021,2 hPa 0,0 l/m 0,0 km/h (0 Bft) N 0 0 min 0,000 mm 0,0 UV-I 135 W/m 7,5 C 8,9 C 0,0 km/h (0 Bft) 95,65 %
17.10.2018 09:21 23,4 C 8,8 C 14,4 C 12,2 C 55 % 91 % 1021,2 hPa 0,0 l/m 0,0 km/h (0 Bft) N 0 0 min 0,000 mm 0,0 UV-I 128 W/m 7,4 C 8,8 C 0,0 km/h (0 Bft) 95,65 %
17.10.2018 09:20 23,4 C 8,8 C 14,4 C 12,2 C 54 % 91 % 1021,2 hPa 0,0 l/m 0,0 km/h (0 Bft) N 0 0 min 0,000 mm 0,0 UV-I 123 W/m 7,4 C 8,8 C 0,0 km/h (0 Bft) 100,00 %
17.10.2018 09:19 23,4 C 8,7 C 14,4 C 12,2 C 54 % 91 % 1021,2 hPa 0,0 l/m 0,0 km/h (0 Bft) N 0 0 min 0,000 mm 0,0 UV-I 121 W/m 7,3 C 8,7 C 0,0 km/h (0 Bft) 95,65 %
17.10.2018 09:18 23,4 C 8,7 C 13,9 C 12,2 C 54 % 91 % 1021,2 hPa 0,0 l/m 0,0 km/h (0 Bft) N 0 0 min 0,000 mm 0,0 UV-I 121 W/m 7,3 C 8,7 C 0,0 km/h (0 Bft) 91,30 %
17.10.2018 09:17 23,4 C 8,6 C 13,9 C 12,2 C 54 % 92 % 1021,2 hPa 0,0 l/m 0,0 km/h (0 Bft) N 0 0 min 0,000 mm 0,0 UV-I 123 W/m 7,4 C 8,6 C 0,0 km/h (0 Bft) 100,00 %
17.10.2018 09:16 23,4 C 8,6 C 13,9 C 12,2 C 54 % 92 % 1021,2 hPa 0,0 l/m 0,0 km/h (0 Bft) N 0 0 min 0,000 mm 0,0 UV-I 123 W/m 7,4 C 8,6 C 0,0 km/h (0 Bft) 91,30 %
17.10.2018 09:15 23,4 C 8,5 C 13,3 C 12,2 C 54 % 91 % 1021,2 hPa 0,0 l/m 0,0 km/h (0 Bft) N 0 0 min 0,000 mm 0,0 UV-I 125 W/m 7,1 C 8,5 C 0,0 km/h (0 Bft) 95,65 %
17.10.2018 09:14 23,4 C 8,4 C 13,3 C 12,2 C 54 % 92 % 1021,1 hPa 0,0 l/m 0,0 km/h (0 Bft) N 0 0 min 0,000 mm 0,0 UV-I 125 W/m 7,2 C 8,4 C 0,0 km/h (0 Bft) 100,00 %
17.10.2018 09:13 23,4 C 8,4 C 12,8 C 12,2 C 54 % 92 % 1021,1 hPa 0,0 l/m 0,0 km/h (0 Bft) N 0 0 min 0,000 mm 0,0 UV-I 127 W/m 7,2 C 8,4 C 0,0 km/h (0 Bft) 95,65 %
17.10.2018 09:12 23,4 C 8,3 C 12,8 C 12,2 C 54 % 92 % 1021,1 hPa 0,0 l/m 0,0 km/h (0 Bft) N 0 0 min 0,000 mm 0,0 UV-I 127 W/m 7,1 C 8,3 C 0,0 km/h (0 Bft) 95,65 %
17.10.2018 09:11 23,4 C 8,3 C 12,8 C 12,2 C 54 % 92 % 1021,1 hPa 0,0 l/m 0,0 km/h (0 Bft) N 0 0 min 0,000 mm 0,0 UV-I 128 W/m 7,1 C 8,3 C 0,0 km/h (0 Bft) 100,00 %
17.10.2018 09:10 23,4 C 8,2 C 12,8 C 12,2 C 54 % 92 % 1021,1 hPa 0,0 l/m 0,0 km/h (0 Bft) N 0 0 min 0,000 mm 0,0 UV-I 128 W/m 7,0 C 8,2 C 0,0 km/h (0 Bft) 91,30 %
17.10.2018 09:09 23,4 C 8,1 C 12,2 C 12,2 C 54 % 92 % 1021,1 hPa 0,0 l/m 0,0 km/h (0 Bft) N 0 0 min 0,000 mm 0,0 UV-I 130 W/m 6,9 C 8,1 C 0,0 km/h (0 Bft) 95,65 %
17.10.2018 09:08 23,4 C 8,1 C 12,2 C 12,2 C 54 % 92 % 1021,1 hPa 0,0 l/m 0,0 km/h (0 Bft) N 0 0 min 0,000 mm 0,0 UV-I 128 W/m 6,9 C 8,1 C 0,0 km/h (0 Bft) 100,00 %
17.10.2018 09:07 23,4 C 8,0 C 12,2 C 12,2 C 54 % 92 % 1021,1 hPa 0,0 l/m 0,0 km/h (0 Bft) N 0 0 min 0,000 mm 0,0 UV-I 127 W/m 6,8 C 8,0 C 0,0 km/h (0 Bft) 95,65 %
17.10.2018 09:06 23,4 C 7,9 C 12,2 C 12,2 C 54 % 92 % 1021,1 hPa 0,0 l/m 0,0 km/h (0 Bft) N 0 0 min 0,000 mm 0,0 UV-I 127 W/m 6,7 C 7,9 C 0,0 km/h (0 Bft) 95,65 %
17.10.2018 09:05 23,4 C 7,9 C 11,7 C 12,2 C 54 % 92 % 1021,1 hPa 0,0 l/m 0,0 km/h (0 Bft) N 0 0 min 0,000 mm 0,0 UV-I 125 W/m 6,7 C 7,9 C 0,0 km/h (0 Bft) 100,00 %
17.10.2018 09:04 23,4 C 7,8 C 11,7 C 12,2 C 54 % 92 % 1021,1 hPa 0,0 l/m 0,0 km/h (0 Bft) N 0 0 min 0,000 mm 0,0 UV-I 123 W/m 6,6 C 7,8 C 0,0 km/h (0 Bft) 95,65 %
17.10.2018 09:03 23,4 C 7,8 C 11,7 C 12,2 C 54 % 92 % 1021,1 hPa 0,0 l/m 0,0 km/h (0 Bft) N 0 0 min 0,000 mm 0,0 UV-I 121 W/m 6,6 C 7,8 C 0,0 km/h (0 Bft) 95,65 %
17.10.2018 09:02 23,4 C 7,8 C 11,1 C 12,2 C 54 % 92 % 1021,1 hPa 0,0 l/m 0,0 km/h (0 Bft) N 0 0 min 0,000 mm 0,0 UV-I 120 W/m 6,6 C 7,8 C 0,0 km/h (0 Bft) 100,00 %
17.10.2018 09:01 23,4 C 7,8 C 11,1 C 12,2 C 54 % 92 % 1021,1 hPa 0,0 l/m 0,0 km/h (0 Bft) N 0 0 min 0,000 mm 0,0 UV-I 120 W/m 6,6 C 7,8 C 0,0 km/h (0 Bft) 95,65 %
17.10.2018 09:00 23,4 C 7,8 C 11,1 C 12,2 C 54 % 92 % 1021,1 hPa 0,0 l/m 0,0 km/h (0 Bft) N 0 0 min 0,025 mm 0,0 UV-I 118 W/m 6,6 C 7,8 C 0,0 km/h (0 Bft) 91,30 %
17.10.2018 08:59 23,4 C 7,7 C 11,1 C 12,2 C 54 % 93 % 1021,1 hPa 0,0 l/m 0,0 km/h (0 Bft) N 0 0 min 0,000 mm 0,0 UV-I 116 W/m 6,6 C 7,7 C 0,0 km/h (0 Bft) 100,00 %
17.10.2018 08:58 23,4 C 7,7 C 10,6 C 12,2 C 55 % 93 % 1021,1 hPa 0,0 l/m 0,0 km/h (0 Bft) N 0 0 min 0,000 mm 0,0 UV-I 114 W/m 6,6 C 7,7 C 0,0 km/h (0 Bft) 91,30 %
17.10.2018 08:57 23,4 C 7,7 C 10,6 C 12,2 C 54 % 93 % 1021,1 hPa 0,0 l/m 0,0 km/h (0 Bft) N 0 0 min 0,000 mm 0,0 UV-I 114 W/m 6,6 C 7,7 C 0,0 km/h (0 Bft) 95,65 %
17.10.2018 08:56 23,4 C 7,6 C 10,6 C 12,2 C 55 % 93 % 1021,1 hPa 0,0 l/m 0,0 km/h (0 Bft) N 0 0 min 0,000 mm 0,0 UV-I 114 W/m 6,5 C 7,6 C 0,0 km/h (0 Bft) 100,00 %
17.10.2018 08:55 23,4 C 7,4 C 10,0 C 12,2 C 54 % 93 % 1021,1 hPa 0,0 l/m 0,0 km/h (0 Bft) N 0 0 min 0,000 mm 0,0 UV-I 113 W/m 6,3 C 7,4 C 0,0 km/h (0 Bft) 95,65 %
17.10.2018 08:54 23,4 C 7,4 C 10,0 C 12,2 C 55 % 93 % 1021,1 hPa 0,0 l/m 0,0 km/h (0 Bft) N 0 0 min 0,000 mm 0,0 UV-I 111 W/m 6,3 C 7,4 C 0,0 km/h (0 Bft) 95,65 %
17.10.2018 08:53 23,4 C 7,3 C 9,4 C 12,2 C 54 % 93 % 1021,1 hPa 0,0 l/m 0,0 km/h (0 Bft) N 0 0 min 0,000 mm 0,0 UV-I 107 W/m 6,2 C 7,3 C 0,0 km/h (0 Bft) 100,00 %
17.10.2018 08:52 23,4 C 7,2 C 9,4 C 12,2 C 55 % 93 % 1021,1 hPa 0,0 l/m 0,0 km/h (0 Bft) N 0 0 min 0,000 mm 0,0 UV-I 105 W/m 6,1 C 7,2 C 0,0 km/h (0 Bft) 95,65 %
17.10.2018 08:51 23,4 C 7,2 C 8,9 C 12,2 C 55 % 93 % 1021,1 hPa 0,0 l/m 0,0 km/h (0 Bft) N 0 0 min 0,000 mm 0,0 UV-I 98 W/m 6,1 C 7,2 C 0,0 km/h (0 Bft) 91,30 %
17.10.2018 08:50 23,4 C 7,2 C 8,3 C 12,2 C 55 % 94 % 1021,1 hPa 0,0 l/m 0,0 km/h (0 Bft) N 0 0 min 0,000 mm 0,0 UV-I 97 W/m 6,3 C 7,2 C 0,0 km/h (0 Bft) 100,00 %
17.10.2018 08:49 23,4 C 7,1 C 8,3 C 12,2 C 54 % 94 % 1021,1 hPa 0,0 l/m 0,0 km/h (0 Bft) N 0 0 min 0,000 mm 0,0 UV-I 95 W/m 6,2 C 7,1 C 0,0 km/h (0 Bft) 91,30 %
17.10.2018 08:48 23,4 C 7,1 C 7,8 C 12,2 C 55 % 94 % 1021,1 hPa 0,0 l/m 0,0 km/h (0 Bft) N 0 0 min 0,000 mm 0,0 UV-I 81 W/m 6,2 C 7,1 C 0,0 km/h (0 Bft) 91,30 %
17.10.2018 08:47 23,4 C 7,0 C 7,8 C 12,2 C 54 % 94 % 1021,1 hPa 0,0 l/m 0,0 km/h (0 Bft) N 0 0 min 0,000 mm 0,0 UV-I 70 W/m 6,1 C 7,0 C 0,0 km/h (0 Bft) 100,00 %
17.10.2018 08:46 23,4 C 6,9 C 7,8 C 12,2 C 55 % 94 % 1021,1 hPa 0,0 l/m 0,0 km/h (0 Bft) N 0 0 min 0,000 mm 0,0 UV-I 72 W/m 6,0 C 6,9 C 0,0 km/h (0 Bft) 86,96 %
17.10.2018 08:45 23,4 C 6,9 C 7,2 C 12,2 C 55 % 94 % 1021,1 hPa 0,0 l/m 0,0 km/h (0 Bft) N 0 0 min 0,000 mm 0,0 UV-I 69 W/m 6,0 C 6,9 C 0,0 km/h (0 Bft) 95,65 %
17.10.2018 08:44 23,4 C 6,8 C 6,7 C 12,2 C 54 % 94 % 1021,1 hPa 0,0 l/m 0,0 km/h (0 Bft) N 0 0 min 0,000 mm 0,0 UV-I 63 W/m 5,9 C 6,8 C 0,0 km/h (0 Bft) 91,30 %
17.10.2018 08:43 23,4 C 6,7 C 6,7 C 12,2 C 55 % 94 % 1021,1 hPa 0,0 l/m 0,0 km/h (0 Bft) N 0 0 min 0,000 mm 0,0 UV-I 65 W/m 5,8 C 6,7 C 0,0 km/h (0 Bft) 95,65 %
17.10.2018 08:42 23,4 C 6,7 C 6,1 C 12,2 C 55 % 94 % 1021,1 hPa 0,0 l/m 0,0 km/h (0 Bft) N 0 0 min 0,000 mm 0,0 UV-I 63 W/m 5,8 C 6,7 C 0,0 km/h (0 Bft) 91,30 %
17.10.2018 08:41 23,4 C 6,6 C 6,1 C 12,2 C 54 % 95 % 1021,1 hPa 0,0 l/m 0,0 km/h (0 Bft) N 0 0 min 0,000 mm 0,0 UV-I 56 W/m 5,9 C 6,6 C 0,0 km/h (0 Bft) 95,65 %
17.10.2018 08:40 23,4 C 6,6 C 5,6 C 12,2 C 54 % 95 % 1021,1 hPa 0,0 l/m 0,0 km/h (0 Bft) N 0 0 min 0,000 mm 0,0 UV-I 54 W/m 5,9 C 6,6 C 0,0 km/h (0 Bft) 100,00 %
17.10.2018 08:39 23,4 C 6,5 C 5,6 C 12,2 C 54 % 95 % 1021,1 hPa 0,0 l/m 0,0 km/h (0 Bft) N 0 0 min 0,000 mm 0,0 UV-I 49 W/m 5,8 C 6,5 C 0,0 km/h (0 Bft) 95,65 %
17.10.2018 08:38 23,4 C 6,5 C 5,6 C 12,2 C 55 % 95 % 1021,1 hPa 0,0 l/m 0,0 km/h (0 Bft) N 0 0 min 0,000 mm 0,0 UV-I 46 W/m 5,8 C 6,5 C 0,0 km/h (0 Bft) 95,65 %
17.10.2018 08:37 23,4 C 6,4 C 5,6 C 12,2 C 54 % 95 % 1021,1 hPa 0,0 l/m 0,0 km/h (0 Bft) N 0 0 min 0,000 mm 0,0 UV-I 44 W/m 5,7 C 6,4 C 0,0 km/h (0 Bft) 100,00 %
17.10.2018 08:36 23,4 C 6,4 C 5,6 C 12,2 C 54 % 95 % 1021,1 hPa 0,0 l/m 0,0 km/h (0 Bft) N 0 0 min 0,000 mm 0,0 UV-I 42 W/m 5,7 C 6,4 C 0,0 km/h (0 Bft) 91,30 %
17.10.2018 08:35 23,4 C 6,3 C 5,6 C 12,8 C 54 % 95 % 1021,1 hPa 0,0 l/m 0,0 km/h (0 Bft) N 0 0 min 0,000 mm 0,0 UV-I 42 W/m 5,6 C 6,3 C 0,0 km/h (0 Bft) 95,65 %
17.10.2018 08:34 23,4 C 6,3 C 5,6 C 12,8 C 54 % 95 % 1021,1 hPa 0,0 l/m 0,0 km/h (0 Bft) N 0 0 min 0,000 mm 0,0 UV-I 40 W/m 5,6 C 6,3 C 0,0 km/h (0 Bft) 100,00 %
17.10.2018 08:33 23,4 C 6,3 C 5,6 C 12,8 C 54 % 95 % 1021,1 hPa 0,0 l/m 0,0 km/h (0 Bft) N 0 0 min 0,000 mm 0,0 UV-I 40 W/m 5,6 C 6,3 C 0,0 km/h (0 Bft) 95,65 %
17.10.2018 08:32 23,4 C 6,3 C 5,6 C 12,8 C 54 % 95 % 1021,1 hPa 0,0 l/m 0,0 km/h (0 Bft) N 0 0 min 0,000 mm 0,0 UV-I 40 W/m 5,6 C 6,3 C 0,0 km/h (0 Bft) 91,30 %
17.10.2018 08:31 23,4 C 6,2 C 5,6 C 12,8 C 54 % 95 % 1021,1 hPa 0,0 l/m 0,0 km/h (0 Bft) N 0 0 min 0,000 mm 0,0 UV-I 40 W/m 5,5 C 6,2 C 0,0 km/h (0 Bft) 100,00 %
17.10.2018 08:30 23,4 C 6,2 C 5,6 C 12,8 C 54 % 95 % 1021,1 hPa 0,0 l/m 0,0 km/h (0 Bft) N 0 0 min 0,000 mm 0,0 UV-I 42 W/m 5,5 C 6,2 C 0,0 km/h (0 Bft) 91,30 %
17.10.2018 08:29 23,4 C 6,1 C 5,0 C 12,8 C 54 % 95 % 1021,1 hPa 0,0 l/m 0,0 km/h (0 Bft) N 0 0 min 0,000 mm 0,0 UV-I 42 W/m 5,4 C 6,1 C 0,0 km/h (0 Bft) 95,65 %
17.10.2018 08:28 23,4 C 6,1 C 5,0 C 12,8 C 54 % 95 % 1021,1 hPa 0,0 l/m 0,0 km/h (0 Bft) N 0 0 min 0,000 mm 0,0 UV-I 39 W/m 5,4 C 6,1 C 0,0 km/h (0 Bft) 91,30 %
17.10.2018 08:27 23,4 C 6,1 C 5,0 C 12,8 C 54 % 95 % 1021,1 hPa 0,0 l/m 0,0 km/h (0 Bft) N 0 0 min 0,000 mm 0,0 UV-I 35 W/m 5,4 C 6,1 C 0,0 km/h (0 Bft) 95,65 %
17.10.2018 08:26 23,4 C 6,0 C 5,0 C 12,8 C 54 % 95 % 1021,1 hPa 0,0 l/m 0,0 km/h (0 Bft) N 0 0 min 0,000 mm 0,0 UV-I 33 W/m 5,3 C 6,0 C 0,0 km/h (0 Bft) 86,96 %
17.10.2018 08:25 23,4 C 5,9 C 5,0 C 12,8 C 54 % 95 % 1021,1 hPa 0,0 l/m 0,0 km/h (0 Bft) N 0 0 min 0,000 mm 0,0 UV-I 32 W/m 5,2 C 5,9 C 0,0 km/h (0 Bft) 95,65 %
17.10.2018 08:24 23,4 C 5,9 C 5,0 C 12,8 C 54 % 95 % 1021,1 hPa 0,0 l/m 0,0 km/h (0 Bft) N 0 0 min 0,000 mm 0,0 UV-I 32 W/m 5,2 C 5,9 C 0,0 km/h (0 Bft) 91,30 %
17.10.2018 08:23 23,4 C 5,9 C 5,0 C 12,8 C 54 % 95 % 1021,1 hPa 0,0 l/m 0,0 km/h (0 Bft) N 0 0 min 0,000 mm 0,0 UV-I 32 W/m 5,2 C 5,9 C 0,0 km/h (0 Bft) 91,30 %
17.10.2018 08:22 23,4 C 5,9 C 5,0 C 12,8 C 54 % 95 % 1021,1 hPa 0,0 l/m 0,0 km/h (0 Bft) N 0 0 min 0,000 mm 0,0 UV-I 30 W/m 5,2 C 5,9 C 0,0 km/h (0 Bft) 95,65 %
17.10.2018 08:21 23,4 C 5,8 C 5,0 C 12,8 C 54 % 95 % 1021,1 hPa 0,0 l/m 0,0 km/h (0 Bft) O-NO 67 0 min 0,000 mm 0,0 UV-I 30 W/m 5,1 C 5,8 C 1,6 km/h (1 Bft) 86,96 %
17.10.2018 08:20 23,4 C 5,8 C 5,0 C 12,8 C 54 % 95 % 1021,1 hPa 0,0 l/m 0,0 km/h (0 Bft) N 0 0 min 0,000 mm 0,0 UV-I 30 W/m 5,1 C 5,8 C 0,0 km/h (0 Bft) 95,65 %
17.10.2018 08:19 23,4 C 5,8 C 5,0 C 12,8 C 54 % 95 % 1021,1 hPa 0,0 l/m 0,0 km/h (0 Bft) N 0 0 min 0,000 mm 0,0 UV-I 30 W/m 5,1 C 5,8 C 0,0 km/h (0 Bft) 91,30 %
17.10.2018 08:18 23,4 C 5,8 C 4,4 C 12,8 C 54 % 95 % 1021,1 hPa 0,0 l/m 0,0 km/h (0 Bft) N 0 0 min 0,000 mm 0,0 UV-I 28 W/m 5,1 C 5,8 C 0,0 km/h (0 Bft) 95,65 %
17.10.2018 08:17 23,4 C 5,7 C 4,4 C 12,8 C 54 % 95 % 1021,1 hPa 0,0 l/m 0,0 km/h (0 Bft) O-NO 67 0 min 0,000 mm 0,0 UV-I 28 W/m 5,0 C 5,7 C 1,6 km/h (1 Bft) 86,96 %
17.10.2018 08:16 23,4 C 5,7 C 4,4 C 12,8 C 54 % 95 % 1021,1 hPa 0,0 l/m 1,6 km/h (1 Bft) O-NO 67 0 min 0,000 mm 0,0 UV-I 28 W/m 5,0 C 5,7 C 3,2 km/h (1 Bft) 100,00 %
17.10.2018 08:15 23,4 C 5,7 C 4,4 C 12,8 C 54 % 95 % 1021,1 hPa 0,0 l/m 3,2 km/h (1 Bft) O-NO 67 0 min 0,000 mm 0,0 UV-I 28 W/m 5,0 C 5,7 C 3,2 km/h (1 Bft) 86,96 %
17.10.2018 08:14 23,4 C 5,7 C 4,4 C 12,8 C 54 % 95 % 1020,9 hPa 0,0 l/m 1,6 km/h (1 Bft) O-NO 67 0 min 0,000 mm 0,0 UV-I 26 W/m 5,0 C 5,7 C 3,2 km/h (1 Bft) 91,30 %
17.10.2018 08:13 23,4 C 5,6 C 4,4 C 12,8 C 54 % 95 % 1020,9 hPa 0,0 l/m 0,0 km/h (0 Bft) N 0 0 min 0,000 mm 0,0 UV-I 26 W/m 4,9 C 5,6 C 0,0 km/h (0 Bft) 91,30 %
17.10.2018 08:12 23,4 C 5,6 C 3,9 C 12,8 C 54 % 95 % 1020,9 hPa 0,0 l/m 0,0 km/h (0 Bft) N 0 0 min 0,000 mm 0,0 UV-I 26 W/m 4,9 C 5,6 C 0,0 km/h (0 Bft) 86,96 %
17.10.2018 08:11 23,4 C 5,6 C 3,9 C 12,8 C 55 % 95 % 1020,9 hPa 0,0 l/m 0,0 km/h (0 Bft) N 0 0 min 0,000 mm 0,0 UV-I 25 W/m 4,9 C 5,6 C 0,0 km/h (0 Bft) 95,65 %
17.10.2018 08:10 23,4 C 5,5 C 3,9 C 12,8 C 54 % 95 % 1020,9 hPa 0,0 l/m 0,0 km/h (0 Bft) O-NO 67 0 min 0,000 mm 0,0 UV-I 25 W/m 4,8 C 5,5 C 1,6 km/h (1 Bft) 95,65 %
17.10.2018 08:09 23,4 C 5,5 C 3,9 C 12,8 C 54 % 95 % 1020,9 hPa 0,0 l/m 0,0 km/h (0 Bft) O-NO 67 0 min 0,000 mm 0,0 UV-I 25 W/m 4,8 C 5,5 C 1,6 km/h (1 Bft) 95,65 %
17.10.2018 08:08 23,4 C 5,4 C 3,9 C 12,8 C 54 % 95 % 1020,9 hPa 0,0 l/m 0,0 km/h (0 Bft) O-NO 67 0 min 0,000 mm 0,0 UV-I 25 W/m 4,7 C 5,4 C 1,6 km/h (1 Bft) 86,96 %
17.10.2018 08:07 23,4 C 5,4 C 3,3 C 12,8 C 54 % 95 % 1020,9 hPa 0,0 l/m 0,0 km/h (0 Bft) N 0 0 min 0,000 mm 0,0 UV-I 23 W/m 4,7 C 5,4 C 0,0 km/h (0 Bft) 100,00 %
17.10.2018 08:06 23,4 C 5,4 C 3,3 C 12,8 C 54 % 95 % 1020,9 hPa 0,0 l/m 0,0 km/h (0 Bft) N 0 0 min 0,000 mm 0,0 UV-I 23 W/m 4,7 C 5,4 C 0,0 km/h (0 Bft) 91,30 %
17.10.2018 08:05 23,4 C 5,4 C 3,3 C 12,8 C 54 % 95 % 1020,9 hPa 0,0 l/m 0,0 km/h (0 Bft) N 0 0 min 0,000 mm 0,0 UV-I 21 W/m 4,7 C 5,4 C 0,0 km/h (0 Bft) 95,65 %
17.10.2018 08:04 23,4 C 5,3 C 3,3 C 12,8 C 55 % 95 % 1020,9 hPa 0,0 l/m 0,0 km/h (0 Bft) N 0 0 min 0,000 mm 0,0 UV-I 21 W/m 4,6 C 5,3 C 0,0 km/h (0 Bft) 91,30 %
17.10.2018 08:03 23,4 C 5,3 C 3,3 C 12,8 C 54 % 95 % 1020,9 hPa 0,0 l/m 0,0 km/h (0 Bft) N 0 0 min 0,000 mm 0,0 UV-I 21 W/m 4,6 C 5,3 C 0,0 km/h (0 Bft) 95,65 %
17.10.2018 08:02 23,4 C 5,3 C 3,3 C 12,8 C 54 % 95 % 1020,9 hPa 0,0 l/m 0,0 km/h (0 Bft) N 0 0 min 0,000 mm 0,0 UV-I 21 W/m 4,6 C 5,3 C 0,0 km/h (0 Bft) 86,96 %
17.10.2018 08:01 23,4 C 5,3 C 3,3 C 12,8 C 55 % 95 % 1020,9 hPa 0,0 l/m 0,0 km/h (0 Bft) N 0 0 min 0,000 mm 0,0 UV-I 19 W/m 4,6 C 5,3 C 0,0 km/h (0 Bft) 95,65 %
17.10.2018 08:00 23,4 C 5,3 C 3,3 C 12,8 C 54 % 95 % 1020,9 hPa 0,0 l/m 0,0 km/h (0 Bft) N 0 0 min 0,000 mm 0,0 UV-I 19 W/m 4,6 C 5,3 C 0,0 km/h (0 Bft) 91,30 %
17.10.2018 07:59 23,4 C 5,3 C 3,3 C 12,8 C 54 % 95 % 1020,8 hPa 0,0 l/m 0,0 km/h (0 Bft) N 0 0 min 0,000 mm 0,0 UV-I 19 W/m 4,6 C 5,3 C 0,0 km/h (0 Bft) 95,65 %
17.10.2018 07:58 23,4 C 5,3 C 3,3 C 12,8 C 55 % 95 % 1020,8 hPa 0,0 l/m 0,0 km/h (0 Bft) N 0 0 min 0,000 mm 0,0 UV-I 18 W/m 4,6 C 5,3 C 0,0 km/h (0 Bft) 86,96 %
17.10.2018 07:57 23,4 C 5,3 C 3,3 C 12,8 C 54 % 95 % 1020,8 hPa 0,0 l/m 0,0 km/h (0 Bft) N 0 0 min 0,000 mm 0,0 UV-I 18 W/m 4,6 C 5,3 C 0,0 km/h (0 Bft) 100,00 %
17.10.2018 07:56 23,4 C 5,3 C 2,8 C 12,8 C 55 % 95 % 1020,8 hPa 0,0 l/m 0,0 km/h (0 Bft) N 0 0 min 0,000 mm 0,0 UV-I 16 W/m 4,6 C 5,3 C 0,0 km/h (0 Bft) 91,30 %
17.10.2018 07:55 23,4 C 5,3 C 2,8 C 12,8 C 54 % 95 % 1020,8 hPa 0,0 l/m 0,0 km/h (0 Bft) N 0 0 min 0,000 mm 0,0 UV-I 14 W/m 4,6 C 5,3 C 0,0 km/h (0 Bft) 95,65 %
17.10.2018 07:54 23,4 C 5,3 C 2,8 C 12,8 C 55 % 95 % 1020,8 hPa 0,0 l/m 0,0 km/h (0 Bft) N 0 0 min 0,000 mm 0,0 UV-I 12 W/m 4,6 C 5,3 C 0,0 km/h (0 Bft) 95,65 %
17.10.2018 07:53 23,4 C 5,3 C 2,8 C 12,8 C 54 % 95 % 1020,8 hPa 0,0 l/m 0,0 km/h (0 Bft) N 0 0 min 0,000 mm 0,0 UV-I 12 W/m 4,6 C 5,3 C 0,0 km/h (0 Bft) 82,61 %
17.10.2018 07:52 23,4 C 5,3 C 2,8 C 12,8 C 54 % 95 % 1020,8 hPa 0,0 l/m 0,0 km/h (0 Bft) N 0 0 min 0,000 mm 0,0 UV-I 12 W/m 4,6 C 5,3 C 0,0 km/h (0 Bft) 91,30 %
17.10.2018 07:51 23,4 C 5,3 C 2,8 C 12,8 C 54 % 95 % 1020,8 hPa 0,0 l/m 0,0 km/h (0 Bft) N 0 0 min 0,000 mm 0,0 UV-I 11 W/m 4,6 C 5,3 C 0,0 km/h (0 Bft) 91,30 %
17.10.2018 07:50 23,4 C 5,3 C 2,8 C 12,8 C 54 % 95 % 1020,8 hPa 0,0 l/m 0,0 km/h (0 Bft) N 0 0 min 0,000 mm 0,0 UV-I 11 W/m 4,6 C 5,3 C 0,0 km/h (0 Bft) 82,61 %
17.10.2018 07:49 23,4 C 5,3 C 2,8 C 12,8 C 55 % 95 % 1020,8 hPa 0,0 l/m 0,0 km/h (0 Bft) N 0 0 min 0,000 mm 0,0 UV-I 11 W/m 4,6 C 5,3 C 0,0 km/h (0 Bft) 86,96 %
17.10.2018 07:48 23,4 C 5,3 C 2,8 C 12,8 C 55 % 95 % 1020,8 hPa 0,0 l/m 0,0 km/h (0 Bft) N 0 0 min 0,000 mm 0,0 UV-I 9 W/m 4,6 C 5,3 C 0,0 km/h (0 Bft) 95,65 %
17.10.2018 07:47 23,4 C 5,3 C 2,8 C 12,8 C 55 % 95 % 1020,8 hPa 0,0 l/m 0,0 km/h (0 Bft) N 0 0 min 0,000 mm 0,0 UV-I 9 W/m 4,6 C 5,3 C 0,0 km/h (0 Bft) 91,30 %
17.10.2018 07:46 23,4 C 5,3 C 2,8 C 12,8 C 54 % 95 % 1020,8 hPa 0,0 l/m 0,0 km/h (0 Bft) N 0 0 min 0,000 mm 0,0 UV-I 9 W/m 4,6 C 5,3 C 0,0 km/h (0 Bft) 95,65 %
17.10.2018 07:45 23,4 C 5,3 C 2,8 C 12,8 C 54 % 95 % 1020,8 hPa 0,0 l/m 0,0 km/h (0 Bft) N 0 0 min 0,000 mm 0,0 UV-I 9 W/m 4,6 C 5,3 C 0,0 km/h (0 Bft) 95,65 %
17.10.2018 07:44 23,4 C 5,3 C 2,8 C 12,8 C 54 % 95 % 1020,7 hPa 0,0 l/m 0,0 km/h (0 Bft) N 0 0 min 0,000 mm 0,0 UV-I 7 W/m 4,6 C 5,3 C 0,0 km/h (0 Bft) 95,65 %
17.10.2018 07:43 23,4 C 5,3 C 2,8 C 12,8 C 54 % 95 % 1020,7 hPa 0,0 l/m 0,0 km/h (0 Bft) N 0 0 min 0,000 mm 0,0 UV-I 7 W/m 4,6 C 5,3 C 0,0 km/h (0 Bft) 86,96 %
17.10.2018 07:42 23,4 C 5,3 C 2,8 C 12,8 C 54 % 95 % 1020,7 hPa 0,0 l/m 0,0 km/h (0 Bft) N 0 0 min 0,000 mm 0,0 UV-I 7 W/m 4,6 C 5,3 C 0,0 km/h (0 Bft) 100,00 %
17.10.2018 07:41 23,4 C 5,3 C 2,8 C 12,8 C 54 % 95 % 1020,7 hPa 0,0 l/m 0,0 km/h (0 Bft) N 0 0 min 0,000 mm 0,0 UV-I 7 W/m 4,6 C 5,3 C 0,0 km/h (0 Bft) 91,30 %
17.10.2018 07:40 23,4 C 5,3 C 2,2 C 12,8 C 55 % 95 % 1020,7 hPa 0,0 l/m 0,0 km/h (0 Bft) N 0 0 min 0,000 mm 0,0 UV-I 5 W/m 4,6 C 5,3 C 0,0 km/h (0 Bft) 91,30 %
17.10.2018 07:39 23,6 C 5,3 C 2,2 C 12,8 C 54 % 95 % 1020,7 hPa 0,0 l/m 0,0 km/h (0 Bft) N 0 0 min 0,000 mm 0,0 UV-I 5 W/m 4,6 C 5,3 C 0,0 km/h (0 Bft) 95,65 %
17.10.2018 07:38 23,6 C 5,3 C 2,2 C 12,8 C 54 % 95 % 1020,7 hPa 0,0 l/m 0,0 km/h (0 Bft) N 0 0 min 0,000 mm 0,0 UV-I 5 W/m 4,6 C 5,3 C 0,0 km/h (0 Bft) 86,96 %
17.10.2018 07:37 23,6 C 5,3 C 2,2 C 12,8 C 54 % 95 % 1020,7 hPa 0,0 l/m 0,0 km/h (0 Bft) N 0 0 min 0,000 mm 0,0 UV-I 5 W/m 4,6 C 5,3 C 0,0 km/h (0 Bft) 95,65 %
17.10.2018 07:36 23,6 C 5,2 C 2,2 C 12,8 C 54 % 95 % 1020,7 hPa 0,0 l/m 0,0 km/h (0 Bft) N 0 0 min 0,000 mm 0,0 UV-I 5 W/m 4,5 C 5,2 C 0,0 km/h (0 Bft) 91,30 %
17.10.2018 07:35 23,6 C 5,2 C 2,2 C 12,8 C 54 % 95 % 1020,7 hPa 0,0 l/m 0,0 km/h (0 Bft) N 0 0 min 0,000 mm 0,0 UV-I 0 W/m 4,5 C 5,2 C 0,0 km/h (0 Bft) 95,65 %
17.10.2018 07:34 23,6 C 5,2 C 2,2 C 12,8 C 54 % 95 % 1020,7 hPa 0,0 l/m 0,0 km/h (0 Bft) N 0 0 min 0,000 mm 0,0 UV-I 0 W/m 4,5 C 5,2 C 0,0 km/h (0 Bft) 91,30 %
17.10.2018 07:33 23,6 C 5,2 C 2,2 C 12,8 C 54 % 95 % 1020,7 hPa 0,0 l/m 0,0 km/h (0 Bft) N 0 0 min 0,000 mm 0,0 UV-I 0 W/m 4,5 C 5,2 C 0,0 km/h (0 Bft) 100,00 %
17.10.2018 07:32 23,6 C 5,2 C 2,2 C 12,8 C 54 % 95 % 1020,7 hPa 0,0 l/m 0,0 km/h (0 Bft) N 0 0 min 0,000 mm 0,0 UV-I 0 W/m 4,5 C 5,2 C 0,0 km/h (0 Bft) 91,30 %
17.10.2018 07:31 23,6 C 5,2 C 2,2 C 12,8 C 54 % 95 % 1020,7 hPa 0,0 l/m 0,0 km/h (0 Bft) N 0 0 min 0,000 mm 0,0 UV-I 0 W/m 4,5 C 5,2 C 0,0 km/h (0 Bft) 91,30 %
17.10.2018 07:30 23,6 C 5,2 C 2,2 C 12,8 C 54 % 95 % 1020,7 hPa 0,0 l/m 0,0 km/h (0 Bft) N 0 0 min 0,000 mm 0,0 UV-I 0 W/m 4,5 C 5,2 C 0,0 km/h (0 Bft) 95,65 %
17.10.2018 07:29 23,6 C 5,2 C 2,2 C 12,8 C 54 % 95 % 1020,5 hPa 0,0 l/m 0,0 km/h (0 Bft) N 0 0 min 0,000 mm 0,0 UV-I 0 W/m 4,5 C 5,2 C 0,0 km/h (0 Bft) 91,30 %
17.10.2018 07:28 23,6 C 5,2 C 2,2 C 12,8 C 55 % 95 % 1020,5 hPa 0,0 l/m 0,0 km/h (0 Bft) N 0 0 min 0,000 mm 0,0 UV-I 0 W/m 4,5 C 5,2 C 0,0 km/h (0 Bft) 86,96 %
17.10.2018 07:27 23,6 C 5,2 C 2,2 C 12,8 C 54 % 95 % 1020,5 hPa 0,0 l/m 0,0 km/h (0 Bft) N 0 0 min 0,000 mm 0,0 UV-I 0 W/m 4,5 C 5,2 C 0,0 km/h (0 Bft) 100,00 %
17.10.2018 07:26 23,6 C 5,2 C 2,2 C 12,8 C 54 % 95 % 1020,5 hPa 0,0 l/m 0,0 km/h (0 Bft) N 0 0 min 0,000 mm 0,0 UV-I 0 W/m 4,5 C 5,2 C 0,0 km/h (0 Bft) 91,30 %
17.10.2018 07:25 23,6 C 5,1 C 2,2 C 12,8 C 54 % 95 % 1020,5 hPa 0,0 l/m 0,0 km/h (0 Bft) N 0 0 min 0,000 mm 0,0 UV-I 0 W/m 4,4 C 5,1 C 0,0 km/h (0 Bft) 91,30 %
17.10.2018 07:24 23,6 C 5,1 C 2,2 C 12,8 C 54 % 95 % 1020,5 hPa 0,0 l/m 0,0 km/h (0 Bft) N 0 0 min 0,000 mm 0,0 UV-I 0 W/m 4,4 C 5,1 C 0,0 km/h (0 Bft) 95,65 %
17.10.2018 07:23 23,6 C 5,1 C 2,2 C 12,8 C 54 % 95 % 1020,5 hPa 0,0 l/m 0,0 km/h (0 Bft) N 0 0 min 0,000 mm 0,0 UV-I 0 W/m 4,4 C 5,1 C 0,0 km/h (0 Bft) 91,30 %
17.10.2018 07:22 23,6 C 5,1 C 2,2 C 12,8 C 54 % 95 % 1020,5 hPa 0,0 l/m 0,0 km/h (0 Bft) N 0 0 min 0,000 mm 0,0 UV-I 0 W/m 4,4 C 5,1 C 0,0 km/h (0 Bft) 91,30 %
17.10.2018 07:21 23,6 C 5,2 C 2,2 C 12,8 C 54 % 95 % 1020,5 hPa 0,0 l/m 0,0 km/h (0 Bft) N 0 0 min 0,000 mm 0,0 UV-I 0 W/m 4,5 C 5,2 C 0,0 km/h (0 Bft) 91,30 %
17.10.2018 07:20 23,6 C 5,2 C 2,2 C 12,8 C 53 % 95 % 1020,5 hPa 0,0 l/m 0,0 km/h (0 Bft) N 0 0 min 0,000 mm 0,0 UV-I 0 W/m 4,5 C 5,2 C 0,0 km/h (0 Bft) 95,65 %
17.10.2018 07:19 23,7 C 5,2 C 2,2 C 12,8 C 53 % 95 % 1020,5 hPa 0,0 l/m 0,0 km/h (0 Bft) N 0 0 min 0,000 mm 0,0 UV-I 0 W/m 4,5 C 5,2 C 0,0 km/h (0 Bft) 91,30 %
17.10.2018 07:18 23,7 C 5,2 C 2,2 C 12,8 C 53 % 95 % 1020,5 hPa 0,0 l/m 0,0 km/h (0 Bft) N 0 0 min 0,000 mm 0,0 UV-I 0 W/m 4,5 C 5,2 C 0,0 km/h (0 Bft) 100,00 %
17.10.2018 07:17 23,8 C 5,2 C 2,2 C 12,8 C 53 % 95 % 1020,5 hPa 0,0 l/m 0,0 km/h (0 Bft) N 0 0 min 0,000 mm 0,0 UV-I 0 W/m 4,5 C 5,2 C 0,0 km/h (0 Bft) 86,96 %
17.10.2018 07:16 23,8 C 5,2 C 2,2 C 12,8 C 52 % 95 % 1020,5 hPa 0,0 l/m 0,0 km/h (0 Bft) N 0 0 min 0,000 mm 0,0 UV-I 0 W/m 4,5 C 5,2 C 0,0 km/h (0 Bft) 95,65 %
17.10.2018 07:15 23,8 C 5,2 C 2,2 C 12,8 C 52 % 95 % 1020,5 hPa 0,0 l/m 0,0 km/h (0 Bft) N 0 0 min 0,000 mm 0,0 UV-I 0 W/m 4,5 C 5,2 C 0,0 km/h (0 Bft) 95,65 %
17.10.2018 07:14 23,9 C 5,2 C 2,2 C 12,8 C 53 % 95 % 1020,5 hPa 0,0 l/m 0,0 km/h (0 Bft) N 0 0 min 0,000 mm 0,0 UV-I 0 W/m 4,5 C 5,2 C 0,0 km/h (0 Bft) 91,30 %
17.10.2018 07:13 23,9 C 5,3 C 2,2 C 12,8 C 53 % 95 % 1020,5 hPa 0,0 l/m 0,0 km/h (0 Bft) N 0 0 min 0,000 mm 0,0 UV-I 0 W/m 4,6 C 5,3 C 0,0 km/h (0 Bft) 86,96 %
17.10.2018 07:12 24,1 C 5,3 C 2,2 C 12,8 C 54 % 95 % 1020,5 hPa 0,0 l/m 0,0 km/h (0 Bft) N 0 0 min 0,000 mm 0,0 UV-I 0 W/m 4,6 C 5,3 C 0,0 km/h (0 Bft) 100,00 %
17.10.2018 07:11 24,1 C 5,3 C 2,2 C 12,8 C 55 % 95 % 1020,5 hPa 0,0 l/m 0,0 km/h (0 Bft) N 0 0 min 0,000 mm 0,0 UV-I 0 W/m 4,6 C 5,3 C 0,0 km/h (0 Bft) 86,96 %
17.10.2018 07:10 24,1 C 5,3 C 2,2 C 12,8 C 55 % 95 % 1020,5 hPa 0,0 l/m 0,0 km/h (0 Bft) N 0 0 min 0,000 mm 0,0 UV-I 0 W/m 4,6 C 5,3 C 0,0 km/h (0 Bft) 95,65 %
17.10.2018 07:09 24,1 C 5,3 C 2,2 C 12,8 C 56 % 95 % 1020,5 hPa 0,0 l/m 0,0 km/h (0 Bft) N 0 0 min 0,000 mm 0,0 UV-I 0 W/m 4,6 C 5,3 C 0,0 km/h (0 Bft) 91,30 %
17.10.2018 07:08 24,1 C 5,3 C 2,2 C 12,8 C 55 % 95 % 1020,5 hPa 0,0 l/m 0,0 km/h (0 Bft) N 0 0 min 0,000 mm 0,0 UV-I 0 W/m 4,6 C 5,3 C 0,0 km/h (0 Bft) 100,00 %
17.10.2018 07:07 24,1 C 5,3 C 2,2 C 12,8 C 55 % 95 % 1020,5 hPa 0,0 l/m 0,0 km/h (0 Bft) N 0 0 min 0,000 mm 0,0 UV-I 0 W/m 4,6 C 5,3 C 0,0 km/h (0 Bft) 86,96 %
17.10.2018 07:06 24,1 C 5,3 C 2,2 C 12,8 C 55 % 95 % 1020,5 hPa 0,0 l/m 0,0 km/h (0 Bft) N 0 0 min 0,000 mm 0,0 UV-I 0 W/m 4,6 C 5,3 C 0,0 km/h (0 Bft) 91,30 %
17.10.2018 07:05 24,1 C 5,3 C 2,2 C 12,8 C 55 % 95 % 1020,5 hPa 0,0 l/m 0,0 km/h (0 Bft) N 0 0 min 0,000 mm 0,0 UV-I 0 W/m 4,6 C 5,3 C 0,0 km/h (0 Bft) 100,00 %
17.10.2018 07:04 24,1 C 5,3 C 2,2 C 12,8 C 55 % 95 % 1020,5 hPa 0,0 l/m 0,0 km/h (0 Bft) N 0 0 min 0,000 mm 0,0 UV-I 0 W/m 4,6 C 5,3 C 0,0 km/h (0 Bft) 91,30 %
17.10.2018 07:03 24,1 C 5,3 C 2,2 C 12,8 C 55 % 95 % 1020,5 hPa 0,0 l/m 0,0 km/h (0 Bft) N 0 0 min 0,000 mm 0,0 UV-I 0 W/m 4,6 C 5,3 C 0,0 km/h (0 Bft) 95,65 %
17.10.2018 07:02 24,1 C 5,3 C 2,2 C 12,8 C 55 % 95 % 1020,5 hPa 0,0 l/m 0,0 km/h (0 Bft) N 0 0 min 0,000 mm 0,0 UV-I 0 W/m 4,6 C 5,3 C 0,0 km/h (0 Bft) 91,30 %
17.10.2018 07:01 24,1 C 5,4 C 2,2 C 12,8 C 55 % 95 % 1020,5 hPa 0,0 l/m 0,0 km/h (0 Bft) N 0 0 min 0,000 mm 0,0 UV-I 0 W/m 4,7 C 5,4 C 0,0 km/h (0 Bft) 95,65 %
17.10.2018 07:00 24,1 C 5,4 C 2,2 C 12,8 C 55 % 95 % 1020,5 hPa 0,0 l/m 0,0 km/h (0 Bft) N 0 0 min 0,000 mm 0,0 UV-I 0 W/m 4,7 C 5,4 C 0,0 km/h (0 Bft) 86,96 %
17.10.2018 06:59 24,1 C 5,4 C 2,2 C 12,8 C 55 % 95 % 1020,5 hPa 0,0 l/m 0,0 km/h (0 Bft) N 0 0 min 0,000 mm 0,0 UV-I 0 W/m 4,7 C 5,4 C 0,0 km/h (0 Bft) 95,65 %
17.10.2018 06:58 24,1 C 5,5 C 2,2 C 12,8 C 55 % 95 % 1020,5 hPa 0,0 l/m 0,0 km/h (0 Bft) N 0 0 min 0,000 mm 0,0 UV-I 0 W/m 4,8 C 5,5 C 0,0 km/h (0 Bft) 91,30 %
17.10.2018 06:57 24,1 C 5,5 C 2,2 C 12,8 C 55 % 95 % 1020,5 hPa 0,0 l/m 0,0 km/h (0 Bft) N 0 0 min 0,000 mm 0,0 UV-I 0 W/m 4,8 C 5,5 C 0,0 km/h (0 Bft) 95,65 %
17.10.2018 06:56 24,1 C 5,5 C 2,2 C 12,8 C 55 % 95 % 1020,5 hPa 0,0 l/m 0,0 km/h (0 Bft) N 0 0 min 0,000 mm 0,0 UV-I 0 W/m 4,8 C 5,5 C 0,0 km/h (0 Bft) 91,30 %
17.10.2018 06:55 24,2 C 5,5 C 2,2 C 12,8 C 55 % 95 % 1020,5 hPa 0,0 l/m 0,0 km/h (0 Bft) N 0 0 min 0,000 mm 0,0 UV-I 0 W/m 4,8 C 5,5 C 0,0 km/h (0 Bft) 95,65 %
17.10.2018 06:54 24,2 C 5,5 C 2,2 C 12,8 C 55 % 95 % 1020,5 hPa 0,0 l/m 0,0 km/h (0 Bft) N 0 0 min 0,000 mm 0,0 UV-I 0 W/m 4,8 C 5,5 C 0,0 km/h (0 Bft) 86,96 %
17.10.2018 06:53 24,2 C 5,5 C 2,2 C 12,8 C 55 % 95 % 1020,5 hPa 0,0 l/m 0,0 km/h (0 Bft) N 0 0 min 0,000 mm 0,0 UV-I 0 W/m 4,8 C 5,5 C 0,0 km/h (0 Bft) 100,00 %
17.10.2018 06:52 24,2 C 5,6 C 2,2 C 12,8 C 55 % 95 % 1020,5 hPa 0,0 l/m 0,0 km/h (0 Bft) N 0 0 min 0,000 mm 0,0 UV-I 0 W/m 4,9 C 5,6 C 0,0 km/h (0 Bft) 86,96 %
17.10.2018 06:51 24,2 C 5,6 C 2,2 C 12,8 C 55 % 95 % 1020,5 hPa 0,0 l/m 0,0 km/h (0 Bft) N 0 0 min 0,000 mm 0,0 UV-I 0 W/m 4,9 C 5,6 C 0,0 km/h (0 Bft) 91,30 %
17.10.2018 06:50 24,2 C 5,6 C 2,8 C 12,8 C 55 % 95 % 1020,5 hPa 0,0 l/m 0,0 km/h (0 Bft) N 0 0 min 0,000 mm 0,0 UV-I 0 W/m 4,9 C 5,6 C 0,0 km/h (0 Bft) 95,65 %
17.10.2018 06:49 24,2 C 5,6 C 2,2 C 12,8 C 55 % 95 % 1020,5 hPa 0,0 l/m 0,0 km/h (0 Bft) N 0 0 min 0,000 mm 0,0 UV-I 0 W/m 4,9 C 5,6 C 0,0 km/h (0 Bft) 86,96 %
17.10.2018 06:48 24,2 C 5,6 C 2,2 C 12,8 C 55 % 95 % 1020,5 hPa 0,0 l/m 0,0 km/h (0 Bft) N 0 0 min 0,000 mm 0,0 UV-I 0 W/m 4,9 C 5,6 C 0,0 km/h (0 Bft) 86,96 %
17.10.2018 06:47 24,2 C 5,6 C 2,2 C 12,8 C 55 % 95 % 1020,5 hPa 0,0 l/m 0,0 km/h (0 Bft) N 0 0 min 0,000 mm 0,0 UV-I 0 W/m 4,9 C 5,6 C 0,0 km/h (0 Bft) 95,65 %
17.10.2018 06:46 24,2 C 5,7 C 2,2 C 12,8 C 55 % 95 % 1020,5 hPa 0,0 l/m 0,0 km/h (0 Bft) N 0 0 min 0,000 mm 0,0 UV-I 0 W/m 5,0 C 5,7 C 0,0 km/h (0 Bft) 91,30 %
17.10.2018 06:45 24,2 C 5,7 C 2,8 C 12,8 C 55 % 95 % 1020,5 hPa 0,0 l/m 0,0 km/h (0 Bft) N 0 0 min 0,000 mm 0,0 UV-I 0 W/m 5,0 C 5,7 C 0,0 km/h (0 Bft) 86,96 %
17.10.2018 06:44 24,2 C 5,7 C 2,8 C 12,8 C 55 % 95 % 1020,5 hPa 0,0 l/m 0,0 km/h (0 Bft) N 0 0 min 0,000 mm 0,0 UV-I 0 W/m 5,0 C 5,7 C 0,0 km/h (0 Bft) 95,65 %
17.10.2018 06:43 24,2 C 5,7 C 2,8 C 12,8 C 55 % 95 % 1020,5 hPa 0,0 l/m 0,0 km/h (0 Bft) N 0 0 min 0,000 mm 0,0 UV-I 0 W/m 5,0 C 5,7 C 0,0 km/h (0 Bft) 86,96 %
17.10.2018 06:42 24,2 C 5,7 C 2,8 C 12,8 C 55 % 95 % 1020,5 hPa 0,0 l/m 0,0 km/h (0 Bft) N 0 0 min 0,000 mm 0,0 UV-I 0 W/m 5,0 C 5,7 C 0,0 km/h (0 Bft) 95,65 %
17.10.2018 06:41 24,2 C 5,7 C 2,8 C 12,8 C 55 % 95 % 1020,5 hPa 0,0 l/m 0,0 km/h (0 Bft) N 0 0 min 0,000 mm 0,0 UV-I 0 W/m 5,0 C 5,7 C 0,0 km/h (0 Bft) 91,30 %
17.10.2018 06:40 24,2 C 5,8 C 2,8 C 12,8 C 55 % 95 % 1020,5 hPa 0,0 l/m 0,0 km/h (0 Bft) N 0 0 min 0,000 mm 0,0 UV-I 0 W/m 5,1 C 5,8 C 0,0 km/h (0 Bft) 91,30 %
17.10.2018 06:39 24,2 C 5,8 C 2,8 C 12,8 C 55 % 95 % 1020,5 hPa 0,0 l/m 0,0 km/h (0 Bft) N 0 0 min 0,000 mm 0,0 UV-I 0 W/m 5,1 C 5,8 C 0,0 km/h (0 Bft) 86,96 %
17.10.2018 06:38 24,2 C 5,8 C 2,8 C 12,8 C 55 % 95 % 1020,5 hPa 0,0 l/m 0,0 km/h (0 Bft) N 0 0 min 0,000 mm 0,0 UV-I 0 W/m 5,1 C 5,8 C 0,0 km/h (0 Bft) 95,65 %
17.10.2018 06:37 24,2 C 5,8 C 2,8 C 12,8 C 55 % 95 % 1020,5 hPa 0,0 l/m 0,0 km/h (0 Bft) N 0 0 min 0,000 mm 0,0 UV-I 0 W/m 5,1 C 5,8 C 0,0 km/h (0 Bft) 82,61 %
17.10.2018 06:36 24,2 C 5,8 C 2,8 C 12,8 C 55 % 95 % 1020,5 hPa 0,0 l/m 0,0 km/h (0 Bft) N 0 0 min 0,000 mm 0,0 UV-I 0 W/m 5,1 C 5,8 C 0,0 km/h (0 Bft) 95,65 %
17.10.2018 06:35 24,2 C 5,8 C 2,8 C 12,8 C 55 % 95 % 1020,5 hPa 0,0 l/m 0,0 km/h (0 Bft) N 0 0 min 0,000 mm 0,0 UV-I 0 W/m 5,1 C 5,8 C 0,0 km/h (0 Bft) 91,30 %
17.10.2018 06:34 24,2 C 5,8 C 2,8 C 12,8 C 55 % 95 % 1020,5 hPa 0,0 l/m 0,0 km/h (0 Bft) N 0 0 min 0,000 mm 0,0 UV-I 0 W/m 5,1 C 5,8 C 0,0 km/h (0 Bft) 86,96 %
17.10.2018 06:33 24,2 C 5,9 C 2,8 C 12,8 C 55 % 95 % 1020,5 hPa 0,0 l/m 0,0 km/h (0 Bft) N 0 0 min 0,000 mm 0,0 UV-I 0 W/m 5,2 C 5,9 C 0,0 km/h (0 Bft) 91,30 %
17.10.2018 06:32 24,2 C 5,9 C 2,8 C 12,8 C 55 % 95 % 1020,5 hPa 0,0 l/m 0,0 km/h (0 Bft) N 0 0 min 0,000 mm 0,0 UV-I 0 W/m 5,2 C 5,9 C 0,0 km/h (0 Bft) 91,30 %
17.10.2018 06:31 24,2 C 5,9 C 2,8 C 12,8 C 55 % 95 % 1020,5 hPa 0,0 l/m 0,0 km/h (0 Bft) N 0 0 min 0,000 mm 0,0 UV-I 0 W/m 5,2 C 5,9 C 0,0 km/h (0 Bft) 91,30 %
17.10.2018 06:30 24,2 C 5,9 C 2,8 C 12,8 C 55 % 95 % 1020,5 hPa 0,0 l/m 0,0 km/h (0 Bft) N 0 0 min 0,000 mm 0,0 UV-I 0 W/m 5,2 C 5,9 C 0,0 km/h (0 Bft) 86,96 %
17.10.2018 06:29 24,2 C 5,9 C 2,8 C 12,8 C 55 % 95 % 1020,6 hPa 0,0 l/m 0,0 km/h (0 Bft) N 0 0 min 0,000 mm 0,0 UV-I 0 W/m 5,2 C 5,9 C 0,0 km/h (0 Bft) 95,65 %
17.10.2018 06:28 24,2 C 5,9 C 2,8 C 12,8 C 55 % 95 % 1020,6 hPa 0,0 l/m 0,0 km/h (0 Bft) N 0 0 min 0,000 mm 0,0 UV-I 0 W/m 5,2 C 5,9 C 0,0 km/h (0 Bft) 86,96 %
17.10.2018 06:27 24,2 C 5,9 C 2,8 C 12,8 C 55 % 95 % 1020,6 hPa 0,0 l/m 0,0 km/h (0 Bft) N 0 0 min 0,000 mm 0,0 UV-I 0 W/m 5,2 C 5,9 C 0,0 km/h (0 Bft) 91,30 %
17.10.2018 06:26 24,2 C 5,9 C 2,8 C 12,8 C 55 % 95 % 1020,6 hPa 0,0 l/m 0,0 km/h (0 Bft) N 0 0 min 0,000 mm 0,0 UV-I 0 W/m 5,2 C 5,9 C 0,0 km/h (0 Bft) 95,65 %
17.10.2018 06:25 24,2 C 5,8 C 2,8 C 12,8 C 55 % 95 % 1020,6 hPa 0,0 l/m 0,0 km/h (0 Bft) N 0 0 min 0,000 mm 0,0 UV-I 0 W/m 5,1 C 5,8 C 0,0 km/h (0 Bft) 95,65 %
17.10.2018 06:24 24,2 C 5,8 C 2,8 C 12,8 C 55 % 95 % 1020,6 hPa 0,0 l/m 0,0 km/h (0 Bft) N 0 0 min 0,000 mm 0,0 UV-I 0 W/m 5,1 C 5,8 C 0,0 km/h (0 Bft) 91,30 %
17.10.2018 06:23 24,2 C 5,8 C 2,8 C 12,8 C 55 % 95 % 1020,6 hPa 0,0 l/m 0,0 km/h (0 Bft) N 0 0 min 0,000 mm 0,0 UV-I 0 W/m 5,1 C 5,8 C 0,0 km/h (0 Bft) 95,65 %
17.10.2018 06:22 24,2 C 5,8 C 2,8 C 12,8 C 55 % 95 % 1020,6 hPa 0,0 l/m 0,0 km/h (0 Bft) N 0 0 min 0,000 mm 0,0 UV-I 0 W/m 5,1 C 5,8 C 0,0 km/h (0 Bft) 95,65 %
17.10.2018 06:21 24,2 C 5,8 C 3,3 C 12,8 C 55 % 94 % 1020,6 hPa 0,0 l/m 0,0 km/h (0 Bft) N 0 0 min 0,000 mm 0,0 UV-I 0 W/m 4,9 C 5,8 C 0,0 km/h (0 Bft) 91,30 %
17.10.2018 06:20 24,2 C 5,8 C 3,3 C 12,8 C 55 % 94 % 1020,6 hPa 0,0 l/m 0,0 km/h (0 Bft) N 0 0 min 0,000 mm 0,0 UV-I 0 W/m 4,9 C 5,8 C 0,0 km/h (0 Bft) 91,30 %
17.10.2018 06:19 24,2 C 5,8 C 3,3 C 12,8 C 55 % 94 % 1020,6 hPa 0,0 l/m 0,0 km/h (0 Bft) N 0 0 min 0,000 mm 0,0 UV-I 0 W/m 4,9 C 5,8 C 0,0 km/h (0 Bft) 91,30 %
17.10.2018 06:18 24,2 C 5,9 C 3,3 C 12,8 C 55 % 95 % 1020,6 hPa 0,0 l/m 0,0 km/h (0 Bft) N 0 0 min 0,000 mm 0,0 UV-I 0 W/m 5,2 C 5,9 C 0,0 km/h (0 Bft) 95,65 %
17.10.2018 06:17 24,2 C 5,9 C 3,3 C 12,8 C 55 % 95 % 1020,6 hPa 0,0 l/m 0,0 km/h (0 Bft) N 0 0 min 0,000 mm 0,0 UV-I 0 W/m 5,2 C 5,9 C 0,0 km/h (0 Bft) 95,65 %
17.10.2018 06:16 24,1 C 6,0 C 3,3 C 12,8 C 55 % 95 % 1020,6 hPa 0,0 l/m 0,0 km/h (0 Bft) N 0 0 min 0,000 mm 0,0 UV-I 0 W/m 5,3 C 6,0 C 0,0 km/h (0 Bft) 95,65 %
17.10.2018 06:15 24,1 C 6,1 C 3,3 C 12,8 C 55 % 95 % 1020,6 hPa 0,0 l/m 0,0 km/h (0 Bft) N 0 0 min 0,000 mm 0,0 UV-I 0 W/m 5,4 C 6,1 C 0,0 km/h (0 Bft) 91,30 %
17.10.2018 06:14 24,1 C 6,1 C 3,3 C 12,8 C 55 % 95 % 1020,3 hPa 0,0 l/m 0,0 km/h (0 Bft) N 0 0 min 0,000 mm 0,0 UV-I 0 W/m 5,4 C 6,1 C 0,0 km/h (0 Bft) 95,65 %
17.10.2018 06:13 24,1 C 6,1 C 3,3 C 12,8 C 55 % 95 % 1020,3 hPa 0,0 l/m 0,0 km/h (0 Bft) N 0 0 min 0,000 mm 0,0 UV-I 0 W/m 5,4 C 6,1 C 0,0 km/h (0 Bft) 100,00 %
17.10.2018 06:12 24,1 C 6,1 C 3,3 C 12,8 C 55 % 95 % 1020,3 hPa 0,0 l/m 0,0 km/h (0 Bft) N 0 0 min 0,000 mm 0,0 UV-I 0 W/m 5,4 C 6,1 C 0,0 km/h (0 Bft) 95,65 %
17.10.2018 06:11 24,1 C 6,0 C 3,3 C 12,8 C 56 % 95 % 1020,3 hPa 0,0 l/m 0,0 km/h (0 Bft) N 0 0 min 0,000 mm 0,0 UV-I 0 W/m 5,3 C 6,0 C 0,0 km/h (0 Bft) 86,96 %
17.10.2018 06:10 24,1 C 6,0 C 3,3 C 12,8 C 55 % 95 % 1020,3 hPa 0,0 l/m 0,0 km/h (0 Bft) N 0 0 min 0,000 mm 0,0 UV-I 0 W/m 5,3 C 6,0 C 0,0 km/h (0 Bft) 100,00 %
17.10.2018 06:09 24,1 C 5,9 C 3,3 C 12,8 C 55 % 95 % 1020,3 hPa 0,0 l/m 0,0 km/h (0 Bft) N 0 0 min 0,000 mm 0,0 UV-I 0 W/m 5,2 C 5,9 C 0,0 km/h (0 Bft) 95,65 %
17.10.2018 06:08 24,1 C 5,9 C 3,3 C 12,8 C 55 % 95 % 1020,3 hPa 0,0 l/m 0,0 km/h (0 Bft) N 0 0 min 0,000 mm 0,0 UV-I 0 W/m 5,2 C 5,9 C 0,0 km/h (0 Bft) 86,96 %
17.10.2018 06:07 24,1 C 5,9 C 3,3 C 12,8 C 55 % 95 % 1020,3 hPa 0,0 l/m 0,0 km/h (0 Bft) N 0 0 min 0,000 mm 0,0 UV-I 0 W/m 5,2 C 5,9 C 0,0 km/h (0 Bft) 95,65 %
17.10.2018 06:06 24,1 C 5,9 C 3,3 C 12,8 C 55 % 95 % 1020,3 hPa 0,0 l/m 0,0 km/h (0 Bft) N 0 0 min 0,000 mm 0,0 UV-I 0 W/m 5,2 C 5,9 C 0,0 km/h (0 Bft) 95,65 %
17.10.2018 06:05 24,1 C 5,9 C 3,3 C 12,8 C 55 % 95 % 1020,3 hPa 0,0 l/m 0,0 km/h (0 Bft) N 0 0 min 0,000 mm 0,0 UV-I 0 W/m 5,2 C 5,9 C 0,0 km/h (0 Bft) 95,65 %
17.10.2018 06:04 24,1 C 5,9 C 3,3 C 12,8 C 55 % 95 % 1020,3 hPa 0,0 l/m 0,0 km/h (0 Bft) N 0 0 min 0,000 mm 0,0 UV-I 0 W/m 5,2 C 5,9 C 0,0 km/h (0 Bft) 95,65 %
17.10.2018 06:03 24,1 C 5,9 C 3,3 C 12,8 C 55 % 95 % 1020,3 hPa 0,0 l/m 0,0 km/h (0 Bft) N 0 0 min 0,000 mm 0,0 UV-I 0 W/m 5,2 C 5,9 C 0,0 km/h (0 Bft) 95,65 %
17.10.2018 06:02 24,1 C 6,0 C 3,3 C 12,8 C 55 % 95 % 1020,3 hPa 0,0 l/m 0,0 km/h (0 Bft) N 0 0 min 0,000 mm 0,0 UV-I 0 W/m 5,3 C 6,0 C 0,0 km/h (0 Bft) 95,65 %
17.10.2018 06:01 24,1 C 6,0 C 3,3 C 12,8 C 55 % 95 % 1020,3 hPa 0,0 l/m 0,0 km/h (0 Bft) N 0 0 min 0,000 mm 0,0 UV-I 0 W/m 5,3 C 6,0 C 0,0 km/h (0 Bft) 95,65 %
17.10.2018 06:00 24,1 C 6,0 C 3,3 C 12,8 C 55 % 95 % 1020,3 hPa 0,0 l/m 0,0 km/h (0 Bft) N 0 0 min 0,000 mm 0,0 UV-I 0 W/m 5,3 C 6,0 C 0,0 km/h (0 Bft) 91,30 %
17.10.2018 05:59 24,1 C 6,1 C 3,3 C 12,8 C 55 % 95 % 1020,1 hPa 0,0 l/m 0,0 km/h (0 Bft) N 0 0 min 0,000 mm 0,0 UV-I 0 W/m 5,4 C 6,1 C 0,0 km/h (0 Bft) 91,30 %
17.10.2018 05:58 24,1 C 6,1 C 3,3 C 12,8 C 55 % 95 % 1020,1 hPa 0,0 l/m 0,0 km/h (0 Bft) N 0 0 min 0,000 mm 0,0 UV-I 0 W/m 5,4 C 6,1 C 0,0 km/h (0 Bft) 100,00 %
17.10.2018 05:57 24,1 C 6,1 C 3,3 C 12,8 C 55 % 95 % 1020,1 hPa 0,0 l/m 0,0 km/h (0 Bft) N 0 0 min 0,000 mm 0,0 UV-I 0 W/m 5,4 C 6,1 C 0,0 km/h (0 Bft) 95,65 %
17.10.2018 05:56 24,1 C 6,0 C 3,3 C 12,8 C 55 % 95 % 1020,1 hPa 0,0 l/m 0,0 km/h (0 Bft) N 0 0 min 0,000 mm 0,0 UV-I 0 W/m 5,3 C 6,0 C 0,0 km/h (0 Bft) 91,30 %
17.10.2018 05:55 24,1 C 6,0 C 3,3 C 12,8 C 55 % 95 % 1020,1 hPa 0,0 l/m 0,0 km/h (0 Bft) N 0 0 min 0,000 mm 0,0 UV-I 0 W/m 5,3 C 6,0 C 0,0 km/h (0 Bft) 100,00 %
17.10.2018 05:54 24,1 C 5,9 C 2,8 C 12,8 C 55 % 95 % 1020,1 hPa 0,0 l/m 0,0 km/h (0 Bft) N 0 0 min 0,000 mm 0,0 UV-I 0 W/m 5,2 C 5,9 C 0,0 km/h (0 Bft) 95,65 %
17.10.2018 05:53 24,1 C 5,9 C 2,8 C 12,8 C 55 % 95 % 1020,1 hPa 0,0 l/m 0,0 km/h (0 Bft) N 0 0 min 0,000 mm 0,0 UV-I 0 W/m 5,2 C 5,9 C 0,0 km/h (0 Bft) 95,65 %
17.10.2018 05:52 24,1 C 5,9 C 2,8 C 12,8 C 55 % 95 % 1020,1 hPa 0,0 l/m 0,0 km/h (0 Bft) N 0 0 min 0,000 mm 0,0 UV-I 0 W/m 5,2 C 5,9 C 0,0 km/h (0 Bft) 100,00 %
17.10.2018 05:51 24,1 C 5,9 C 2,8 C 12,8 C 56 % 95 % 1020,1 hPa 0,0 l/m 0,0 km/h (0 Bft) N 0 0 min 0,000 mm 0,0 UV-I 0 W/m 5,2 C 5,9 C 0,0 km/h (0 Bft) 91,30 %
17.10.2018 05:50 24,1 C 5,9 C 2,8 C 12,8 C 55 % 95 % 1020,1 hPa 0,0 l/m 0,0 km/h (0 Bft) N 0 0 min 0,000 mm 0,0 UV-I 0 W/m 5,2 C 5,9 C 0,0 km/h (0 Bft) 91,30 %
17.10.2018 05:49 24,1 C 5,9 C 2,8 C 12,8 C 55 % 95 % 1020,1 hPa 0,0 l/m 0,0 km/h (0 Bft) N 0 0 min 0,000 mm 0,0 UV-I 0 W/m 5,2 C 5,9 C 0,0 km/h (0 Bft) 95,65 %
17.10.2018 05:48 24,1 C 5,9 C 2,8 C 12,8 C 55 % 95 % 1020,1 hPa 0,0 l/m 0,0 km/h (0 Bft) N 0 0 min 0,000 mm 0,0 UV-I 0 W/m 5,2 C 5,9 C 0,0 km/h (0 Bft) 95,65 %
17.10.2018 05:47 24,1 C 5,9 C 2,8 C 12,8 C 55 % 95 % 1020,1 hPa 0,0 l/m 0,0 km/h (0 Bft) N 0 0 min 0,000 mm 0,0 UV-I 0 W/m 5,2 C 5,9 C 0,0 km/h (0 Bft) 95,65 %
17.10.2018 05:46 24,1 C 5,9 C 2,8 C 12,8 C 55 % 95 % 1020,1 hPa 0,0 l/m 0,0 km/h (0 Bft) N 0 0 min 0,000 mm 0,0 UV-I 0 W/m 5,2 C 5,9 C 0,0 km/h (0 Bft) 100,00 %
17.10.2018 05:45 24,1 C 5,9 C 2,8 C 12,8 C 55 % 95 % 1020,1 hPa 0,0 l/m 0,0 km/h (0 Bft) N 0 0 min 0,000 mm 0,0 UV-I 0 W/m 5,2 C 5,9 C 0,0 km/h (0 Bft) 91,30 %
17.10.2018 05:44 24,1 C 5,9 C 2,8 C 12,8 C 55 % 95 % 1020,1 hPa 0,0 l/m 0,0 km/h (0 Bft) N 0 0 min 0,000 mm 0,0 UV-I 0 W/m 5,2 C 5,9 C 0,0 km/h (0 Bft) 95,65 %
17.10.2018 05:43 24,1 C 5,9 C 2,8 C 12,8 C 55 % 94 % 1020,1 hPa 0,0 l/m 0,0 km/h (0 Bft) N 0 0 min 0,000 mm 0,0 UV-I 0 W/m 5,0 C 5,9 C 0,0 km/h (0 Bft) 100,00 %
17.10.2018 05:42 24,1 C 5,9 C 2,8 C 12,8 C 55 % 94 % 1020,1 hPa 0,0 l/m 0,0 km/h (0 Bft) N 0 0 min 0,000 mm 0,0 UV-I 0 W/m 5,0 C 5,9 C 0,0 km/h (0 Bft) 91,30 %
17.10.2018 05:41 24,1 C 5,9 C 2,8 C 12,8 C 55 % 94 % 1020,1 hPa 0,0 l/m 0,0 km/h (0 Bft) N 0 0 min 0,000 mm 0,0 UV-I 0 W/m 5,0 C 5,9 C 0,0 km/h (0 Bft) 95,65 %
17.10.2018 05:40 24,1 C 5,9 C 2,8 C 12,8 C 55 % 94 % 1020,1 hPa 0,0 l/m 0,0 km/h (0 Bft) N 0 0 min 0,000 mm 0,0 UV-I 0 W/m 5,0 C 5,9 C 0,0 km/h (0 Bft) 100,00 %
17.10.2018 05:39 24,1 C 5,9 C 2,8 C 12,8 C 55 % 94 % 1020,1 hPa 0,0 l/m 0,0 km/h (0 Bft) N 0 0 min 0,000 mm 0,0 UV-I 0 W/m 5,0 C 5,9 C 0,0 km/h (0 Bft) 95,65 %
17.10.2018 05:38 24,1 C 5,9 C 2,8 C 12,8 C 55 % 95 % 1020,1 hPa 0,0 l/m 0,0 km/h (0 Bft) N 0 0 min 0,000 mm 0,0 UV-I 0 W/m 5,2 C 5,9 C 0,0 km/h (0 Bft) 95,65 %
17.10.2018 05:37 24,1 C 6,0 C 2,8 C 12,8 C 55 % 95 % 1020,1 hPa 0,0 l/m 0,0 km/h (0 Bft) N 0 0 min 0,000 mm 0,0 UV-I 0 W/m 5,3 C 6,0 C 0,0 km/h (0 Bft) 95,65 %
17.10.2018 05:36 24,1 C 6,0 C 2,8 C 12,8 C 55 % 95 % 1020,1 hPa 0,0 l/m 0,0 km/h (0 Bft) N 0 0 min 0,000 mm 0,0 UV-I 0 W/m 5,3 C 6,0 C 0,0 km/h (0 Bft) 100,00 %
17.10.2018 05:35 24,1 C 6,0 C 2,8 C 12,8 C 55 % 95 % 1020,1 hPa 0,0 l/m 0,0 km/h (0 Bft) N 0 0 min 0,000 mm 0,0 UV-I 0 W/m 5,3 C 6,0 C 0,0 km/h (0 Bft) 95,65 %
17.10.2018 05:34 24,1 C 5,9 C 2,8 C 12,8 C 55 % 95 % 1020,1 hPa 0,0 l/m 0,0 km/h (0 Bft) N 0 0 min 0,000 mm 0,0 UV-I 0 W/m 5,2 C 5,9 C 0,0 km/h (0 Bft) 86,96 %
17.10.2018 05:33 24,1 C 5,9 C 2,8 C 12,8 C 55 % 95 % 1020,1 hPa 0,0 l/m 0,0 km/h (0 Bft) N 0 0 min 0,000 mm 0,0 UV-I 0 W/m 5,2 C 5,9 C 0,0 km/h (0 Bft) 100,00 %
17.10.2018 05:32 24,1 C 5,9 C 2,8 C 12,8 C 55 % 95 % 1020,1 hPa 0,0 l/m 0,0 km/h (0 Bft) N 0 0 min 0,000 mm 0,0 UV-I 0 W/m 5,2 C 5,9 C 0,0 km/h (0 Bft) 95,65 %
17.10.2018 05:31 24,1 C 5,9 C 2,8 C 12,8 C 55 % 95 % 1020,1 hPa 0,0 l/m 0,0 km/h (0 Bft) N 0 0 min 0,000 mm 0,0 UV-I 0 W/m 5,2 C 5,9 C 0,0 km/h (0 Bft) 95,65 %
17.10.2018 05:30 24,1 C 5,9 C 2,8 C 12,8 C 55 % 95 % 1020,1 hPa 0,0 l/m 0,0 km/h (0 Bft) N 0 0 min 0,000 mm 0,0 UV-I 0 W/m 5,2 C 5,9 C 0,0 km/h (0 Bft) 95,65 %
17.10.2018 05:29 24,1 C 5,9 C 2,8 C 12,8 C 55 % 95 % 1020,0 hPa 0,0 l/m 0,0 km/h (0 Bft) N 0 0 min 0,000 mm 0,0 UV-I 0 W/m 5,2 C 5,9 C 0,0 km/h (0 Bft) 95,65 %
17.10.2018 05:28 24,1 C 5,9 C 2,8 C 12,8 C 55 % 95 % 1020,0 hPa 0,0 l/m 0,0 km/h (0 Bft) N 0 0 min 0,000 mm 0,0 UV-I 0 W/m 5,2 C 5,9 C 0,0 km/h (0 Bft) 95,65 %
17.10.2018 05:27 24,1 C 5,9 C 2,8 C 12,8 C 55 % 95 % 1020,0 hPa 0,0 l/m 0,0 km/h (0 Bft) N 0 0 min 0,000 mm 0,0 UV-I 0 W/m 5,2 C 5,9 C 0,0 km/h (0 Bft) 100,00 %
17.10.2018 05:26 24,1 C 5,9 C 2,8 C 12,8 C 55 % 95 % 1020,0 hPa 0,0 l/m 0,0 km/h (0 Bft) N 0 0 min 0,000 mm 0,0 UV-I 0 W/m 5,2 C 5,9 C 0,0 km/h (0 Bft) 91,30 %
17.10.2018 05:25 24,1 C 5,9 C 2,8 C 12,8 C 55 % 94 % 1020,0 hPa 0,0 l/m 0,0 km/h (0 Bft) N 0 0 min 0,000 mm 0,0 UV-I 0 W/m 5,0 C 5,9 C 0,0 km/h (0 Bft) 95,65 %
17.10.2018 05:24 24,1 C 5,9 C 2,8 C 12,8 C 55 % 95 % 1020,0 hPa 0,0 l/m 0,0 km/h (0 Bft) N 0 0 min 0,000 mm 0,0 UV-I 0 W/m 5,2 C 5,9 C 0,0 km/h (0 Bft) 100,00 %
17.10.2018 05:23 24,1 C 5,9 C 2,8 C 12,8 C 55 % 95 % 1020,0 hPa 0,0 l/m 0,0 km/h (0 Bft) N 0 0 min 0,000 mm 0,0 UV-I 0 W/m 5,2 C 5,9 C 0,0 km/h (0 Bft) 95,65 %
17.10.2018 05:22 24,1 C 5,9 C 3,3 C 12,8 C 55 % 95 % 1020,0 hPa 0,0 l/m 0,0 km/h (0 Bft) N 0 0 min 0,000 mm 0,0 UV-I 0 W/m 5,2 C 5,9 C 0,0 km/h (0 Bft) 91,30 %
17.10.2018 05:21 24,1 C 5,9 C 3,3 C 12,8 C 55 % 95 % 1020,0 hPa 0,0 l/m 0,0 km/h (0 Bft) N 0 0 min 0,000 mm 0,0 UV-I 0 W/m 5,2 C 5,9 C 0,0 km/h (0 Bft) 91,30 %
17.10.2018 05:20 24,1 C 5,9 C 2,8 C 12,8 C 55 % 95 % 1020,0 hPa 0,0 l/m 0,0 km/h (0 Bft) N 0 0 min 0,000 mm 0,0 UV-I 0 W/m 5,2 C 5,9 C 0,0 km/h (0 Bft) 95,65 %
17.10.2018 05:19 24,1 C 5,9 C 2,8 C 12,8 C 55 % 95 % 1020,0 hPa 0,0 l/m 0,0 km/h (0 Bft) N 0 0 min 0,000 mm 0,0 UV-I 0 W/m 5,2 C 5,9 C 0,0 km/h (0 Bft) 91,30 %
17.10.2018 05:18 24,1 C 5,9 C 3,3 C 12,8 C 55 % 95 % 1020,0 hPa 0,0 l/m 0,0 km/h (0 Bft) N 0 0 min 0,000 mm 0,0 UV-I 0 W/m 5,2 C 5,9 C 0,0 km/h (0 Bft) 95,65 %
17.10.2018 05:17 23,9 C 5,9 C 3,3 C 12,8 C 55 % 95 % 1020,0 hPa 0,0 l/m 0,0 km/h (0 Bft) N 0 0 min 0,000 mm 0,0 UV-I 0 W/m 5,2 C 5,9 C 0,0 km/h (0 Bft) 91,30 %
17.10.2018 05:16 23,9 C 5,9 C 3,3 C 12,8 C 55 % 95 % 1020,0 hPa 0,0 l/m 0,0 km/h (0 Bft) N 0 0 min 0,000 mm 0,0 UV-I 0 W/m 5,2 C 5,9 C 0,0 km/h (0 Bft) 95,65 %
17.10.2018 05:15 23,9 C 6,0 C 2,8 C 12,8 C 55 % 95 % 1020,0 hPa 0,0 l/m 0,0 km/h (0 Bft) N 0 0 min 0,000 mm 0,0 UV-I 0 W/m 5,3 C 6,0 C 0,0 km/h (0 Bft) 95,65 %
17.10.2018 05:14 23,9 C 6,1 C 2,8 C 12,8 C 55 % 95 % 1019,9 hPa 0,0 l/m 0,0 km/h (0 Bft) N 0 0 min 0,000 mm 0,0 UV-I 0 W/m 5,4 C 6,1 C 0,0 km/h (0 Bft) 86,96 %
17.10.2018 05:13 23,9 C 6,0 C 2,8 C 12,8 C 55 % 95 % 1019,9 hPa 0,0 l/m 0,0 km/h (0 Bft) N 0 0 min 0,000 mm 0,0 UV-I 0 W/m 5,3 C 6,0 C 0,0 km/h (0 Bft) 95,65 %
17.10.2018 05:12 23,9 C 6,0 C 2,8 C 12,8 C 55 % 95 % 1019,9 hPa 0,0 l/m 0,0 km/h (0 Bft) N 0 0 min 0,000 mm 0,0 UV-I 0 W/m 5,3 C 6,0 C 0,0 km/h (0 Bft) 95,65 %
17.10.2018 05:11 23,9 C 6,0 C 2,8 C 12,8 C 55 % 95 % 1019,9 hPa 0,0 l/m 0,0 km/h (0 Bft) N 0 0 min 0,000 mm 0,0 UV-I 0 W/m 5,3 C 6,0 C 0,0 km/h (0 Bft) 95,65 %
17.10.2018 05:10 23,9 C 6,0 C 2,8 C 12,8 C 55 % 95 % 1019,9 hPa 0,0 l/m 0,0 km/h (0 Bft) N 0 0 min 0,000 mm 0,0 UV-I 0 W/m 5,3 C 6,0 C 0,0 km/h (0 Bft) 86,96 %
17.10.2018 05:09 23,9 C 6,0 C 2,8 C 12,8 C 55 % 95 % 1019,9 hPa 0,0 l/m 0,0 km/h (0 Bft) N 0 0 min 0,000 mm 0,0 UV-I 0 W/m 5,3 C 6,0 C 0,0 km/h (0 Bft) 100,00 %
17.10.2018 05:08 23,9 C 6,1 C 2,8 C 12,8 C 55 % 94 % 1019,9 hPa 0,0 l/m 0,0 km/h (0 Bft) N 0 0 min 0,000 mm 0,0 UV-I 0 W/m 5,2 C 6,1 C 0,0 km/h (0 Bft) 86,96 %
17.10.2018 05:07 23,9 C 6,1 C 2,8 C 12,8 C 55 % 94 % 1019,9 hPa 0,0 l/m 0,0 km/h (0 Bft) N 0 0 min 0,000 mm 0,0 UV-I 0 W/m 5,2 C 6,1 C 0,0 km/h (0 Bft) 95,65 %
17.10.2018 05:06 23,9 C 6,1 C 2,8 C 12,8 C 55 % 94 % 1019,9 hPa 0,0 l/m 0,0 km/h (0 Bft) N 0 0 min 0,000 mm 0,0 UV-I 0 W/m 5,2 C 6,1 C 0,0 km/h (0 Bft) 91,30 %
17.10.2018 05:05 23,9 C 6,1 C 2,8 C 12,8 C 55 % 94 % 1019,9 hPa 0,0 l/m 0,0 km/h (0 Bft) N 0 0 min 0,000 mm 0,0 UV-I 0 W/m 5,2 C 6,1 C 0,0 km/h (0 Bft) 95,65 %
17.10.2018 05:04 23,9 C 6,1 C 3,3 C 12,8 C 55 % 94 % 1019,9 hPa 0,0 l/m 0,0 km/h (0 Bft) N 0 0 min 0,000 mm 0,0 UV-I 0 W/m 5,2 C 6,1 C 0,0 km/h (0 Bft) 86,96 %
17.10.2018 05:03 23,9 C 6,2 C 3,3 C 12,8 C 55 % 95 % 1019,9 hPa 0,0 l/m 0,0 km/h (0 Bft) N 0 0 min 0,000 mm 0,0 UV-I 0 W/m 5,5 C 6,2 C 0,0 km/h (0 Bft) 95,65 %
17.10.2018 05:02 23,9 C 6,2 C 3,3 C 12,8 C 55 % 95 % 1019,9 hPa 0,0 l/m 0,0 km/h (0 Bft) N 0 0 min 0,000 mm 0,0 UV-I 0 W/m 5,5 C 6,2 C 0,0 km/h (0 Bft) 95,65 %
17.10.2018 05:01 24,1 C 6,2 C 3,3 C 12,8 C 55 % 95 % 1019,9 hPa 0,0 l/m 0,0 km/h (0 Bft) N 0 0 min 0,000 mm 0,0 UV-I 0 W/m 5,5 C 6,2 C 0,0 km/h (0 Bft) 91,30 %
17.10.2018 05:00 23,9 C 6,2 C 3,3 C 12,8 C 55 % 94 % 1019,9 hPa 0,0 l/m 0,0 km/h (0 Bft) N 0 0 min 0,000 mm 0,0 UV-I 0 W/m 5,3 C 6,2 C 0,0 km/h (0 Bft) 95,65 %
17.10.2018 04:59 23,9 C 6,2 C 2,8 C 12,8 C 55 % 94 % 1020,0 hPa 0,0 l/m 0,0 km/h (0 Bft) N 0 0 min 0,000 mm 0,0 UV-I 0 W/m 5,3 C 6,2 C 0,0 km/h (0 Bft) 91,30 %
17.10.2018 04:58 23,9 C 6,2 C 2,8 C 12,8 C 55 % 94 % 1020,0 hPa 0,0 l/m 0,0 km/h (0 Bft) N 0 0 min 0,000 mm 0,0 UV-I 0 W/m 5,3 C 6,2 C 0,0 km/h (0 Bft) 95,65 %
17.10.2018 04:57 23,9 C 6,3 C 2,8 C 12,8 C 55 % 94 % 1020,0 hPa 0,0 l/m 0,0 km/h (0 Bft) N 0 0 min 0,000 mm 0,0 UV-I 0 W/m 5,4 C 6,3 C 0,0 km/h (0 Bft) 91,30 %
17.10.2018 04:56 23,9 C 6,3 C 2,8 C 12,8 C 55 % 94 % 1020,0 hPa 0,0 l/m 0,0 km/h (0 Bft) N 0 0 min 0,000 mm 0,0 UV-I 0 W/m 5,4 C 6,3 C 0,0 km/h (0 Bft) 95,65 %
17.10.2018 04:55 23,9 C 6,3 C 3,3 C 12,8 C 55 % 94 % 1020,0 hPa 0,0 l/m 0,0 km/h (0 Bft) N 0 0 min 0,000 mm 0,0 UV-I 0 W/m 5,4 C 6,3 C 0,0 km/h (0 Bft) 86,96 %
17.10.2018 04:54 23,9 C 6,3 C 3,3 C 12,8 C 56 % 94 % 1020,0 hPa 0,0 l/m 0,0 km/h (0 Bft) N 0 0 min 0,000 mm 0,0 UV-I 0 W/m 5,4 C 6,3 C 0,0 km/h (0 Bft) 100,00 %
17.10.2018 04:53 23,9 C 6,3 C 3,3 C 12,8 C 55 % 94 % 1020,0 hPa 0,0 l/m 0,0 km/h (0 Bft) N 0 0 min 0,000 mm 0,0 UV-I 0 W/m 5,4 C 6,3 C 0,0 km/h (0 Bft) 91,30 %
17.10.2018 04:52 23,9 C 6,3 C 3,3 C 12,8 C 55 % 94 % 1020,0 hPa 0,0 l/m 0,0 km/h (0 Bft) N 0 0 min 0,000 mm 0,0 UV-I 0 W/m 5,4 C 6,3 C 0,0 km/h (0 Bft) 95,65 %
17.10.2018 04:51 23,9 C 6,3 C 3,3 C 12,8 C 55 % 94 % 1020,0 hPa 0,0 l/m 0,0 km/h (0 Bft) N 0 0 min 0,000 mm 0,0 UV-I 0 W/m 5,4 C 6,3 C 0,0 km/h (0 Bft) 95,65 %
17.10.2018 04:50 23,9 C 6,3 C 3,3 C 13,3 C 55 % 94 % 1020,0 hPa 0,0 l/m 0,0 km/h (0 Bft) N 0 0 min 0,000 mm 0,0 UV-I 0 W/m 5,4 C 6,3 C 0,0 km/h (0 Bft) 91,30 %
17.10.2018 04:49 23,9 C 6,3 C 3,3 C 13,3 C 55 % 94 % 1020,0 hPa 0,0 l/m 0,0 km/h (0 Bft) N 0 0 min 0,000 mm 0,0 UV-I 0 W/m 5,4 C 6,3 C 0,0 km/h (0 Bft) 95,65 %
17.10.2018 04:48 23,9 C 6,3 C 3,3 C 13,3 C 55 % 94 % 1020,0 hPa 0,0 l/m 0,0 km/h (0 Bft) N 0 0 min 0,000 mm 0,0 UV-I 0 W/m 5,4 C 6,3 C 0,0 km/h (0 Bft) 91,30 %
17.10.2018 04:47 23,9 C 6,3 C 3,3 C 13,3 C 55 % 94 % 1020,0 hPa 0,0 l/m 0,0 km/h (0 Bft) N 0 0 min 0,000 mm 0,0 UV-I 0 W/m 5,4 C 6,3 C 0,0 km/h (0 Bft) 95,65 %
17.10.2018 04:46 23,9 C 6,3 C 3,3 C 13,3 C 55 % 94 % 1020,0 hPa 0,0 l/m 0,0 km/h (0 Bft) N 0 0 min 0,000 mm 0,0 UV-I 0 W/m 5,4 C 6,3 C 0,0 km/h (0 Bft) 95,65 %
17.10.2018 04:45 23,9 C 6,3 C 2,8 C 13,3 C 55 % 94 % 1020,0 hPa 0,0 l/m 0,0 km/h (0 Bft) N 0 0 min 0,000 mm 0,0 UV-I 0 W/m 5,4 C 6,3 C 0,0 km/h (0 Bft) 95,65 %
17.10.2018 04:44 23,9 C 6,3 C 2,8 C 13,3 C 55 % 94 % 1020,0 hPa 0,0 l/m 0,0 km/h (0 Bft) N 0 0 min 0,000 mm 0,0 UV-I 0 W/m 5,4 C 6,3 C 0,0 km/h (0 Bft) 100,00 %
17.10.2018 04:43 23,9 C 6,3 C 2,8 C 13,3 C 55 % 94 % 1020,0 hPa 0,0 l/m 0,0 km/h (0 Bft) N 0 0 min 0,000 mm 0,0 UV-I 0 W/m 5,4 C 6,3 C 0,0 km/h (0 Bft) 91,30 %
17.10.2018 04:42 23,9 C 6,3 C 2,8 C 13,3 C 55 % 94 % 1020,0 hPa 0,0 l/m 0,0 km/h (0 Bft) N 0 0 min 0,000 mm 0,0 UV-I 0 W/m 5,4 C 6,3 C 0,0 km/h (0 Bft) 95,65 %
17.10.2018 04:41 23,9 C 6,3 C 3,3 C 13,3 C 55 % 94 % 1020,0 hPa 0,0 l/m 0,0 km/h (0 Bft) N 0 0 min 0,000 mm 0,0 UV-I 0 W/m 5,4 C 6,3 C 0,0 km/h (0 Bft) 95,65 %
17.10.2018 04:40 23,9 C 6,3 C 3,3 C 13,3 C 55 % 94 % 1020,0 hPa 0,0 l/m 0,0 km/h (0 Bft) N 0 0 min 0,000 mm 0,0 UV-I 0 W/m 5,4 C 6,3 C 0,0 km/h (0 Bft) 95,65 %
17.10.2018 04:39 23,9 C 6,3 C 3,3 C 13,3 C 55 % 94 % 1020,0 hPa 0,0 l/m 0,0 km/h (0 Bft) N 0 0 min 0,000 mm 0,0 UV-I 0 W/m 5,4 C 6,3 C 0,0 km/h (0 Bft) 95,65 %
17.10.2018 04:38 23,9 C 6,4 C 3,3 C 13,3 C 55 % 94 % 1020,0 hPa 0,0 l/m 0,0 km/h (0 Bft) N 0 0 min 0,000 mm 0,0 UV-I 0 W/m 5,5 C 6,4 C 0,0 km/h (0 Bft) 100,00 %
17.10.2018 04:37 23,9 C 6,4 C 3,3 C 13,3 C 55 % 94 % 1020,0 hPa 0,0 l/m 0,0 km/h (0 Bft) N 0 0 min 0,000 mm 0,0 UV-I 0 W/m 5,5 C 6,4 C 0,0 km/h (0 Bft) 91,30 %
17.10.2018 04:36 23,9 C 6,4 C 3,3 C 13,3 C 55 % 94 % 1020,0 hPa 0,0 l/m 0,0 km/h (0 Bft) N 0 0 min 0,000 mm 0,0 UV-I 0 W/m 5,5 C 6,4 C 0,0 km/h (0 Bft) 91,30 %
17.10.2018 04:35 24,1 C 6,4 C 3,3 C 13,3 C 55 % 94 % 1020,0 hPa 0,0 l/m 0,0 km/h (0 Bft) N 0 0 min 0,000 mm 0,0 UV-I 0 W/m 5,5 C 6,4 C 0,0 km/h (0 Bft) 100,00 %
17.10.2018 04:34 23,9 C 6,4 C 3,3 C 13,3 C 55 % 94 % 1020,0 hPa 0,0 l/m 0,0 km/h (0 Bft) N 0 0 min 0,000 mm 0,0 UV-I 0 W/m 5,5 C 6,4 C 0,0 km/h (0 Bft) 95,65 %
17.10.2018 04:33 24,1 C 6,4 C 3,3 C 13,3 C 55 % 94 % 1020,0 hPa 0,0 l/m 0,0 km/h (0 Bft) N 0 0 min 0,000 mm 0,0 UV-I 0 W/m 5,5 C 6,4 C 0,0 km/h (0 Bft) 91,30 %
17.10.2018 04:32 24,1 C 6,4 C 3,3 C 13,3 C 55 % 94 % 1020,0 hPa 0,0 l/m 0,0 km/h (0 Bft) N 0 0 min 0,000 mm 0,0 UV-I 0 W/m 5,5 C 6,4 C 0,0 km/h (0 Bft) 100,00 %
17.10.2018 04:31 24,1 C 6,4 C 3,3 C 13,3 C 55 % 94 % 1020,0 hPa 0,0 l/m 0,0 km/h (0 Bft) N 0 0 min 0,000 mm 0,0 UV-I 0 W/m 5,5 C 6,4 C 0,0 km/h (0 Bft) 91,30 %
17.10.2018 04:30 23,9 C 6,4 C 3,3 C 13,3 C 55 % 94 % 1020,0 hPa 0,0 l/m 0,0 km/h (0 Bft) N 0 0 min 0,000 mm 0,0 UV-I 0 W/m 5,5 C 6,4 C 0,0 km/h (0 Bft) 95,65 %
17.10.2018 04:29 23,9 C 6,4 C 3,3 C 13,3 C 55 % 94 % 1020,1 hPa 0,0 l/m 0,0 km/h (0 Bft) N 0 0 min 0,000 mm 0,0 UV-I 0 W/m 5,5 C 6,4 C 0,0 km/h (0 Bft) 95,65 %
17.10.2018 04:28 23,9 C 6,4 C 3,3 C 13,3 C 55 % 94 % 1020,1 hPa 0,0 l/m 0,0 km/h (0 Bft) N 0 0 min 0,000 mm 0,0 UV-I 0 W/m 5,5 C 6,4 C 0,0 km/h (0 Bft) 95,65 %
17.10.2018 04:27 23,9 C 6,4 C 3,3 C 13,3 C 55 % 94 % 1020,1 hPa 0,0 l/m 0,0 km/h (0 Bft) N 0 0 min 0,000 mm 0,0 UV-I 0 W/m 5,5 C 6,4 C 0,0 km/h (0 Bft) 95,65 %
17.10.2018 04:26 23,9 C 6,4 C 3,3 C 13,3 C 55 % 94 % 1020,1 hPa 0,0 l/m 0,0 km/h (0 Bft) N 0 0 min 0,000 mm 0,0 UV-I 0 W/m 5,5 C 6,4 C 0,0 km/h (0 Bft) 100,00 %
17.10.2018 04:25 23,9 C 6,4 C 3,3 C 13,3 C 55 % 94 % 1020,1 hPa 0,0 l/m 0,0 km/h (0 Bft) N 0 0 min 0,000 mm 0,0 UV-I 0 W/m 5,5 C 6,4 C 0,0 km/h (0 Bft) 95,65 %
17.10.2018 04:24 23,9 C 6,4 C 3,3 C 13,3 C 55 % 94 % 1020,1 hPa 0,0 l/m 0,0 km/h (0 Bft) N 0 0 min 0,000 mm 0,0 UV-I 0 W/m 5,5 C 6,4 C 0,0 km/h (0 Bft) 91,30 %
17.10.2018 04:23 23,9 C 6,4 C 3,3 C 13,3 C 55 % 94 % 1020,1 hPa 0,0 l/m 0,0 km/h (0 Bft) N 0 0 min 0,000 mm 0,0 UV-I 0 W/m 5,5 C 6,4 C 0,0 km/h (0 Bft) 100,00 %
17.10.2018 04:22 23,9 C 6,4 C 3,3 C 13,3 C 55 % 94 % 1020,1 hPa 0,0 l/m 0,0 km/h (0 Bft) N 0 0 min 0,000 mm 0,0 UV-I 0 W/m 5,5 C 6,4 C 0,0 km/h (0 Bft) 91,30 %
17.10.2018 04:21 23,9 C 6,4 C 3,3 C 13,3 C 55 % 94 % 1020,1 hPa 0,0 l/m 0,0 km/h (0 Bft) N 0 0 min 0,000 mm 0,0 UV-I 0 W/m 5,5 C 6,4 C 0,0 km/h (0 Bft) 95,65 %
17.10.2018 04:20 23,9 C 6,3 C 3,3 C 13,3 C 55 % 94 % 1020,1 hPa 0,0 l/m 0,0 km/h (0 Bft) N 0 0 min 0,000 mm 0,0 UV-I 0 W/m 5,4 C 6,3 C 0,0 km/h (0 Bft) 100,00 %
17.10.2018 04:19 23,9 C 6,4 C 3,3 C 13,3 C 55 % 94 % 1020,1 hPa 0,0 l/m 0,0 km/h (0 Bft) N 0 0 min 0,000 mm 0,0 UV-I 0 W/m 5,5 C 6,4 C 0,0 km/h (0 Bft) 95,65 %
17.10.2018 04:18 23,9 C 6,4 C 3,3 C 13,3 C 55 % 94 % 1020,1 hPa 0,0 l/m 0,0 km/h (0 Bft) N 0 0 min 0,000 mm 0,0 UV-I 0 W/m 5,5 C 6,4 C 0,0 km/h (0 Bft) 91,30 %
17.10.2018 04:17 23,9 C 6,4 C 3,3 C 13,3 C 55 % 94 % 1020,1 hPa 0,0 l/m 0,0 km/h (0 Bft) N 0 0 min 0,000 mm 0,0 UV-I 0 W/m 5,5 C 6,4 C 0,0 km/h (0 Bft) 100,00 %
17.10.2018 04:16 23,9 C 6,4 C 3,3 C 13,3 C 55 % 94 % 1020,1 hPa 0,0 l/m 0,0 km/h (0 Bft) N 0 0 min 0,000 mm 0,0 UV-I 0 W/m 5,5 C 6,4 C 0,0 km/h (0 Bft) 95,65 %
17.10.2018 04:15 23,9 C 6,4 C 3,3 C 13,3 C 55 % 94 % 1020,1 hPa 0,0 l/m 0,0 km/h (0 Bft) N 0 0 min 0,000 mm 0,0 UV-I 0 W/m 5,5 C 6,4 C 0,0 km/h (0 Bft) 95,65 %
17.10.2018 04:14 23,9 C 6,5 C 3,3 C 13,3 C 55 % 94 % 1020,1 hPa 0,0 l/m 0,0 km/h (0 Bft) N 0 0 min 0,000 mm 0,0 UV-I 0 W/m 5,6 C 6,5 C 0,0 km/h (0 Bft) 100,00 %
17.10.2018 04:13 23,9 C 6,5 C 3,3 C 13,3 C 55 % 94 % 1020,1 hPa 0,0 l/m 0,0 km/h (0 Bft) N 0 0 min 0,000 mm 0,0 UV-I 0 W/m 5,6 C 6,5 C 0,0 km/h (0 Bft) 95,65 %
17.10.2018 04:12 23,9 C 6,6 C 3,3 C 13,3 C 55 % 94 % 1020,1 hPa 0,0 l/m 0,0 km/h (0 Bft) N 0 0 min 0,000 mm 0,0 UV-I 0 W/m 5,7 C 6,6 C 0,0 km/h (0 Bft) 95,65 %
17.10.2018 04:11 23,9 C 6,6 C 3,3 C 13,3 C 55 % 94 % 1020,1 hPa 0,0 l/m 0,0 km/h (0 Bft) N 0 0 min 0,000 mm 0,0 UV-I 0 W/m 5,7 C 6,6 C 0,0 km/h (0 Bft) 100,00 %
17.10.2018 04:10 23,9 C 6,6 C 3,3 C 13,3 C 55 % 94 % 1020,1 hPa 0,0 l/m 0,0 km/h (0 Bft) N 0 0 min 0,000 mm 0,0 UV-I 0 W/m 5,7 C 6,6 C 0,0 km/h (0 Bft) 91,30 %
17.10.2018 04:09 23,9 C 6,6 C 3,3 C 13,3 C 55 % 94 % 1020,1 hPa 0,0 l/m 0,0 km/h (0 Bft) N 0 0 min 0,000 mm 0,0 UV-I 0 W/m 5,7 C 6,6 C 0,0 km/h (0 Bft) 95,65 %
17.10.2018 04:08 23,9 C 6,7 C 3,3 C 13,3 C 55 % 94 % 1020,1 hPa 0,0 l/m 0,0 km/h (0 Bft) N 0 0 min 0,000 mm 0,0 UV-I 0 W/m 5,8 C 6,7 C 0,0 km/h (0 Bft) 91,30 %
17.10.2018 04:07 23,9 C 6,7 C 3,3 C 13,3 C 55 % 94 % 1020,1 hPa 0,0 l/m 0,0 km/h (0 Bft) N 0 0 min 0,000 mm 0,0 UV-I 0 W/m 5,8 C 6,7 C 0,0 km/h (0 Bft) 95,65 %
17.10.2018 04:06 23,9 C 6,7 C 3,3 C 13,3 C 55 % 94 % 1020,1 hPa 0,0 l/m 0,0 km/h (0 Bft) N 0 0 min 0,000 mm 0,0 UV-I 0 W/m 5,8 C 6,7 C 0,0 km/h (0 Bft) 95,65 %
17.10.2018 04:05 23,9 C 6,7 C 3,3 C 13,3 C 55 % 94 % 1020,1 hPa 0,0 l/m 0,0 km/h (0 Bft) N 0 0 min 0,000 mm 0,0 UV-I 0 W/m 5,8 C 6,7 C 0,0 km/h (0 Bft) 100,00 %
17.10.2018 04:04 23,9 C 6,7 C 3,3 C 13,3 C 55 % 94 % 1020,1 hPa 0,0 l/m 0,0 km/h (0 Bft) N 0 0 min 0,000 mm 0,0 UV-I 0 W/m 5,8 C 6,7 C 0,0 km/h (0 Bft) 91,30 %
17.10.2018 04:03 23,9 C 6,7 C 3,3 C 13,3 C 55 % 94 % 1020,1 hPa 0,0 l/m 0,0 km/h (0 Bft) N 0 0 min 0,000 mm 0,0 UV-I 0 W/m 5,8 C 6,7 C 0,0 km/h (0 Bft) 95,65 %
17.10.2018 04:02 23,9 C 6,7 C 3,3 C 13,3 C 55 % 94 % 1020,1 hPa 0,0 l/m 0,0 km/h (0 Bft) N 0 0 min 0,000 mm 0,0 UV-I 0 W/m 5,8 C 6,7 C 0,0 km/h (0 Bft) 95,65 %
17.10.2018 04:01 23,9 C 6,7 C 3,3 C 13,3 C 55 % 94 % 1020,1 hPa 0,0 l/m 0,0 km/h (0 Bft) N 0 0 min 0,000 mm 0,0 UV-I 0 W/m 5,8 C 6,7 C 0,0 km/h (0 Bft) 100,00 %
17.10.2018 04:00 23,9 C 6,8 C 3,3 C 13,3 C 55 % 94 % 1020,1 hPa 0,0 l/m 0,0 km/h (0 Bft) N 0 0 min 0,000 mm 0,0 UV-I 0 W/m 5,9 C 6,8 C 0,0 km/h (0 Bft) 95,65 %
17.10.2018 03:59 23,9 C 6,8 C 3,3 C 13,3 C 55 % 94 % 1020,1 hPa 0,0 l/m 0,0 km/h (0 Bft) N 0 0 min 0,000 mm 0,0 UV-I 0 W/m 5,9 C 6,8 C 0,0 km/h (0 Bft) 91,30 %
17.10.2018 03:58 23,9 C 6,8 C 3,3 C 13,3 C 55 % 94 % 1020,1 hPa 0,0 l/m 0,0 km/h (0 Bft) N 0 0 min 0,000 mm 0,0 UV-I 0 W/m 5,9 C 6,8 C 0,0 km/h (0 Bft) 95,65 %
17.10.2018 03:57 23,9 C 6,8 C 3,3 C 13,3 C 55 % 94 % 1020,1 hPa 0,0 l/m 0,0 km/h (0 Bft) N 0 0 min 0,000 mm 0,0 UV-I 0 W/m 5,9 C 6,8 C 0,0 km/h (0 Bft) 91,30 %
17.10.2018 03:56 23,9 C 6,8 C 3,3 C 13,3 C 55 % 94 % 1020,1 hPa 0,0 l/m 0,0 km/h (0 Bft) N 0 0 min 0,000 mm 0,0 UV-I 0 W/m 5,9 C 6,8 C 0,0 km/h (0 Bft) 95,65 %
17.10.2018 03:55 23,9 C 6,8 C 3,3 C 13,3 C 55 % 94 % 1020,1 hPa 0,0 l/m 0,0 km/h (0 Bft) N 0 0 min 0,000 mm 0,0 UV-I 0 W/m 5,9 C 6,8 C 0,0 km/h (0 Bft) 95,65 %
17.10.2018 03:54 23,9 C 6,8 C 3,3 C 13,3 C 55 % 94 % 1020,1 hPa 0,0 l/m 0,0 km/h (0 Bft) N 0 0 min 0,000 mm 0,0 UV-I 0 W/m 5,9 C 6,8 C 0,0 km/h (0 Bft) 91,30 %
17.10.2018 03:53 23,9 C 6,8 C 3,3 C 13,3 C 55 % 94 % 1020,1 hPa 0,0 l/m 0,0 km/h (0 Bft) N 0 0 min 0,000 mm 0,0 UV-I 0 W/m 5,9 C 6,8 C 0,0 km/h (0 Bft) 95,65 %
17.10.2018 03:52 23,9 C 6,8 C 3,3 C 13,3 C 55 % 94 % 1020,1 hPa 0,0 l/m 0,0 km/h (0 Bft) N 0 0 min 0,000 mm 0,0 UV-I 0 W/m 5,9 C 6,8 C 0,0 km/h (0 Bft) 95,65 %
17.10.2018 03:51 23,9 C 6,8 C 3,3 C 13,3 C 55 % 94 % 1020,1 hPa 0,0 l/m 0,0 km/h (0 Bft) N 0 0 min 0,000 mm 0,0 UV-I 0 W/m 5,9 C 6,8 C 0,0 km/h (0 Bft) 91,30 %
17.10.2018 03:50 23,9 C 6,8 C 3,3 C 13,3 C 55 % 94 % 1020,1 hPa 0,0 l/m 0,0 km/h (0 Bft) N 0 0 min 0,000 mm 0,0 UV-I 0 W/m 5,9 C 6,8 C 0,0 km/h (0 Bft) 95,65 %
17.10.2018 03:49 23,9 C 6,9 C 3,3 C 13,3 C 55 % 94 % 1020,1 hPa 0,0 l/m 0,0 km/h (0 Bft) N 0 0 min 0,000 mm 0,0 UV-I 0 W/m 6,0 C 6,9 C 0,0 km/h (0 Bft) 100,00 %
17.10.2018 03:48 23,9 C 6,9 C 3,3 C 13,3 C 55 % 94 % 1020,1 hPa 0,0 l/m 0,0 km/h (0 Bft) N 0 0 min 0,000 mm 0,0 UV-I 0 W/m 6,0 C 6,9 C 0,0 km/h (0 Bft) 95,65 %
17.10.2018 03:47 23,9 C 6,9 C 3,3 C 13,3 C 55 % 94 % 1020,1 hPa 0,0 l/m 0,0 km/h (0 Bft) N 0 0 min 0,000 mm 0,0 UV-I 0 W/m 6,0 C 6,9 C 0,0 km/h (0 Bft) 95,65 %
17.10.2018 03:46 23,9 C 6,9 C 3,3 C 13,3 C 55 % 94 % 1020,1 hPa 0,0 l/m 0,0 km/h (0 Bft) N 0 0 min 0,000 mm 0,0 UV-I 0 W/m 6,0 C 6,9 C 0,0 km/h (0 Bft) 100,00 %
17.10.2018 03:45 23,9 C 6,9 C 3,3 C 13,3 C 55 % 94 % 1020,1 hPa 0,0 l/m 0,0 km/h (0 Bft) N 0 0 min 0,000 mm 0,0 UV-I 0 W/m 6,0 C 6,9 C 0,0 km/h (0 Bft) 95,65 %
17.10.2018 03:44 23,9 C 6,8 C 3,3 C 13,3 C 55 % 94 % 1020,1 hPa 0,0 l/m 0,0 km/h (0 Bft) N 0 0 min 0,000 mm 0,0 UV-I 0 W/m 5,9 C 6,8 C 0,0 km/h (0 Bft) 95,65 %
17.10.2018 03:43 23,9 C 6,8 C 3,3 C 13,3 C 55 % 94 % 1020,1 hPa 0,0 l/m 0,0 km/h (0 Bft) N 0 0 min 0,000 mm 0,0 UV-I 0 W/m 5,9 C 6,8 C 0,0 km/h (0 Bft) 95,65 %
17.10.2018 03:42 23,9 C 6,8 C 3,3 C 13,3 C 55 % 94 % 1020,1 hPa 0,0 l/m 0,0 km/h (0 Bft) N 0 0 min 0,000 mm 0,0 UV-I 0 W/m 5,9 C 6,8 C 0,0 km/h (0 Bft) 95,65 %
17.10.2018 03:41 23,9 C 6,9 C 3,3 C 13,3 C 55 % 94 % 1020,1 hPa 0,0 l/m 0,0 km/h (0 Bft) N 0 0 min 0,000 mm 0,0 UV-I 0 W/m 6,0 C 6,9 C 0,0 km/h (0 Bft) 91,30 %
17.10.2018 03:40 23,9 C 6,9 C 3,3 C 13,3 C 55 % 94 % 1020,1 hPa 0,0 l/m 0,0 km/h (0 Bft) N 0 0 min 0,000 mm 0,0 UV-I 0 W/m 6,0 C 6,9 C 0,0 km/h (0 Bft) 95,65 %
17.10.2018 03:39 23,9 C 6,9 C 3,3 C 13,3 C 55 % 94 % 1020,1 hPa 0,0 l/m 0,0 km/h (0 Bft) N 0 0 min 0,000 mm 0,0 UV-I 0 W/m 6,0 C 6,9 C 0,0 km/h (0 Bft) 86,96 %
17.10.2018 03:38 23,9 C 6,9 C 3,3 C 13,3 C 55 % 94 % 1020,1 hPa 0,0 l/m 0,0 km/h (0 Bft) N 0 0 min 0,000 mm 0,0 UV-I 0 W/m 6,0 C 6,9 C 0,0 km/h (0 Bft) 95,65 %
17.10.2018 03:37 23,9 C 6,9 C 3,3 C 13,3 C 55 % 94 % 1020,1 hPa 0,0 l/m 0,0 km/h (0 Bft) N 0 0 min 0,000 mm 0,0 UV-I 0 W/m 6,0 C 6,9 C 0,0 km/h (0 Bft) 95,65 %
17.10.2018 03:36 23,9 C 6,9 C 3,3 C 13,3 C 55 % 94 % 1020,1 hPa 0,0 l/m 0,0 km/h (0 Bft) N 0 0 min 0,000 mm 0,0 UV-I 0 W/m 6,0 C 6,9 C 0,0 km/h (0 Bft) 95,65 %
17.10.2018 03:35 23,9 C 6,9 C 3,3 C 13,3 C 55 % 94 % 1020,1 hPa 0,0 l/m 0,0 km/h (0 Bft) N 0 0 min 0,000 mm 0,0 UV-I 0 W/m 6,0 C 6,9 C 0,0 km/h (0 Bft) 91,30 %
17.10.2018 03:34 23,9 C 6,9 C 3,3 C 13,3 C 55 % 94 % 1020,1 hPa 0,0 l/m 0,0 km/h (0 Bft) N 0 0 min 0,000 mm 0,0 UV-I 0 W/m 6,0 C 6,9 C 0,0 km/h (0 Bft) 95,65 %
17.10.2018 03:33 23,9 C 6,9 C 3,9 C 13,3 C 55 % 94 % 1020,1 hPa 0,0 l/m 0,0 km/h (0 Bft) N 0 0 min 0,000 mm 0,0 UV-I 0 W/m 6,0 C 6,9 C 0,0 km/h (0 Bft) 95,65 %
17.10.2018 03:32 23,9 C 7,0 C 3,9 C 13,3 C 55 % 94 % 1020,1 hPa 0,0 l/m 0,0 km/h (0 Bft) N 0 0 min 0,000 mm 0,0 UV-I 0 W/m 6,1 C 7,0 C 0,0 km/h (0 Bft) 86,96 %
17.10.2018 03:31 23,9 C 7,0 C 3,9 C 13,3 C 55 % 94 % 1020,1 hPa 0,0 l/m 0,0 km/h (0 Bft) N 0 0 min 0,000 mm 0,0 UV-I 0 W/m 6,1 C 7,0 C 0,0 km/h (0 Bft) 100,00 %
17.10.2018 03:30 23,9 C 7,0 C 3,9 C 13,3 C 55 % 94 % 1020,1 hPa 0,0 l/m 0,0 km/h (0 Bft) N 0 0 min 0,000 mm 0,0 UV-I 0 W/m 6,1 C 7,0 C 0,0 km/h (0 Bft) 91,30 %
17.10.2018 03:29 23,9 C 7,0 C 3,9 C 13,3 C 55 % 94 % 1020,1 hPa 0,0 l/m 0,0 km/h (0 Bft) N 0 0 min 0,000 mm 0,0 UV-I 0 W/m 6,1 C 7,0 C 0,0 km/h (0 Bft) 95,65 %
17.10.2018 03:28 23,9 C 7,1 C 3,9 C 13,3 C 55 % 94 % 1020,1 hPa 0,0 l/m 0,0 km/h (0 Bft) N 0 0 min 0,000 mm 0,0 UV-I 0 W/m 6,2 C 7,1 C 0,0 km/h (0 Bft) 95,65 %
17.10.2018 03:27 23,9 C 7,1 C 3,9 C 13,3 C 55 % 94 % 1020,1 hPa 0,0 l/m 0,0 km/h (0 Bft) N 0 0 min 0,000 mm 0,0 UV-I 0 W/m 6,2 C 7,1 C 0,0 km/h (0 Bft) 91,30 %
17.10.2018 03:26 23,9 C 7,1 C 3,9 C 13,3 C 55 % 94 % 1020,1 hPa 0,0 l/m 0,0 km/h (0 Bft) N 0 0 min 0,000 mm 0,0 UV-I 0 W/m 6,2 C 7,1 C 0,0 km/h (0 Bft) 91,30 %
17.10.2018 03:25 23,9 C 7,1 C 3,9 C 13,3 C 55 % 94 % 1020,1 hPa 0,0 l/m 0,0 km/h (0 Bft) N 0 0 min 0,000 mm 0,0 UV-I 0 W/m 6,2 C 7,1 C 0,0 km/h (0 Bft) 100,00 %
17.10.2018 03:24 23,9 C 7,1 C 3,9 C 13,3 C 55 % 94 % 1020,1 hPa 0,0 l/m 0,0 km/h (0 Bft) N 0 0 min 0,000 mm 0,0 UV-I 0 W/m 6,2 C 7,1 C 0,0 km/h (0 Bft) 91,30 %
17.10.2018 03:23 23,9 C 7,1 C 3,9 C 13,3 C 55 % 94 % 1020,1 hPa 0,0 l/m 0,0 km/h (0 Bft) N 0 0 min 0,000 mm 0,0 UV-I 0 W/m 6,2 C 7,1 C 0,0 km/h (0 Bft) 91,30 %
17.10.2018 03:22 23,9 C 7,2 C 3,9 C 13,3 C 55 % 94 % 1020,1 hPa 0,0 l/m 0,0 km/h (0 Bft) N 0 0 min 0,000 mm 0,0 UV-I 0 W/m 6,3 C 7,2 C 0,0 km/h (0 Bft) 91,30 %
17.10.2018 03:21 23,9 C 7,2 C 3,9 C 13,3 C 55 % 94 % 1020,1 hPa 0,0 l/m 0,0 km/h (0 Bft) N 0 0 min 0,000 mm 0,0 UV-I 0 W/m 6,3 C 7,2 C 0,0 km/h (0 Bft) 91,30 %
17.10.2018 03:20 23,9 C 7,2 C 3,9 C 13,3 C 55 % 94 % 1020,1 hPa 0,0 l/m 0,0 km/h (0 Bft) N 0 0 min 0,000 mm 0,0 UV-I 0 W/m 6,3 C 7,2 C 0,0 km/h (0 Bft) 95,65 %
17.10.2018 03:19 23,9 C 7,2 C 3,9 C 13,3 C 55 % 94 % 1020,1 hPa 0,0 l/m 0,0 km/h (0 Bft) N 0 0 min 0,000 mm 0,0 UV-I 0 W/m 6,3 C 7,2 C 0,0 km/h (0 Bft) 95,65 %
17.10.2018 03:18 23,9 C 7,2 C 3,9 C 13,3 C 56 % 94 % 1020,1 hPa 0,0 l/m 0,0 km/h (0 Bft) N 0 0 min 0,000 mm 0,0 UV-I 0 W/m 6,3 C 7,2 C 0,0 km/h (0 Bft) 95,65 %
17.10.2018 03:17 23,9 C 7,2 C 3,9 C 13,3 C 55 % 94 % 1020,1 hPa 0,0 l/m 0,0 km/h (0 Bft) N 0 0 min 0,000 mm 0,0 UV-I 0 W/m 6,3 C 7,2 C 0,0 km/h (0 Bft) 91,30 %
17.10.2018 03:16 23,9 C 7,2 C 3,9 C 13,3 C 55 % 94 % 1020,1 hPa 0,0 l/m 0,0 km/h (0 Bft) N 0 0 min 0,000 mm 0,0 UV-I 0 W/m 6,3 C 7,2 C 0,0 km/h (0 Bft) 100,00 %
17.10.2018 03:15 23,9 C 7,3 C 3,9 C 13,3 C 55 % 94 % 1020,1 hPa 0,0 l/m 0,0 km/h (0 Bft) N 0 0 min 0,000 mm 0,0 UV-I 0 W/m 6,4 C 7,3 C 0,0 km/h (0 Bft) 91,30 %
17.10.2018 03:14 23,9 C 7,3 C 3,9 C 13,3 C 55 % 94 % 1020,1 hPa 0,0 l/m 0,0 km/h (0 Bft) N 0 0 min 0,000 mm 0,0 UV-I 0 W/m 6,4 C 7,3 C 0,0 km/h (0 Bft) 95,65 %
17.10.2018 03:13 23,9 C 7,3 C 3,9 C 13,3 C 55 % 94 % 1020,1 hPa 0,0 l/m 0,0 km/h (0 Bft) N 0 0 min 0,000 mm 0,0 UV-I 0 W/m 6,4 C 7,3 C 0,0 km/h (0 Bft) 91,30 %
17.10.2018 03:12 23,9 C 7,3 C 3,9 C 13,3 C 55 % 94 % 1020,1 hPa 0,0 l/m 0,0 km/h (0 Bft) N 0 0 min 0,000 mm 0,0 UV-I 0 W/m 6,4 C 7,3 C 0,0 km/h (0 Bft) 100,00 %
17.10.2018 03:11 23,9 C 7,3 C 3,9 C 13,3 C 55 % 94 % 1020,1 hPa 0,0 l/m 0,0 km/h (0 Bft) N 0 0 min 0,000 mm 0,0 UV-I 0 W/m 6,4 C 7,3 C 0,0 km/h (0 Bft) 95,65 %
17.10.2018 03:10 23,9 C 7,3 C 3,9 C 13,3 C 55 % 94 % 1020,1 hPa 0,0 l/m 0,0 km/h (0 Bft) N 0 0 min 0,000 mm 0,0 UV-I 0 W/m 6,4 C 7,3 C 0,0 km/h (0 Bft) 95,65 %
17.10.2018 03:09 23,9 C 7,3 C 3,9 C 13,3 C 55 % 94 % 1020,1 hPa 0,0 l/m 0,0 km/h (0 Bft) N 0 0 min 0,000 mm 0,0 UV-I 0 W/m 6,4 C 7,3 C 0,0 km/h (0 Bft) 91,30 %
17.10.2018 03:08 23,9 C 7,3 C 3,9 C 13,3 C 55 % 94 % 1020,1 hPa 0,0 l/m 0,0 km/h (0 Bft) N 0 0 min 0,000 mm 0,0 UV-I 0 W/m 6,4 C 7,3 C 0,0 km/h (0 Bft) 91,30 %
17.10.2018 03:07 23,9 C 7,3 C 3,9 C 13,3 C 55 % 94 % 1020,1 hPa 0,0 l/m 0,0 km/h (0 Bft) N 0 0 min 0,000 mm 0,0 UV-I 0 W/m 6,4 C 7,3 C 0,0 km/h (0 Bft) 95,65 %
17.10.2018 03:06 23,9 C 7,3 C 3,9 C 13,3 C 55 % 94 % 1020,1 hPa 0,0 l/m 0,0 km/h (0 Bft) N 0 0 min 0,000 mm 0,0 UV-I 0 W/m 6,4 C 7,3 C 0,0 km/h (0 Bft) 95,65 %
17.10.2018 03:05 23,9 C 7,3 C 3,9 C 13,3 C 55 % 94 % 1020,1 hPa 0,0 l/m 0,0 km/h (0 Bft) N 0 0 min 0,000 mm 0,0 UV-I 0 W/m 6,4 C 7,3 C 0,0 km/h (0 Bft) 95,65 %
17.10.2018 03:04 23,9 C 7,3 C 3,9 C 13,3 C 55 % 94 % 1020,1 hPa 0,0 l/m 0,0 km/h (0 Bft) N 0 0 min 0,000 mm 0,0 UV-I 0 W/m 6,4 C 7,3 C 0,0 km/h (0 Bft) 95,65 %
17.10.2018 03:03 23,9 C 7,3 C 3,9 C 13,3 C 55 % 94 % 1020,1 hPa 0,0 l/m 0,0 km/h (0 Bft) N 0 0 min 0,000 mm 0,0 UV-I 0 W/m 6,4 C 7,3 C 0,0 km/h (0 Bft) 100,00 %
17.10.2018 03:02 23,9 C 7,4 C 3,9 C 13,3 C 55 % 94 % 1020,1 hPa 0,0 l/m 0,0 km/h (0 Bft) N 0 0 min 0,000 mm 0,0 UV-I 0 W/m 6,5 C 7,4 C 0,0 km/h (0 Bft) 95,65 %
17.10.2018 03:01 23,9 C 7,4 C 3,9 C 13,3 C 55 % 94 % 1020,1 hPa 0,0 l/m 0,0 km/h (0 Bft) N 0 0 min 0,000 mm 0,0 UV-I 0 W/m 6,5 C 7,4 C 0,0 km/h (0 Bft) 95,65 %
17.10.2018 03:00 23,9 C 7,4 C 3,9 C 13,3 C 55 % 94 % 1020,1 hPa 0,0 l/m 0,0 km/h (0 Bft) N 0 0 min 0,000 mm 0,0 UV-I 0 W/m 6,5 C 7,4 C 0,0 km/h (0 Bft) 100,00 %
17.10.2018 02:59 23,9 C 7,4 C 3,9 C 13,3 C 55 % 94 % 1020,1 hPa 0,0 l/m 0,0 km/h (0 Bft) N 0 0 min 0,000 mm 0,0 UV-I 0 W/m 6,5 C 7,4 C 0,0 km/h (0 Bft) 86,96 %
17.10.2018 02:58 23,9 C 7,4 C 3,9 C 13,3 C 55 % 94 % 1020,1 hPa 0,0 l/m 0,0 km/h (0 Bft) N 0 0 min 0,000 mm 0,0 UV-I 0 W/m 6,5 C 7,4 C 0,0 km/h (0 Bft) 91,30 %
17.10.2018 02:57 23,9 C 7,4 C 3,9 C 13,3 C 55 % 94 % 1020,1 hPa 0,0 l/m 0,0 km/h (0 Bft) N 0 0 min 0,000 mm 0,0 UV-I 0 W/m 6,5 C 7,4 C 0,0 km/h (0 Bft) 100,00 %
17.10.2018 02:56 23,9 C 7,5 C 3,9 C 13,3 C 55 % 94 % 1020,1 hPa 0,0 l/m 0,0 km/h (0 Bft) N 0 0 min 0,000 mm 0,0 UV-I 0 W/m 6,6 C 7,5 C 0,0 km/h (0 Bft) 95,65 %
17.10.2018 02:55 23,9 C 7,5 C 3,9 C 13,3 C 55 % 94 % 1020,1 hPa 0,0 l/m 0,0 km/h (0 Bft) N 0 0 min 0,000 mm 0,0 UV-I 0 W/m 6,6 C 7,5 C 0,0 km/h (0 Bft) 95,65 %
17.10.2018 02:54 23,9 C 7,5 C 4,4 C 13,3 C 55 % 93 % 1020,1 hPa 0,0 l/m 0,0 km/h (0 Bft) N 0 0 min 0,000 mm 0,0 UV-I 0 W/m 6,4 C 7,5 C 0,0 km/h (0 Bft) 95,65 %
17.10.2018 02:53 23,9 C 7,6 C 3,9 C 13,3 C 55 % 93 % 1020,1 hPa 0,0 l/m 0,0 km/h (0 Bft) N 0 0 min 0,000 mm 0,0 UV-I 0 W/m 6,5 C 7,6 C 0,0 km/h (0 Bft) 91,30 %
17.10.2018 02:52 23,9 C 7,6 C 3,9 C 13,3 C 55 % 93 % 1020,1 hPa 0,0 l/m 0,0 km/h (0 Bft) N 0 0 min 0,000 mm 0,0 UV-I 0 W/m 6,5 C 7,6 C 0,0 km/h (0 Bft) 95,65 %
17.10.2018 02:51 23,9 C 7,6 C 3,9 C 13,3 C 55 % 93 % 1020,1 hPa 0,0 l/m 0,0 km/h (0 Bft) N 0 0 min 0,000 mm 0,0 UV-I 0 W/m 6,5 C 7,6 C 0,0 km/h (0 Bft) 100,00 %
17.10.2018 02:50 23,9 C 7,6 C 3,9 C 13,3 C 55 % 93 % 1020,1 hPa 0,0 l/m 0,0 km/h (0 Bft) N 0 0 min 0,000 mm 0,0 UV-I 0 W/m 6,5 C 7,6 C 0,0 km/h (0 Bft) 95,65 %
17.10.2018 02:49 23,9 C 7,7 C 4,4 C 13,3 C 55 % 93 % 1020,1 hPa 0,0 l/m 0,0 km/h (0 Bft) N 0 0 min 0,000 mm 0,0 UV-I 0 W/m 6,6 C 7,7 C 0,0 km/h (0 Bft) 95,65 %
17.10.2018 02:48 23,9 C 7,7 C 4,4 C 13,3 C 55 % 93 % 1020,1 hPa 0,0 l/m 0,0 km/h (0 Bft) N 0 0 min 0,000 mm 0,0 UV-I 0 W/m 6,6 C 7,7 C 0,0 km/h (0 Bft) 95,65 %
17.10.2018 02:47 23,9 C 7,7 C 4,4 C 13,3 C 55 % 94 % 1020,1 hPa 0,0 l/m 0,0 km/h (0 Bft) N 0 0 min 0,000 mm 0,0 UV-I 0 W/m 6,8 C 7,7 C 0,0 km/h (0 Bft) 91,30 %
17.10.2018 02:46 23,9 C 7,8 C 4,4 C 13,3 C 55 % 94 % 1020,1 hPa 0,0 l/m 0,0 km/h (0 Bft) N 0 0 min 0,000 mm 0,0 UV-I 0 W/m 6,9 C 7,8 C 0,0 km/h (0 Bft) 95,65 %
17.10.2018 02:45 23,9 C 7,8 C 4,4 C 13,3 C 55 % 94 % 1020,1 hPa 0,0 l/m 0,0 km/h (0 Bft) N 0 0 min 0,000 mm 0,0 UV-I 0 W/m 6,9 C 7,8 C 0,0 km/h (0 Bft) 100,00 %
17.10.2018 02:44 23,9 C 7,8 C 4,4 C 13,3 C 55 % 93 % 1020,1 hPa 0,0 l/m 0,0 km/h (0 Bft) N 0 0 min 0,000 mm 0,0 UV-I 0 W/m 6,7 C 7,8 C 0,0 km/h (0 Bft) 95,65 %
17.10.2018 02:43 23,9 C 7,8 C 4,4 C 13,3 C 55 % 93 % 1020,1 hPa 0,0 l/m 0,0 km/h (0 Bft) N 0 0 min 0,000 mm 0,0 UV-I 0 W/m 6,7 C 7,8 C 0,0 km/h (0 Bft) 91,30 %
17.10.2018 02:42 23,9 C 7,8 C 4,4 C 13,3 C 55 % 93 % 1020,1 hPa 0,0 l/m 0,0 km/h (0 Bft) N 0 0 min 0,000 mm 0,0 UV-I 0 W/m 6,7 C 7,8 C 0,0 km/h (0 Bft) 100,00 %
17.10.2018 02:41 23,9 C 7,8 C 4,4 C 13,3 C 55 % 93 % 1020,1 hPa 0,0 l/m 0,0 km/h (0 Bft) N 0 0 min 0,000 mm 0,0 UV-I 0 W/m 6,7 C 7,8 C 0,0 km/h (0 Bft) 95,65 %
17.10.2018 02:40 23,9 C 7,8 C 4,4 C 13,3 C 55 % 93 % 1020,1 hPa 0,0 l/m 0,0 km/h (0 Bft) N 0 0 min 0,000 mm 0,0 UV-I 0 W/m 6,7 C 7,8 C 0,0 km/h (0 Bft) 95,65 %
17.10.2018 02:39 23,9 C 7,8 C 4,4 C 13,3 C 55 % 93 % 1020,1 hPa 0,0 l/m 0,0 km/h (0 Bft) N 0 0 min 0,000 mm 0,0 UV-I 0 W/m 6,7 C 7,8 C 0,0 km/h (0 Bft) 95,65 %
17.10.2018 02:38 23,9 C 7,9 C 4,4 C 13,3 C 55 % 93 % 1020,1 hPa 0,0 l/m 0,0 km/h (0 Bft) N 0 0 min 0,000 mm 0,0 UV-I 0 W/m 6,8 C 7,9 C 0,0 km/h (0 Bft) 91,30 %
17.10.2018 02:37 23,9 C 7,9 C 4,4 C 13,3 C 55 % 93 % 1020,1 hPa 0,0 l/m 0,0 km/h (0 Bft) N 0 0 min 0,000 mm 0,0 UV-I 0 W/m 6,8 C 7,9 C 0,0 km/h (0 Bft) 95,65 %
17.10.2018 02:36 23,9 C 7,9 C 4,4 C 13,3 C 55 % 93 % 1020,1 hPa 0,0 l/m 0,0 km/h (0 Bft) N 0 0 min 0,000 mm 0,0 UV-I 0 W/m 6,8 C 7,9 C 0,0 km/h (0 Bft) 100,00 %
17.10.2018 02:35 23,9 C 8,0 C 4,4 C 13,3 C 55 % 93 % 1020,1 hPa 0,0 l/m 0,0 km/h (0 Bft) N 0 0 min 0,000 mm 0,0 UV-I 0 W/m 6,9 C 8,0 C 0,0 km/h (0 Bft) 91,30 %
17.10.2018 02:34 23,9 C 8,0 C 4,4 C 13,3 C 55 % 93 % 1020,1 hPa 0,0 l/m 0,0 km/h (0 Bft) N 0 0 min 0,000 mm 0,0 UV-I 0 W/m 6,9 C 8,0 C 0,0 km/h (0 Bft) 91,30 %
17.10.2018 02:33 23,9 C 8,0 C 4,4 C 13,3 C 55 % 93 % 1020,1 hPa 0,0 l/m 0,0 km/h (0 Bft) N 0 0 min 0,000 mm 0,0 UV-I 0 W/m 6,9 C 8,0 C 0,0 km/h (0 Bft) 100,00 %
17.10.2018 02:32 23,9 C 8,0 C 4,4 C 13,3 C 55 % 93 % 1020,1 hPa 0,0 l/m 0,0 km/h (0 Bft) N 0 0 min 0,000 mm 0,0 UV-I 0 W/m 6,9 C 8,0 C 0,0 km/h (0 Bft) 95,65 %
17.10.2018 02:31 23,9 C 8,0 C 4,4 C 13,3 C 55 % 93 % 1020,1 hPa 0,0 l/m 0,0 km/h (0 Bft) N 0 0 min 0,000 mm 0,0 UV-I 0 W/m 6,9 C 8,0 C 0,0 km/h (0 Bft) 91,30 %
17.10.2018 02:30 23,9 C 8,0 C 4,4 C 13,3 C 55 % 93 % 1020,1 hPa 0,0 l/m 0,0 km/h (0 Bft) N 0 0 min 0,000 mm 0,0 UV-I 0 W/m 6,9 C 8,0 C 0,0 km/h (0 Bft) 100,00 %
17.10.2018 02:29 23,9 C 8,1 C 4,4 C 13,3 C 55 % 93 % 1020,1 hPa 0,0 l/m 0,0 km/h (0 Bft) N 0 0 min 0,000 mm 0,0 UV-I 0 W/m 7,0 C 8,1 C 0,0 km/h (0 Bft) 91,30 %
17.10.2018 02:28 23,9 C 8,1 C 4,4 C 13,3 C 55 % 93 % 1020,1 hPa 0,0 l/m 0,0 km/h (0 Bft) N 0 0 min 0,000 mm 0,0 UV-I 0 W/m 7,0 C 8,1 C 0,0 km/h (0 Bft) 86,96 %
17.10.2018 02:27 23,9 C 8,2 C 4,4 C 13,3 C 55 % 93 % 1020,1 hPa 0,0 l/m 0,0 km/h (0 Bft) N 0 0 min 0,000 mm 0,0 UV-I 0 W/m 7,1 C 8,2 C 0,0 km/h (0 Bft) 100,00 %
17.10.2018 02:26 23,9 C 8,2 C 4,4 C 13,3 C 55 % 93 % 1020,1 hPa 0,0 l/m 0,0 km/h (0 Bft) N 0 0 min 0,000 mm 0,0 UV-I 0 W/m 7,1 C 8,2 C 0,0 km/h (0 Bft) 95,65 %
17.10.2018 02:25 23,9 C 8,2 C 4,4 C 13,3 C 55 % 93 % 1020,1 hPa 0,0 l/m 0,0 km/h (0 Bft) N 0 0 min 0,000 mm 0,0 UV-I 0 W/m 7,1 C 8,2 C 0,0 km/h (0 Bft) 95,65 %
17.10.2018 02:24 23,9 C 8,2 C 4,4 C 13,3 C 55 % 93 % 1020,1 hPa 0,0 l/m 0,0 km/h (0 Bft) N 0 0 min 0,000 mm 0,0 UV-I 0 W/m 7,1 C 8,2 C 0,0 km/h (0 Bft) 95,65 %
17.10.2018 02:23 23,9 C 8,3 C 4,4 C 13,3 C 55 % 93 % 1020,1 hPa 0,0 l/m 0,0 km/h (0 Bft) N 0 0 min 0,000 mm 0,0 UV-I 0 W/m 7,2 C 8,3 C 0,0 km/h (0 Bft) 95,65 %
17.10.2018 02:22 23,9 C 8,3 C 4,4 C 13,3 C 55 % 93 % 1020,1 hPa 0,0 l/m 0,0 km/h (0 Bft) N 0 0 min 0,000 mm 0,0 UV-I 0 W/m 7,2 C 8,3 C 0,0 km/h (0 Bft) 95,65 %
17.10.2018 02:21 23,9 C 8,3 C 4,4 C 13,3 C 55 % 93 % 1020,1 hPa 0,0 l/m 0,0 km/h (0 Bft) N 0 0 min 0,000 mm 0,0 UV-I 0 W/m 7,2 C 8,3 C 0,0 km/h (0 Bft) 86,96 %
17.10.2018 02:20 23,9 C 8,3 C 5,0 C 13,3 C 55 % 93 % 1020,1 hPa 0,0 l/m 0,0 km/h (0 Bft) N 0 0 min 0,000 mm 0,0 UV-I 0 W/m 7,2 C 8,3 C 0,0 km/h (0 Bft) 95,65 %
17.10.2018 02:19 23,9 C 8,3 C 5,0 C 13,3 C 55 % 93 % 1020,1 hPa 0,0 l/m 0,0 km/h (0 Bft) N 0 0 min 0,000 mm 0,0 UV-I 0 W/m 7,2 C 8,3 C 0,0 km/h (0 Bft) 95,65 %
17.10.2018 02:18 23,9 C 8,3 C 5,0 C 13,3 C 55 % 93 % 1020,1 hPa 0,0 l/m 0,0 km/h (0 Bft) N 0 0 min 0,000 mm 0,0 UV-I 0 W/m 7,2 C 8,3 C 0,0 km/h (0 Bft) 91,30 %
17.10.2018 02:17 23,9 C 8,3 C 5,0 C 13,3 C 55 % 93 % 1020,1 hPa 0,0 l/m 0,0 km/h (0 Bft) N 0 0 min 0,000 mm 0,0 UV-I 0 W/m 7,2 C 8,3 C 0,0 km/h (0 Bft) 100,00 %
17.10.2018 02:16 23,9 C 8,3 C 5,0 C 13,3 C 55 % 93 % 1020,1 hPa 0,0 l/m 0,0 km/h (0 Bft) N 0 0 min 0,000 mm 0,0 UV-I 0 W/m 7,2 C 8,3 C 0,0 km/h (0 Bft) 86,96 %
17.10.2018 02:15 23,9 C 8,3 C 5,0 C 13,3 C 55 % 93 % 1020,1 hPa 0,0 l/m 0,0 km/h (0 Bft) N 0 0 min 0,000 mm 0,0 UV-I 0 W/m 7,2 C 8,3 C 0,0 km/h (0 Bft) 95,65 %
17.10.2018 02:14 23,9 C 8,3 C 5,0 C 13,3 C 55 % 93 % 1020,1 hPa 0,0 l/m 0,0 km/h (0 Bft) N 0 0 min 0,000 mm 0,0 UV-I 0 W/m 7,2 C 8,3 C 0,0 km/h (0 Bft) 91,30 %
17.10.2018 02:13 23,9 C 8,3 C 5,0 C 13,3 C 56 % 93 % 1020,1 hPa 0,0 l/m 0,0 km/h (0 Bft) N 0 0 min 0,000 mm 0,0 UV-I 0 W/m 7,2 C 8,3 C 0,0 km/h (0 Bft) 95,65 %
17.10.2018 02:12 23,9 C 8,3 C 5,0 C 13,3 C 55 % 93 % 1020,1 hPa 0,0 l/m 0,0 km/h (0 Bft) N 0 0 min 0,000 mm 0,0 UV-I 0 W/m 7,2 C 8,3 C 0,0 km/h (0 Bft) 82,61 %
17.10.2018 02:11 23,9 C 8,3 C 5,0 C 13,3 C 55 % 93 % 1020,1 hPa 0,0 l/m 0,0 km/h (0 Bft) N 0 0 min 0,000 mm 0,0 UV-I 0 W/m 7,2 C 8,3 C 0,0 km/h (0 Bft) 100,00 %
17.10.2018 02:10 23,9 C 8,3 C 5,0 C 13,3 C 55 % 93 % 1020,1 hPa 0,0 l/m 0,0 km/h (0 Bft) N 0 0 min 0,000 mm 0,0 UV-I 0 W/m 7,2 C 8,3 C 0,0 km/h (0 Bft) 82,61 %
17.10.2018 02:09 23,9 C 8,3 C 5,0 C 13,3 C 55 % 93 % 1020,1 hPa 0,0 l/m 0,0 km/h (0 Bft) O-NO 67 0 min 0,000 mm 0,0 UV-I 0 W/m 7,2 C 8,3 C 1,6 km/h (1 Bft) 95,65 %
17.10.2018 02:08 23,9 C 8,3 C 5,0 C 13,3 C 55 % 93 % 1020,1 hPa 0,0 l/m 0,0 km/h (0 Bft) N 0 0 min 0,000 mm 0,0 UV-I 0 W/m 7,2 C 8,3 C 0,0 km/h (0 Bft) 95,65 %
17.10.2018 02:07 23,9 C 8,2 C 5,0 C 13,3 C 55 % 93 % 1020,1 hPa 0,0 l/m 0,0 km/h (0 Bft) N 0 0 min 0,000 mm 0,0 UV-I 0 W/m 7,1 C 8,2 C 0,0 km/h (0 Bft) 95,65 %
17.10.2018 02:06 23,9 C 8,2 C 5,0 C 13,3 C 55 % 93 % 1020,1 hPa 0,0 l/m 0,0 km/h (0 Bft) N 0 0 min 0,000 mm 0,0 UV-I 0 W/m 7,1 C 8,2 C 0,0 km/h (0 Bft) 86,96 %
17.10.2018 02:05 23,9 C 8,2 C 4,4 C 13,3 C 55 % 93 % 1020,1 hPa 0,0 l/m 0,0 km/h (0 Bft) O-NO 67 0 min 0,000 mm 0,0 UV-I 0 W/m 7,1 C 8,2 C 1,6 km/h (1 Bft) 86,96 %
17.10.2018 02:04 23,9 C 8,2 C 4,4 C 13,3 C 55 % 93 % 1020,1 hPa 0,0 l/m 0,0 km/h (0 Bft) O-NO 67 0 min 0,000 mm 0,0 UV-I 0 W/m 7,1 C 8,2 C 1,6 km/h (1 Bft) 91,30 %
17.10.2018 02:03 23,9 C 8,2 C 4,4 C 13,3 C 55 % 93 % 1020,1 hPa 0,0 l/m 1,6 km/h (1 Bft) O-NO 67 0 min 0,000 mm 0,0 UV-I 0 W/m 7,1 C 8,2 C 3,2 km/h (1 Bft) 86,96 %
17.10.2018 02:02 23,9 C 8,1 C 4,4 C 13,3 C 55 % 92 % 1020,1 hPa 0,0 l/m 0,0 km/h (0 Bft) N 0 0 min 0,000 mm 0,0 UV-I 0 W/m 6,9 C 8,1 C 0,0 km/h (0 Bft) 91,30 %
17.10.2018 02:01 23,9 C 8,1 C 4,4 C 13,3 C 55 % 92 % 1020,1 hPa 0,0 l/m 0,0 km/h (0 Bft) N 0 0 min 0,000 mm 0,0 UV-I 0 W/m 6,9 C 8,1 C 0,0 km/h (0 Bft) 91,30 %
17.10.2018 02:00 23,9 C 8,1 C 4,4 C 13,3 C 55 % 92 % 1020,1 hPa 0,0 l/m 0,0 km/h (0 Bft) N 0 0 min 0,000 mm 0,0 UV-I 0 W/m 6,9 C 8,1 C 0,0 km/h (0 Bft) 95,65 %
17.10.2018 01:59 23,9 C 8,1 C 4,4 C 13,3 C 55 % 92 % 1020,1 hPa 0,0 l/m 0,0 km/h (0 Bft) N 0 0 min 0,000 mm 0,0 UV-I 0 W/m 6,9 C 8,1 C 0,0 km/h (0 Bft) 91,30 %
17.10.2018 01:58 23,9 C 8,1 C 4,4 C 13,3 C 55 % 92 % 1020,1 hPa 0,0 l/m 0,0 km/h (0 Bft) N 0 0 min 0,000 mm 0,0 UV-I 0 W/m 6,9 C 8,1 C 0,0 km/h (0 Bft) 86,96 %
17.10.2018 01:57 23,9 C 8,2 C 4,4 C 13,3 C 55 % 92 % 1020,1 hPa 0,0 l/m 0,0 km/h (0 Bft) N 0 0 min 0,000 mm 0,0 UV-I 0 W/m 7,0 C 8,2 C 0,0 km/h (0 Bft) 86,96 %
17.10.2018 01:56 23,9 C 8,2 C 4,4 C 13,3 C 55 % 92 % 1020,1 hPa 0,0 l/m 0,0 km/h (0 Bft) N 0 0 min 0,000 mm 0,0 UV-I 0 W/m 7,0 C 8,2 C 0,0 km/h (0 Bft) 100,00 %
17.10.2018 01:55 23,9 C 8,2 C 4,4 C 13,3 C 55 % 92 % 1020,1 hPa 0,0 l/m 0,0 km/h (0 Bft) N 0 0 min 0,000 mm 0,0 UV-I 0 W/m 7,0 C 8,2 C 0,0 km/h (0 Bft) 86,96 %
17.10.2018 01:54 23,9 C 8,2 C 4,4 C 13,3 C 55 % 92 % 1020,1 hPa 0,0 l/m 0,0 km/h (0 Bft) N 0 0 min 0,000 mm 0,0 UV-I 0 W/m 7,0 C 8,2 C 0,0 km/h (0 Bft) 95,65 %
17.10.2018 01:53 23,9 C 8,2 C 4,4 C 13,3 C 55 % 92 % 1020,1 hPa 0,0 l/m 0,0 km/h (0 Bft) N 0 0 min 0,000 mm 0,0 UV-I 0 W/m 7,0 C 8,2 C 0,0 km/h (0 Bft) 91,30 %
17.10.2018 01:52 23,9 C 8,2 C 4,4 C 13,3 C 55 % 92 % 1020,1 hPa 0,0 l/m 0,0 km/h (0 Bft) N 0 0 min 0,000 mm 0,0 UV-I 0 W/m 7,0 C 8,2 C 0,0 km/h (0 Bft) 91,30 %
17.10.2018 01:51 23,9 C 8,2 C 4,4 C 13,3 C 55 % 92 % 1020,1 hPa 0,0 l/m 0,0 km/h (0 Bft) N 0 0 min 0,000 mm 0,0 UV-I 0 W/m 7,0 C 8,2 C 0,0 km/h (0 Bft) 86,96 %
17.10.2018 01:50 23,9 C 8,2 C 4,4 C 13,3 C 55 % 92 % 1020,1 hPa 0,0 l/m 0,0 km/h (0 Bft) N 0 0 min 0,000 mm 0,0 UV-I 0 W/m 7,0 C 8,2 C 0,0 km/h (0 Bft) 91,30 %
17.10.2018 01:49 23,9 C 8,2 C 4,4 C 13,3 C 55 % 92 % 1020,1 hPa 0,0 l/m 0,0 km/h (0 Bft) N 0 0 min 0,000 mm 0,0 UV-I 0 W/m 7,0 C 8,2 C 0,0 km/h (0 Bft) 95,65 %
17.10.2018 01:48 23,9 C 8,2 C 4,4 C 13,3 C 55 % 92 % 1020,1 hPa 0,0 l/m 0,0 km/h (0 Bft) N 0 0 min 0,000 mm 0,0 UV-I 0 W/m 7,0 C 8,2 C 0,0 km/h (0 Bft) 86,96 %
17.10.2018 01:47 23,9 C 8,2 C 4,4 C 13,3 C 55 % 92 % 1020,1 hPa 0,0 l/m 0,0 km/h (0 Bft) N 0 0 min 0,000 mm 0,0 UV-I 0 W/m 7,0 C 8,2 C 0,0 km/h (0 Bft) 100,00 %
17.10.2018 01:46 23,9 C 8,2 C 4,4 C 13,3 C 55 % 92 % 1020,1 hPa 0,0 l/m 0,0 km/h (0 Bft) N 0 0 min 0,000 mm 0,0 UV-I 0 W/m 7,0 C 8,2 C 0,0 km/h (0 Bft) 86,96 %
17.10.2018 01:45 23,9 C 8,2 C 4,4 C 13,3 C 55 % 92 % 1020,1 hPa 0,0 l/m 0,0 km/h (0 Bft) N 0 0 min 0,000 mm 0,0 UV-I 0 W/m 7,0 C 8,2 C 0,0 km/h (0 Bft) 91,30 %
17.10.2018 01:44 23,9 C 8,2 C 4,4 C 13,3 C 55 % 92 % 1020,1 hPa 0,0 l/m 0,0 km/h (0 Bft) N 0 0 min 0,000 mm 0,0 UV-I 0 W/m 7,0 C 8,2 C 0,0 km/h (0 Bft) 86,96 %
17.10.2018 01:43 23,9 C 8,2 C 4,4 C 13,3 C 55 % 92 % 1020,1 hPa 0,0 l/m 0,0 km/h (0 Bft) N 0 0 min 0,000 mm 0,0 UV-I 0 W/m 7,0 C 8,2 C 0,0 km/h (0 Bft) 91,30 %
17.10.2018 01:42 23,9 C 8,2 C 4,4 C 13,3 C 55 % 92 % 1020,1 hPa 0,0 l/m 0,0 km/h (0 Bft) N 0 0 min 0,000 mm 0,0 UV-I 0 W/m 7,0 C 8,2 C 0,0 km/h (0 Bft) 86,96 %
17.10.2018 01:41 23,9 C 8,2 C 4,4 C 13,3 C 55 % 92 % 1020,1 hPa 0,0 l/m 0,0 km/h (0 Bft) N 0 0 min 0,000 mm 0,0 UV-I 0 W/m 7,0 C 8,2 C 0,0 km/h (0 Bft) 91,30 %
17.10.2018 01:40 23,9 C 8,2 C 4,4 C 13,3 C 55 % 92 % 1020,1 hPa 0,0 l/m 0,0 km/h (0 Bft) N 0 0 min 0,000 mm 0,0 UV-I 0 W/m 7,0 C 8,2 C 0,0 km/h (0 Bft) 91,30 %
17.10.2018 01:39 23,9 C 8,3 C 4,4 C 13,3 C 55 % 92 % 1020,1 hPa 0,0 l/m 0,0 km/h (0 Bft) N 0 0 min 0,000 mm 0,0 UV-I 0 W/m 7,1 C 8,3 C 0,0 km/h (0 Bft) 91,30 %
17.10.2018 01:38 23,9 C 8,3 C 4,4 C 13,3 C 55 % 92 % 1020,1 hPa 0,0 l/m 0,0 km/h (0 Bft) N 0 0 min 0,000 mm 0,0 UV-I 0 W/m 7,1 C 8,3 C 0,0 km/h (0 Bft) 91,30 %
17.10.2018 01:37 23,9 C 8,3 C 4,4 C 13,3 C 55 % 92 % 1020,1 hPa 0,0 l/m 0,0 km/h (0 Bft) N 0 0 min 0,000 mm 0,0 UV-I 0 W/m 7,1 C 8,3 C 0,0 km/h (0 Bft) 95,65 %
17.10.2018 01:36 23,9 C 8,4 C 4,4 C 13,3 C 55 % 92 % 1020,1 hPa 0,0 l/m 0,0 km/h (0 Bft) N 0 0 min 0,000 mm 0,0 UV-I 0 W/m 7,2 C 8,4 C 0,0 km/h (0 Bft) 82,61 %
17.10.2018 01:35 23,9 C 8,4 C 4,4 C 13,3 C 55 % 92 % 1020,1 hPa 0,0 l/m 0,0 km/h (0 Bft) N 0 0 min 0,000 mm 0,0 UV-I 0 W/m 7,2 C 8,4 C 0,0 km/h (0 Bft) 95,65 %
17.10.2018 01:34 23,9 C 8,4 C 4,4 C 13,3 C 55 % 92 % 1020,1 hPa 0,0 l/m 0,0 km/h (0 Bft) N 0 0 min 0,000 mm 0,0 UV-I 0 W/m 7,2 C 8,4 C 0,0 km/h (0 Bft) 95,65 %
17.10.2018 01:33 23,9 C 8,5 C 5,0 C 13,3 C 55 % 92 % 1020,1 hPa 0,0 l/m 0,0 km/h (0 Bft) N 0 0 min 0,000 mm 0,0 UV-I 0 W/m 7,3 C 8,5 C 0,0 km/h (0 Bft) 82,61 %
17.10.2018 01:32 23,9 C 8,6 C 5,0 C 13,3 C 55 % 91 % 1020,1 hPa 0,0 l/m 0,0 km/h (0 Bft) N 0 0 min 0,000 mm 0,0 UV-I 0 W/m 7,2 C 8,6 C 0,0 km/h (0 Bft) 95,65 %
17.10.2018 01:31 23,9 C 8,6 C 5,0 C 13,3 C 55 % 91 % 1020,1 hPa 0,0 l/m 0,0 km/h (0 Bft) N 0 0 min 0,000 mm 0,0 UV-I 0 W/m 7,2 C 8,6 C 0,0 km/h (0 Bft) 91,30 %
17.10.2018 01:30 23,9 C 8,6 C 5,0 C 13,3 C 55 % 91 % 1020,1 hPa 0,0 l/m 0,0 km/h (0 Bft) N 0 0 min 0,000 mm 0,0 UV-I 0 W/m 7,2 C 8,6 C 0,0 km/h (0 Bft) 95,65 %
17.10.2018 01:29 23,9 C 8,6 C 5,0 C 13,3 C 55 % 91 % 1020,1 hPa 0,0 l/m 0,0 km/h (0 Bft) N 0 0 min 0,000 mm 0,0 UV-I 0 W/m 7,2 C 8,6 C 0,0 km/h (0 Bft) 91,30 %
17.10.2018 01:28 23,9 C 8,7 C 5,0 C 13,3 C 55 % 92 % 1020,1 hPa 0,0 l/m 0,0 km/h (0 Bft) N 0 0 min 0,000 mm 0,0 UV-I 0 W/m 7,5 C 8,7 C 0,0 km/h (0 Bft) 95,65 %
17.10.2018 01:27 23,9 C 8,7 C 5,0 C 13,3 C 55 % 91 % 1020,1 hPa 0,0 l/m 0,0 km/h (0 Bft) N 0 0 min 0,000 mm 0,0 UV-I 0 W/m 7,3 C 8,7 C 0,0 km/h (0 Bft) 91,30 %
17.10.2018 01:26 23,9 C 8,7 C 5,0 C 13,3 C 55 % 91 % 1020,1 hPa 0,0 l/m 0,0 km/h (0 Bft) N 0 0 min 0,000 mm 0,0 UV-I 0 W/m 7,3 C 8,7 C 0,0 km/h (0 Bft) 91,30 %
17.10.2018 01:25 23,9 C 8,7 C 5,0 C 13,3 C 55 % 91 % 1020,1 hPa 0,0 l/m 0,0 km/h (0 Bft) N 0 0 min 0,000 mm 0,0 UV-I 0 W/m 7,3 C 8,7 C 0,0 km/h (0 Bft) 91,30 %
17.10.2018 01:24 23,9 C 8,8 C 5,0 C 13,3 C 55 % 91 % 1020,1 hPa 0,0 l/m 0,0 km/h (0 Bft) N 0 0 min 0,000 mm 0,0 UV-I 0 W/m 7,4 C 8,8 C 0,0 km/h (0 Bft) 95,65 %
17.10.2018 01:23 23,9 C 8,8 C 5,0 C 13,3 C 55 % 91 % 1020,1 hPa 0,0 l/m 0,0 km/h (0 Bft) N 0 0 min 0,000 mm 0,0 UV-I 0 W/m 7,4 C 8,8 C 0,0 km/h (0 Bft) 86,96 %
17.10.2018 01:22 23,9 C 8,8 C 5,0 C 13,3 C 55 % 91 % 1020,1 hPa 0,0 l/m 0,0 km/h (0 Bft) N 0 0 min 0,000 mm 0,0 UV-I 0 W/m 7,4 C 8,8 C 0,0 km/h (0 Bft) 100,00 %
17.10.2018 01:21 23,9 C 8,9 C 5,0 C 13,3 C 55 % 91 % 1020,1 hPa 0,0 l/m 0,0 km/h (0 Bft) N 0 0 min 0,000 mm 0,0 UV-I 0 W/m 7,5 C 8,9 C 0,0 km/h (0 Bft) 91,30 %
17.10.2018 01:20 23,9 C 9,0 C 5,0 C 13,3 C 56 % 90 % 1020,1 hPa 0,0 l/m 0,0 km/h (0 Bft) N 0 0 min 0,000 mm 0,0 UV-I 0 W/m 7,4 C 9,0 C 0,0 km/h (0 Bft) 95,65 %
17.10.2018 01:19 23,9 C 9,0 C 5,0 C 13,3 C 55 % 90 % 1020,1 hPa 0,0 l/m 0,0 km/h (0 Bft) N 0 0 min 0,000 mm 0,0 UV-I 0 W/m 7,4 C 9,0 C 0,0 km/h (0 Bft) 91,30 %
17.10.2018 01:18 23,9 C 9,1 C 5,0 C 13,3 C 55 % 90 % 1020,1 hPa 0,0 l/m 0,0 km/h (0 Bft) N 0 0 min 0,000 mm 0,0 UV-I 0 W/m 7,5 C 9,1 C 0,0 km/h (0 Bft) 91,30 %
17.10.2018 01:17 23,9 C 9,1 C 5,0 C 13,3 C 55 % 91 % 1020,1 hPa 0,0 l/m 0,0 km/h (0 Bft) N 0 0 min 0,000 mm 0,0 UV-I 0 W/m 7,7 C 9,1 C 0,0 km/h (0 Bft) 95,65 %
17.10.2018 01:16 23,9 C 9,1 C 5,0 C 13,3 C 55 % 91 % 1020,1 hPa 0,0 l/m 0,0 km/h (0 Bft) N 0 0 min 0,000 mm 0,0 UV-I 0 W/m 7,7 C 9,1 C 0,0 km/h (0 Bft) 95,65 %
17.10.2018 01:15 23,9 C 9,1 C 5,0 C 13,3 C 55 % 91 % 1020,1 hPa 0,0 l/m 0,0 km/h (0 Bft) N 0 0 min 0,000 mm 0,0 UV-I 0 W/m 7,7 C 9,1 C 0,0 km/h (0 Bft) 82,61 %
17.10.2018 01:14 23,9 C 9,1 C 5,0 C 13,3 C 55 % 91 % 1020,2 hPa 0,0 l/m 0,0 km/h (0 Bft) N 0 0 min 0,000 mm 0,0 UV-I 0 W/m 7,7 C 9,1 C 0,0 km/h (0 Bft) 91,30 %
17.10.2018 01:13 23,9 C 9,1 C 5,0 C 13,3 C 55 % 91 % 1020,2 hPa 0,0 l/m 0,0 km/h (0 Bft) N 0 0 min 0,000 mm 0,0 UV-I 0 W/m 7,7 C 9,1 C 0,0 km/h (0 Bft) 100,00 %
17.10.2018 01:12 23,9 C 9,1 C 5,0 C 13,3 C 55 % 90 % 1020,2 hPa 0,0 l/m 0,0 km/h (0 Bft) N 0 0 min 0,000 mm 0,0 UV-I 0 W/m 7,5 C 9,1 C 0,0 km/h (0 Bft) 91,30 %
17.10.2018 01:11 23,9 C 9,1 C 5,0 C 13,3 C 55 % 91 % 1020,2 hPa 0,0 l/m 0,0 km/h (0 Bft) N 0 0 min 0,000 mm 0,0 UV-I 0 W/m 7,7 C 9,1 C 0,0 km/h (0 Bft) 95,65 %
17.10.2018 01:10 23,9 C 9,1 C 5,0 C 13,3 C 55 % 91 % 1020,2 hPa 0,0 l/m 0,0 km/h (0 Bft) N 0 0 min 0,000 mm 0,0 UV-I 0 W/m 7,7 C 9,1 C 0,0 km/h (0 Bft) 95,65 %
17.10.2018 01:09 23,9 C 9,1 C 5,0 C 13,3 C 55 % 91 % 1020,2 hPa 0,0 l/m 0,0 km/h (0 Bft) N 0 0 min 0,000 mm 0,0 UV-I 0 W/m 7,7 C 9,1 C 0,0 km/h (0 Bft) 95,65 %
17.10.2018 01:08 23,9 C 9,2 C 5,0 C 13,3 C 55 % 91 % 1020,2 hPa 0,0 l/m 0,0 km/h (0 Bft) N 0 0 min 0,000 mm 0,0 UV-I 0 W/m 7,8 C 9,2 C 0,0 km/h (0 Bft) 86,96 %
17.10.2018 01:07 23,9 C 9,2 C 5,0 C 13,3 C 55 % 91 % 1020,2 hPa 0,0 l/m 0,0 km/h (0 Bft) N 0 0 min 0,000 mm 0,0 UV-I 0 W/m 7,8 C 9,2 C 0,0 km/h (0 Bft) 100,00 %
17.10.2018 01:06 23,9 C 9,2 C 5,0 C 13,3 C 55 % 91 % 1020,2 hPa 0,0 l/m 0,0 km/h (0 Bft) N 0 0 min 0,000 mm 0,0 UV-I 0 W/m 7,8 C 9,2 C 0,0 km/h (0 Bft) 91,30 %
17.10.2018 01:05 23,9 C 9,2 C 5,0 C 13,3 C 55 % 91 % 1020,2 hPa 0,0 l/m 0,0 km/h (0 Bft) N 0 0 min 0,000 mm 0,0 UV-I 0 W/m 7,8 C 9,2 C 0,0 km/h (0 Bft) 95,65 %
17.10.2018 01:04 23,9 C 9,2 C 5,0 C 13,3 C 55 % 91 % 1020,2 hPa 0,0 l/m 0,0 km/h (0 Bft) N 0 0 min 0,000 mm 0,0 UV-I 0 W/m 7,8 C 9,2 C 0,0 km/h (0 Bft) 91,30 %
17.10.2018 01:03 23,9 C 9,2 C 5,0 C 13,3 C 55 % 90 % 1020,2 hPa 0,0 l/m 0,0 km/h (0 Bft) O-NO 67 0 min 0,000 mm 0,0 UV-I 0 W/m 7,6 C 9,2 C 1,6 km/h (1 Bft) 95,65 %
17.10.2018 01:02 23,9 C 9,2 C 5,0 C 13,3 C 55 % 90 % 1020,2 hPa 0,0 l/m 1,6 km/h (1 Bft) O-NO 67 0 min 0,000 mm 0,0 UV-I 0 W/m 7,6 C 9,2 C 3,2 km/h (1 Bft) 86,96 %
17.10.2018 01:01 23,9 C 9,2 C 5,0 C 13,3 C 55 % 90 % 1020,2 hPa 0,0 l/m 0,0 km/h (0 Bft) N 0 0 min 0,000 mm 0,0 UV-I 0 W/m 7,6 C 9,2 C 0,0 km/h (0 Bft) 91,30 %
17.10.2018 01:00 23,9 C 9,2 C 5,0 C 13,9 C 55 % 90 % 1020,2 hPa 0,0 l/m 0,0 km/h (0 Bft) O-NO 67 0 min 0,000 mm 0,0 UV-I 0 W/m 7,6 C 9,2 C 1,6 km/h (1 Bft) 91,30 %
17.10.2018 00:59 23,9 C 9,2 C 5,0 C 13,9 C 55 % 90 % 1020,1 hPa 0,0 l/m 1,6 km/h (1 Bft) O-NO 67 0 min 0,000 mm 0,0 UV-I 0 W/m 7,6 C 9,2 C 3,2 km/h (1 Bft) 86,96 %
17.10.2018 00:58 23,9 C 9,2 C 5,0 C 13,9 C 55 % 90 % 1020,1 hPa 0,0 l/m 0,0 km/h (0 Bft) O-NO 67 0 min 0,000 mm 0,0 UV-I 0 W/m 7,6 C 9,2 C 1,6 km/h (1 Bft) 95,65 %
17.10.2018 00:57 23,9 C 9,2 C 5,0 C 13,9 C 55 % 90 % 1020,1 hPa 0,0 l/m 0,0 km/h (0 Bft) N 0 0 min 0,000 mm 0,0 UV-I 0 W/m 7,6 C 9,2 C 0,0 km/h (0 Bft) 91,30 %
17.10.2018 00:56 23,9 C 9,2 C 5,0 C 13,9 C 55 % 90 % 1020,1 hPa 0,0 l/m 0,0 km/h (0 Bft) N 0 0 min 0,000 mm 0,0 UV-I 0 W/m 7,6 C 9,2 C 0,0 km/h (0 Bft) 91,30 %
17.10.2018 00:55 23,9 C 9,2 C 5,0 C 13,9 C 55 % 90 % 1020,1 hPa 0,0 l/m 0,0 km/h (0 Bft) O-NO 67 0 min 0,000 mm 0,0 UV-I 0 W/m 7,6 C 9,2 C 1,6 km/h (1 Bft) 100,00 %
17.10.2018 00:54 23,9 C 9,2 C 5,0 C 13,9 C 55 % 90 % 1020,1 hPa 0,0 l/m 0,0 km/h (0 Bft) N 0 0 min 0,000 mm 0,0 UV-I 0 W/m 7,6 C 9,2 C 0,0 km/h (0 Bft) 95,65 %
17.10.2018 00:53 23,9 C 9,2 C 5,0 C 13,9 C 55 % 90 % 1020,1 hPa 0,0 l/m 0,0 km/h (0 Bft) N 0 0 min 0,000 mm 0,0 UV-I 0 W/m 7,6 C 9,2 C 0,0 km/h (0 Bft) 91,30 %
17.10.2018 00:52 23,9 C 9,2 C 5,0 C 13,9 C 55 % 90 % 1020,1 hPa 0,0 l/m 0,0 km/h (0 Bft) N 0 0 min 0,000 mm 0,0 UV-I 0 W/m 7,6 C 9,2 C 0,0 km/h (0 Bft) 95,65 %
17.10.2018 00:51 23,9 C 9,3 C 5,0 C 13,9 C 55 % 90 % 1020,1 hPa 0,0 l/m 0,0 km/h (0 Bft) N 0 0 min 0,000 mm 0,0 UV-I 0 W/m 7,7 C 9,3 C 0,0 km/h (0 Bft) 91,30 %
17.10.2018 00:50 23,9 C 9,3 C 5,0 C 13,9 C 55 % 90 % 1020,1 hPa 0,0 l/m 0,0 km/h (0 Bft) N 0 0 min 0,000 mm 0,0 UV-I 0 W/m 7,7 C 9,3 C 0,0 km/h (0 Bft) 95,65 %
17.10.2018 00:49 23,9 C 9,3 C 5,0 C 13,9 C 55 % 90 % 1020,1 hPa 0,0 l/m 0,0 km/h (0 Bft) N 0 0 min 0,000 mm 0,0 UV-I 0 W/m 7,7 C 9,3 C 0,0 km/h (0 Bft) 91,30 %
17.10.2018 00:48 23,9 C 9,3 C 5,0 C 13,9 C 55 % 90 % 1020,1 hPa 0,0 l/m 0,0 km/h (0 Bft) N 0 0 min 0,000 mm 0,0 UV-I 0 W/m 7,7 C 9,3 C 0,0 km/h (0 Bft) 100,00 %
17.10.2018 00:47 23,9 C 9,3 C 5,0 C 13,9 C 55 % 90 % 1020,1 hPa 0,0 l/m 0,0 km/h (0 Bft) N 0 0 min 0,000 mm 0,0 UV-I 0 W/m 7,7 C 9,3 C 0,0 km/h (0 Bft) 95,65 %
17.10.2018 00:46 23,9 C 9,2 C 5,0 C 13,9 C 55 % 91 % 1020,1 hPa 0,0 l/m 0,0 km/h (0 Bft) N 0 0 min 0,000 mm 0,0 UV-I 0 W/m 7,8 C 9,2 C 0,0 km/h (0 Bft) 91,30 %
17.10.2018 00:45 23,9 C 9,2 C 5,0 C 13,9 C 55 % 91 % 1020,1 hPa 0,0 l/m 0,0 km/h (0 Bft) N 0 0 min 0,000 mm 0,0 UV-I 0 W/m 7,8 C 9,2 C 0,0 km/h (0 Bft) 100,00 %
17.10.2018 00:44 23,9 C 9,2 C 5,0 C 13,9 C 55 % 91 % 1020,1 hPa 0,0 l/m 0,0 km/h (0 Bft) N 0 0 min 0,000 mm 0,0 UV-I 0 W/m 7,8 C 9,2 C 0,0 km/h (0 Bft) 86,96 %
17.10.2018 00:43 23,9 C 9,1 C 5,0 C 13,9 C 55 % 91 % 1020,1 hPa 0,0 l/m 0,0 km/h (0 Bft) N 0 0 min 0,000 mm 0,0 UV-I 0 W/m 7,7 C 9,1 C 0,0 km/h (0 Bft) 91,30 %
17.10.2018 00:42 23,9 C 9,1 C 5,0 C 13,9 C 55 % 91 % 1020,1 hPa 0,0 l/m 0,0 km/h (0 Bft) N 0 0 min 0,000 mm 0,0 UV-I 0 W/m 7,7 C 9,1 C 0,0 km/h (0 Bft) 100,00 %
17.10.2018 00:41 23,9 C 9,1 C 5,0 C 13,9 C 55 % 91 % 1020,1 hPa 0,0 l/m 0,0 km/h (0 Bft) N 0 0 min 0,000 mm 0,0 UV-I 0 W/m 7,7 C 9,1 C 3,2 km/h (1 Bft) 95,65 %
17.10.2018 00:40 23,9 C 9,1 C 5,0 C 13,9 C 55 % 90 % 1020,1 hPa 0,0 l/m 1,6 km/h (1 Bft) O-NO 67 0 min 0,000 mm 0,0 UV-I 0 W/m 7,5 C 9,1 C 3,2 km/h (1 Bft) 95,65 %
17.10.2018 00:39 23,9 C 9,0 C 5,0 C 13,9 C 55 % 90 % 1020,1 hPa 0,0 l/m 0,0 km/h (0 Bft) O-NO 67 0 min 0,000 mm 0,0 UV-I 0 W/m 7,4 C 9,0 C 3,2 km/h (1 Bft) 100,00 %
17.10.2018 00:38 23,9 C 9,0 C 5,0 C 13,9 C 55 % 90 % 1020,1 hPa 0,0 l/m 0,0 km/h (0 Bft) N 0 0 min 0,000 mm 0,0 UV-I 0 W/m 7,4 C 9,0 C 0,0 km/h (0 Bft) 95,65 %
17.10.2018 00:37 23,9 C 9,0 C 5,0 C 13,9 C 55 % 90 % 1020,1 hPa 0,0 l/m 0,0 km/h (0 Bft) O-NO 67 0 min 0,000 mm 0,0 UV-I 0 W/m 7,4 C 9,0 C 1,6 km/h (1 Bft) 91,30 %
17.10.2018 00:36 23,9 C 9,1 C 5,6 C 13,9 C 55 % 90 % 1020,1 hPa 0,0 l/m 0,0 km/h (0 Bft) N 0 0 min 0,000 mm 0,0 UV-I 0 W/m 7,5 C 9,1 C 0,0 km/h (0 Bft) 100,00 %
17.10.2018 00:35 23,9 C 9,1 C 5,6 C 13,9 C 55 % 90 % 1020,1 hPa 0,0 l/m 0,0 km/h (0 Bft) O-NO 67 0 min 0,000 mm 0,0 UV-I 0 W/m 7,5 C 9,1 C 1,6 km/h (1 Bft) 95,65 %
17.10.2018 00:34 23,9 C 9,1 C 5,6 C 13,9 C 55 % 89 % 1020,1 hPa 0,0 l/m 0,0 km/h (0 Bft) N 0 0 min 0,000 mm 0,0 UV-I 0 W/m 7,4 C 9,1 C 0,0 km/h (0 Bft) 95,65 %
17.10.2018 00:33 23,9 C 9,1 C 5,6 C 13,9 C 55 % 90 % 1020,1 hPa 0,0 l/m 0,0 km/h (0 Bft) N 0 0 min 0,000 mm 0,0 UV-I 0 W/m 7,5 C 9,1 C 0,0 km/h (0 Bft) 100,00 %
17.10.2018 00:32 23,9 C 9,2 C 5,6 C 13,9 C 55 % 89 % 1020,1 hPa 0,0 l/m 0,0 km/h (0 Bft) N 0 0 min 0,000 mm 0,0 UV-I 0 W/m 7,5 C 9,2 C 0,0 km/h (0 Bft) 95,65 %
17.10.2018 00:31 23,9 C 9,2 C 5,6 C 13,9 C 55 % 89 % 1020,1 hPa 0,0 l/m 0,0 km/h (0 Bft) N 0 0 min 0,000 mm 0,0 UV-I 0 W/m 7,5 C 9,2 C 0,0 km/h (0 Bft) 95,65 %
17.10.2018 00:30 23,9 C 9,2 C 5,6 C 13,9 C 55 % 89 % 1020,1 hPa 0,0 l/m 0,0 km/h (0 Bft) N 0 0 min 0,000 mm 0,0 UV-I 0 W/m 7,5 C 9,2 C 0,0 km/h (0 Bft) 100,00 %
17.10.2018 00:29 23,9 C 9,3 C 5,6 C 13,9 C 55 % 89 % 1020,0 hPa 0,0 l/m 0,0 km/h (0 Bft) N 0 0 min 0,000 mm 0,0 UV-I 0 W/m 7,6 C 9,3 C 0,0 km/h (0 Bft) 91,30 %
17.10.2018 00:28 23,9 C 9,3 C 5,6 C 13,9 C 55 % 89 % 1020,0 hPa 0,0 l/m 0,0 km/h (0 Bft) N 0 0 min 0,000 mm 0,0 UV-I 0 W/m 7,6 C 9,3 C 0,0 km/h (0 Bft) 95,65 %
17.10.2018 00:27 23,9 C 9,4 C 5,6 C 13,9 C 55 % 92 % 1020,0 hPa 0,0 l/m 0,0 km/h (0 Bft) N 0 0 min 0,000 mm 0,0 UV-I 0 W/m 8,2 C 9,4 C 0,0 km/h (0 Bft) 100,00 %
17.10.2018 00:26 23,9 C 9,5 C 5,6 C 13,9 C 55 % 89 % 1020,0 hPa 0,0 l/m 0,0 km/h (0 Bft) N 0 0 min 0,000 mm 0,0 UV-I 0 W/m 7,8 C 9,5 C 0,0 km/h (0 Bft) 95,65 %
17.10.2018 00:25 23,9 C 9,5 C 5,6 C 13,9 C 55 % 89 % 1020,0 hPa 0,0 l/m 0,0 km/h (0 Bft) N 0 0 min 0,000 mm 0,0 UV-I 0 W/m 7,8 C 9,5 C 0,0 km/h (0 Bft) 91,30 %
17.10.2018 00:24 23,9 C 9,6 C 5,6 C 13,9 C 55 % 89 % 1020,0 hPa 0,0 l/m 0,0 km/h (0 Bft) N 0 0 min 0,000 mm 0,0 UV-I 0 W/m 7,9 C 9,6 C 0,0 km/h (0 Bft) 95,65 %
17.10.2018 00:23 23,9 C 9,6 C 5,6 C 13,9 C 55 % 89 % 1020,0 hPa 0,0 l/m 0,0 km/h (0 Bft) N 0 0 min 0,000 mm 0,0 UV-I 0 W/m 7,9 C 9,6 C 0,0 km/h (0 Bft) 91,30 %
17.10.2018 00:22 23,9 C 9,6 C 5,6 C 13,9 C 55 % 89 % 1020,0 hPa 0,0 l/m 0,0 km/h (0 Bft) N 0 0 min 0,000 mm 0,0 UV-I 0 W/m 7,9 C 9,6 C 0,0 km/h (0 Bft) 95,65 %
17.10.2018 00:21 23,9 C 9,6 C 5,6 C 13,9 C 55 % 89 % 1020,0 hPa 0,0 l/m 0,0 km/h (0 Bft) N 0 0 min 0,000 mm 0,0 UV-I 0 W/m 7,9 C 9,6 C 0,0 km/h (0 Bft) 91,30 %
17.10.2018 00:20 23,9 C 9,6 C 5,6 C 13,9 C 55 % 89 % 1020,0 hPa 0,0 l/m 0,0 km/h (0 Bft) N 0 0 min 0,000 mm 0,0 UV-I 0 W/m 7,9 C 9,6 C 0,0 km/h (0 Bft) 95,65 %
17.10.2018 00:19 23,9 C 9,6 C 5,6 C 13,9 C 55 % 89 % 1020,0 hPa 0,0 l/m 0,0 km/h (0 Bft) N 0 0 min 0,000 mm 0,0 UV-I 0 W/m 7,9 C 9,6 C 0,0 km/h (0 Bft) 91,30 %
17.10.2018 00:18 23,9 C 9,6 C 5,6 C 13,9 C 55 % 89 % 1020,0 hPa 0,0 l/m 0,0 km/h (0 Bft) N 0 0 min 0,000 mm 0,0 UV-I 0 W/m 7,9 C 9,6 C 0,0 km/h (0 Bft) 100,00 %
17.10.2018 00:17 23,9 C 9,6 C 5,6 C 13,9 C 55 % 89 % 1020,0 hPa 0,0 l/m 0,0 km/h (0 Bft) N 0 0 min 0,000 mm 0,0 UV-I 0 W/m 7,9 C 9,6 C 0,0 km/h (0 Bft) 91,30 %
17.10.2018 00:16 23,9 C 9,6 C 5,6 C 13,9 C 55 % 89 % 1020,0 hPa 0,0 l/m 0,0 km/h (0 Bft) N 0 0 min 0,000 mm 0,0 UV-I 0 W/m 7,9 C 9,6 C 0,0 km/h (0 Bft) 95,65 %
17.10.2018 00:15 23,9 C 9,6 C 5,6 C 13,9 C 55 % 88 % 1020,0 hPa 0,0 l/m 0,0 km/h (0 Bft) N 0 0 min 0,000 mm 0,0 UV-I 0 W/m 7,7 C 9,6 C 0,0 km/h (0 Bft) 95,65 %
17.10.2018 00:14 23,9 C 9,6 C 5,6 C 13,9 C 55 % 88 % 1020,1 hPa 0,0 l/m 0,0 km/h (0 Bft) N 0 0 min 0,000 mm 0,0 UV-I 0 W/m 7,7 C 9,6 C 0,0 km/h (0 Bft) 95,65 %
17.10.2018 00:13 23,9 C 9,7 C 6,1 C 13,9 C 55 % 88 % 1020,1 hPa 0,0 l/m 0,0 km/h (0 Bft) N 0 0 min 0,000 mm 0,0 UV-I 0 W/m 7,8 C 9,7 C 0,0 km/h (0 Bft) 91,30 %
17.10.2018 00:12 23,9 C 9,7 C 6,1 C 13,9 C 55 % 88 % 1020,1 hPa 0,0 l/m 0,0 km/h (0 Bft) N 0 0 min 0,000 mm 0,0 UV-I 0 W/m 7,8 C 9,7 C 0,0 km/h (0 Bft) 95,65 %
17.10.2018 00:11 23,9 C 9,7 C 6,1 C 13,9 C 55 % 88 % 1020,1 hPa 0,0 l/m 0,0 km/h (0 Bft) N 0 0 min 0,000 mm 0,0 UV-I 0 W/m 7,8 C 9,7 C 0,0 km/h (0 Bft) 95,65 %
17.10.2018 00:10 23,9 C 9,8 C 6,1 C 13,9 C 55 % 88 % 1020,1 hPa 0,0 l/m 0,0 km/h (0 Bft) N 0 0 min 0,000 mm 0,0 UV-I 0 W/m 7,9 C 9,8 C 0,0 km/h (0 Bft) 91,30 %
17.10.2018 00:09 23,9 C 9,8 C 6,1 C 13,9 C 55 % 88 % 1020,1 hPa 0,0 l/m 0,0 km/h (0 Bft) N 0 0 min 0,000 mm 0,0 UV-I 0 W/m 7,9 C 9,8 C 0,0 km/h (0 Bft) 100,00 %
17.10.2018 00:08 23,9 C 9,9 C 6,1 C 13,9 C 55 % 88 % 1020,1 hPa 0,0 l/m 0,0 km/h (0 Bft) N 0 0 min 0,000 mm 0,0 UV-I 0 W/m 8,0 C 9,9 C 0,0 km/h (0 Bft) 91,30 %
17.10.2018 00:07 23,9 C 9,9 C 6,1 C 13,9 C 56 % 87 % 1020,1 hPa 0,0 l/m 0,0 km/h (0 Bft) N 0 0 min 0,000 mm 0,0 UV-I 0 W/m 7,8 C 9,9 C 0,0 km/h (0 Bft) 91,30 %
17.10.2018 00:06 23,9 C 9,9 C 6,7 C 13,9 C 55 % 87 % 1020,1 hPa 0,0 l/m 0,0 km/h (0 Bft) N 0 0 min 0,000 mm 0,0 UV-I 0 W/m 7,8 C 9,9 C 0,0 km/h (0 Bft) 91,30 %
17.10.2018 00:05 23,9 C 10,0 C 6,7 C 13,9 C 55 % 87 % 1020,1 hPa 0,0 l/m 0,0 km/h (0 Bft) N 0 0 min 0,000 mm 0,0 UV-I 0 W/m 7,9 C 10,0 C 0,0 km/h (0 Bft) 91,30 %
17.10.2018 00:04 23,9 C 10,0 C 6,7 C 13,9 C 55 % 87 % 1020,1 hPa 0,0 l/m 0,0 km/h (0 Bft) N 0 0 min 0,000 mm 0,0 UV-I 0 W/m 7,9 C 10,0 C 0,0 km/h (0 Bft) 91,30 %
17.10.2018 00:03 23,9 C 10,1 C 6,7 C 13,9 C 55 % 87 % 1020,1 hPa 0,0 l/m 0,0 km/h (0 Bft) N 0 0 min 0,000 mm 0,0 UV-I 0 W/m 8,0 C 10,1 C 0,0 km/h (0 Bft) 95,65 %
17.10.2018 00:02 23,9 C 10,1 C 6,7 C 13,9 C 55 % 87 % 1020,1 hPa 0,0 l/m 0,0 km/h (0 Bft) N 0 0 min 0,000 mm 0,0 UV-I 0 W/m 8,0 C 10,1 C 0,0 km/h (0 Bft) 95,65 %
17.10.2018 00:01 23,9 C 10,1 C 6,7 C 13,9 C 55 % 87 % 1020,1 hPa 0,0 l/m 0,0 km/h (0 Bft) N 0 0 min 0,000 mm 0,0 UV-I 0 W/m 8,0 C 10,1 C 0,0 km/h (0 Bft) 86,96 %
17.10.2018 00:00 23,9 C 10,1 C 6,7 C 13,9 C 55 % 87 % 1020,1 hPa 0,0 l/m 0,0 km/h (0 Bft) N 0 0 min 0,000 mm 0,0 UV-I 0 W/m 8,0 C 10,1 C 0,0 km/h (0 Bft) 91,30 %
_ Min-Zeit 07:40 07:22 06:46 08:36 07:15 15:00 15:45 - 00:00 - - - - - - 07:22 07:22 00:00 01:15
Minimum _ 23,4 C 5,1 C 2,2 C 12,2 C 52 % 54 % 1018,4 hPa - 0,0 km/h (0 Bft) - - - - - - 4,4 C 5,1 C 0,0 km/h (0 Bft) 82,61 %
_ Max-Zeit 06:17 14:59 13:36 00:00 00:07 05:01 09:15 00:00 12:29 - - 09:24 13:00 12:38 12:24 13:32 14:59 12:29 00:09
Maximum _ 24,2 C 19,8 C 36,1 C 13,9 C 56 % 95 % 1021,2 hPa 0,0 l/m 4,8 km/h
O-NO (1 Bft)
- - 1 min 0,254 mm 3,2 UV-I 461 W/m 11,3 C 19,8 C 8,0 km/h
O-NO (2 Bft)
100,00 %
Durchschnitt _ 23,8 C 10,6 C 14,2 C 13,0 C 55 % 84 % 1020,2 hPa #0,0 l/m 0,4 km/h (0 Bft) O-NO - #6:31 h #1,142 mm 2,4 UV-I 296 W/m 7,6 C 10,6 C 1,1 km/h (1 Bft) 94,09 %